<?xml version='1.0' encoding='UTF-8'?><gpx version="1.1" creator="JPX - https://github.com/jenetics/jpx" xmlns="http://www.topografix.com/GPX/1/1"><trk><trkseg><trkpt lat="44.169992632710844" lon="9.609874323070477"><ele>7.999999999999999</ele><time>2026-04-09T12:35:57.004Z</time></trkpt><trkpt lat="44.1699301286649" lon="9.60980839849603"><ele>8.0</ele><time>2026-04-09T12:36:17.001Z</time></trkpt><trkpt lat="44.16990602171321" lon="9.609716562107998"><ele>8.0</ele><time>2026-04-09T12:36:20Z</time></trkpt><trkpt lat="44.169968395804766" lon="9.60963242048571"><ele>8.0</ele><time>2026-04-09T12:36:24Z</time></trkpt><trkpt lat="44.17004899075993" lon="9.609594232284255"><ele>7.999999999999999</ele><time>2026-04-09T12:36:26Z</time></trkpt><trkpt lat="44.170143543316804" lon="9.60954835421843"><ele>8.0</ele><time>2026-04-09T12:36:28Z</time></trkpt><trkpt lat="44.17020130889902" lon="9.609499518764173"><ele>8.0</ele><time>2026-04-09T12:36:29Z</time></trkpt><trkpt lat="44.170262258204374" lon="9.609466181529848"><ele>7.999999999999999</ele><time>2026-04-09T12:36:30Z</time></trkpt><trkpt lat="44.17032816946976" lon="9.609419049327995"><ele>8.0</ele><time>2026-04-09T12:36:31Z</time></trkpt><trkpt lat="44.17039145240015" lon="9.609372891542167"><ele>8.0</ele><time>2026-04-09T12:36:32Z</time></trkpt><trkpt lat="44.17045828500949" lon="9.60931866687495"><ele>7.999999999999999</ele><time>2026-04-09T12:36:33Z</time></trkpt><trkpt lat="44.170539602602425" lon="9.609284930871734"><ele>8.0</ele><time>2026-04-09T12:36:33.999Z</time></trkpt><trkpt lat="44.17060698402861" lon="9.60924494083229"><ele>8.0</ele><time>2026-04-09T12:36:34.999Z</time></trkpt><trkpt lat="44.17067757328353" lon="9.609203047043355"><ele>7.800000000000001</ele><time>2026-04-09T12:36:35.999Z</time></trkpt><trkpt lat="44.17074668851269" lon="9.609162028034689"><ele>7.6000000000000005</ele><time>2026-04-09T12:36:36.999Z</time></trkpt><trkpt lat="44.17082965830022" lon="9.609105942895905"><ele>7.3999999999999995</ele><time>2026-04-09T12:36:37.999Z</time></trkpt><trkpt lat="44.170926825948754" lon="9.609080362051182"><ele>7.199999999999999</ele><time>2026-04-09T12:36:41.999Z</time></trkpt><trkpt lat="44.171003905912535" lon="9.60905405040606"><ele>7.0</ele><time>2026-04-09T12:36:45.999Z</time></trkpt><trkpt lat="44.171158973606964" lon="9.608946041618804"><ele>7.0</ele><time>2026-04-09T12:36:48.999Z</time></trkpt><trkpt lat="44.171269816554826" lon="9.608877112250873"><ele>6.999999999999999</ele><time>2026-04-09T12:36:49.999Z</time></trkpt><trkpt lat="44.17136485291081" lon="9.60881545453712"><ele>6.999999999999999</ele><time>2026-04-09T12:36:50.999Z</time></trkpt><trkpt lat="44.17143128212905" lon="9.608775819174536"><ele>7.0</ele><time>2026-04-09T12:36:51.999Z</time></trkpt><trkpt lat="44.17151961418067" lon="9.6087222933534"><ele>7.0</ele><time>2026-04-09T12:36:52.999Z</time></trkpt><trkpt lat="44.17161718653159" lon="9.608673966795305"><ele>7.199999999999999</ele><time>2026-04-09T12:36:53.999Z</time></trkpt><trkpt lat="44.171707945557735" lon="9.608604046123322"><ele>7.3999999999999995</ele><time>2026-04-09T12:36:54.999Z</time></trkpt><trkpt lat="44.171812949375614" lon="9.608586463199204"><ele>7.6000000000000005</ele><time>2026-04-09T12:36:55.999Z</time></trkpt><trkpt lat="44.171908841190806" lon="9.60859556046057"><ele>7.800000000000001</ele><time>2026-04-09T12:36:56.999Z</time></trkpt><trkpt lat="44.1720269465798" lon="9.608667716253475"><ele>8.0</ele><time>2026-04-09T12:36:57.999Z</time></trkpt><trkpt lat="44.17214195979749" lon="9.608778006548278"><ele>8.0</ele><time>2026-04-09T12:36:58.999Z</time></trkpt><trkpt lat="44.17223612697663" lon="9.608896223122988"><ele>8.0</ele><time>2026-04-09T12:36:59.999Z</time></trkpt><trkpt lat="44.17234910880989" lon="9.60904113264411"><ele>8.0</ele><time>2026-04-09T12:37:00.999Z</time></trkpt><trkpt lat="44.17240104575671" lon="9.609185981754234"><ele>8.0</ele><time>2026-04-09T12:37:01.999Z</time></trkpt><trkpt lat="44.17241384923168" lon="9.609330702004522"><ele>11.0</ele><time>2026-04-09T12:37:02.999Z</time></trkpt><trkpt lat="44.172443153569844" lon="9.609544887272977"><ele>14.0</ele><time>2026-04-09T12:37:03.999Z</time></trkpt><trkpt lat="44.172466406625894" lon="9.609743899468077"><ele>17.0</ele><time>2026-04-09T12:37:04.999Z</time></trkpt><trkpt lat="44.172455739654566" lon="9.609934284396681"><ele>20.0</ele><time>2026-04-09T12:37:05.999Z</time></trkpt><trkpt lat="44.17243873716852" lon="9.610129914184956"><ele>19.5</ele><time>2026-04-09T12:37:06.999Z</time></trkpt><trkpt lat="44.17242006376243" lon="9.610332698147596"><ele>19.0</ele><time>2026-04-09T12:37:07.999Z</time></trkpt><trkpt lat="44.17237724026895" lon="9.610499383404502"><ele>18.5</ele><time>2026-04-09T12:37:08.999Z</time></trkpt><trkpt lat="44.17231344533724" lon="9.61067644083611"><ele>18.0</ele><time>2026-04-09T12:37:09.999Z</time></trkpt><trkpt lat="44.17228576349607" lon="9.610834166812229"><ele>17.25</ele><time>2026-04-09T12:37:10.999Z</time></trkpt><trkpt lat="44.17227451295785" lon="9.610990744910204"><ele>16.5</ele><time>2026-04-09T12:37:11.999Z</time></trkpt><trkpt lat="44.17233276435591" lon="9.61114656185021"><ele>15.75</ele><time>2026-04-09T12:37:12.999Z</time></trkpt><trkpt lat="44.172414601114816" lon="9.611288757104726"><ele>15.0</ele><time>2026-04-09T12:37:13.999Z</time></trkpt><trkpt lat="44.17251950777561" lon="9.611401730251842"><ele>15.0</ele><time>2026-04-09T12:37:14.999Z</time></trkpt><trkpt lat="44.172595513558264" lon="9.611512572431257"><ele>15.0</ele><time>2026-04-09T12:37:15.999Z</time></trkpt><trkpt lat="44.172686508919156" lon="9.611609180186084"><ele>15.0</ele><time>2026-04-09T12:37:16.999Z</time></trkpt><trkpt lat="44.17275235465839" lon="9.61169798866282"><ele>15.0</ele><time>2026-04-09T12:37:17.999Z</time></trkpt><trkpt lat="44.172832415775275" lon="9.611792286089946"><ele>15.0</ele><time>2026-04-09T12:37:18.999Z</time></trkpt><trkpt lat="44.172911247477224" lon="9.611895378505688"><ele>15.0</ele><time>2026-04-09T12:37:19.998Z</time></trkpt><trkpt lat="44.172977666599444" lon="9.611984827713162"><ele>15.0</ele><time>2026-04-09T12:37:20.998Z</time></trkpt><trkpt lat="44.173039880123284" lon="9.612070017191144"><ele>15.0</ele><time>2026-04-09T12:37:21.998Z</time></trkpt><trkpt lat="44.173104792326306" lon="9.612140337173367"><ele>15.0</ele><time>2026-04-09T12:37:22.998Z</time></trkpt><trkpt lat="44.17317407346846" lon="9.61223505758387"><ele>15.0</ele><time>2026-04-09T12:37:23.998Z</time></trkpt><trkpt lat="44.173240948957186" lon="9.612342576754383"><ele>17.0</ele><time>2026-04-09T12:37:24.998Z</time></trkpt><trkpt lat="44.17329693461883" lon="9.612424965014087"><ele>19.0</ele><time>2026-04-09T12:37:25.998Z</time></trkpt><trkpt lat="44.173357725762244" lon="9.61245626517759"><ele>21.0</ele><time>2026-04-09T12:37:26.998Z</time></trkpt><trkpt lat="44.17344945882293" lon="9.61228110106256"><ele>23.0</ele><time>2026-04-09T12:37:28.998Z</time></trkpt><trkpt lat="44.1733833028763" lon="9.612152666658428"><ele>25.0</ele><time>2026-04-09T12:37:29.998Z</time></trkpt><trkpt lat="44.17330908087066" lon="9.612030631395182"><ele>27.25</ele><time>2026-04-09T12:37:30.998Z</time></trkpt><trkpt lat="44.173233375062644" lon="9.61189599620852"><ele>29.5</ele><time>2026-04-09T12:37:31.998Z</time></trkpt><trkpt lat="44.17316452901752" lon="9.611756599984162"><ele>31.75</ele><time>2026-04-09T12:37:32.998Z</time></trkpt><trkpt lat="44.173080527012054" lon="9.6116139773529"><ele>34.0</ele><time>2026-04-09T12:37:33.998Z</time></trkpt><trkpt lat="44.17300473377051" lon="9.611477929134548"><ele>30.0</ele><time>2026-04-09T12:37:34.998Z</time></trkpt><trkpt lat="44.17291043399412" lon="9.61131104064419"><ele>26.0</ele><time>2026-04-09T12:37:35.998Z</time></trkpt><trkpt lat="44.17284126027255" lon="9.611171157456154"><ele>22.0</ele><time>2026-04-09T12:37:36.998Z</time></trkpt><trkpt lat="44.172794059961184" lon="9.611010468350843"><ele>18.0</ele><time>2026-04-09T12:37:37.998Z</time></trkpt><trkpt lat="44.17274522653029" lon="9.610950829126022"><ele>18.0</ele><time>2026-04-09T12:37:38.998Z</time></trkpt><trkpt lat="44.17284053522805" lon="9.610932962335953"><ele>18.0</ele><time>2026-04-09T12:37:41.998Z</time></trkpt><trkpt lat="44.172894696401066" lon="9.611063545316233"><ele>18.0</ele><time>2026-04-09T12:37:43.998Z</time></trkpt><trkpt lat="44.17294038115635" lon="9.611135416803945"><ele>18.0</ele><time>2026-04-09T12:37:44.998Z</time></trkpt><trkpt lat="44.172998235166084" lon="9.6112143431629"><ele>18.0</ele><time>2026-04-09T12:37:45.998Z</time></trkpt><trkpt lat="44.17306114446999" lon="9.611306208443635"><ele>18.0</ele><time>2026-04-09T12:37:46.998Z</time></trkpt><trkpt lat="44.1731334600721" lon="9.611399172837077"><ele>21.2</ele><time>2026-04-09T12:37:47.998Z</time></trkpt><trkpt lat="44.17320687742946" lon="9.611501524768201"><ele>24.4</ele><time>2026-04-09T12:37:48.998Z</time></trkpt><trkpt lat="44.17327993475139" lon="9.611609038627515"><ele>27.599999999999998</ele><time>2026-04-09T12:37:49.998Z</time></trkpt><trkpt lat="44.17335401223001" lon="9.611707455530844"><ele>30.8</ele><time>2026-04-09T12:37:51Z</time></trkpt><trkpt lat="44.17343038571342" lon="9.611798953670856"><ele>34.0</ele><time>2026-04-09T12:37:52Z</time></trkpt><trkpt lat="44.1734902427225" lon="9.611877510870057"><ele>34.0</ele><time>2026-04-09T12:37:53Z</time></trkpt><trkpt lat="44.1735443800409" lon="9.611949038186719"><ele>34.0</ele><time>2026-04-09T12:37:54Z</time></trkpt><trkpt lat="44.17358940016027" lon="9.612016594093385"><ele>34.0</ele><time>2026-04-09T12:37:55Z</time></trkpt><trkpt lat="44.173666244879094" lon="9.612113721371285"><ele>34.0</ele><time>2026-04-09T12:37:57Z</time></trkpt><trkpt lat="44.17375662806708" lon="9.612090176150677"><ele>34.0</ele><time>2026-04-09T12:37:59Z</time></trkpt><trkpt lat="44.17378999873352" lon="9.612008485773096"><ele>34.0</ele><time>2026-04-09T12:38:00Z</time></trkpt><trkpt lat="44.173721917889814" lon="9.611865506222665"><ele>34.0</ele><time>2026-04-09T12:38:01Z</time></trkpt><trkpt lat="44.17364715451965" lon="9.61177424313081"><ele>34.0</ele><time>2026-04-09T12:38:02Z</time></trkpt><trkpt lat="44.17356514549462" lon="9.611662334989509"><ele>34.0</ele><time>2026-04-09T12:38:03Z</time></trkpt><trkpt lat="44.17349192949678" lon="9.611539217099423"><ele>34.0</ele><time>2026-04-09T12:38:04Z</time></trkpt><trkpt lat="44.17341677200522" lon="9.611396079635643"><ele>34.0</ele><time>2026-04-09T12:38:05Z</time></trkpt><trkpt lat="44.17333115442161" lon="9.611248590330003"><ele>34.0</ele><time>2026-04-09T12:38:06Z</time></trkpt><trkpt lat="44.17324995296633" lon="9.611097470189433"><ele>34.0</ele><time>2026-04-09T12:38:07Z</time></trkpt><trkpt lat="44.17321135504449" lon="9.61093372754777"><ele>34.0</ele><time>2026-04-09T12:38:08Z</time></trkpt><trkpt lat="44.17316729963698" lon="9.610731492535272"><ele>37.0</ele><time>2026-04-09T12:38:09Z</time></trkpt><trkpt lat="44.173228964179984" lon="9.610647676976045"><ele>40.0</ele><time>2026-04-09T12:38:10Z</time></trkpt><trkpt lat="44.17325596129178" lon="9.610483384214753"><ele>43.0</ele><time>2026-04-09T12:38:11Z</time></trkpt><trkpt lat="44.1732594220891" lon="9.610327554730064"><ele>46.0</ele><time>2026-04-09T12:38:12Z</time></trkpt><trkpt lat="44.17328116620632" lon="9.610215323224384"><ele>49.0</ele><time>2026-04-09T12:38:13Z</time></trkpt><trkpt lat="44.173302091382425" lon="9.61009332207183"><ele>50.5</ele><time>2026-04-09T12:38:14Z</time></trkpt><trkpt lat="44.17331699237534" lon="9.609958257643049"><ele>52.0</ele><time>2026-04-09T12:38:15Z</time></trkpt><trkpt lat="44.17334664885517" lon="9.609804966289634"><ele>53.5</ele><time>2026-04-09T12:38:16Z</time></trkpt><trkpt lat="44.17334068215869" lon="9.609629197137053"><ele>55.0</ele><time>2026-04-09T12:38:17Z</time></trkpt><trkpt lat="44.17328033204216" lon="9.609440875629915"><ele>58.0</ele><time>2026-04-09T12:38:18Z</time></trkpt><trkpt lat="44.1732129242942" lon="9.6092716064296"><ele>61.0</ele><time>2026-04-09T12:38:19Z</time></trkpt><trkpt lat="44.1731561849384" lon="9.609093713237552"><ele>64.0</ele><time>2026-04-09T12:38:20Z</time></trkpt><trkpt lat="44.17309460937043" lon="9.608907530621916"><ele>67.0</ele><time>2026-04-09T12:38:21Z</time></trkpt><trkpt lat="44.17304261333151" lon="9.608724447707914"><ele>57.25</ele><time>2026-04-09T12:38:22Z</time></trkpt><trkpt lat="44.1729833524984" lon="9.608535485388808"><ele>47.5</ele><time>2026-04-09T12:38:23Z</time></trkpt><trkpt lat="44.172925405933654" lon="9.608356625789023"><ele>37.75</ele><time>2026-04-09T12:38:24Z</time></trkpt><trkpt lat="44.17287681044663" lon="9.608199195158493"><ele>28.0</ele><time>2026-04-09T12:38:25Z</time></trkpt><trkpt lat="44.172859397439545" lon="9.608032212846732"><ele>28.0</ele><time>2026-04-09T12:38:26Z</time></trkpt><trkpt lat="44.172849579168314" lon="9.607847202761308"><ele>28.0</ele><time>2026-04-09T12:38:27Z</time></trkpt><trkpt lat="44.17285372842076" lon="9.60765788305356"><ele>28.0</ele><time>2026-04-09T12:38:28Z</time></trkpt><trkpt lat="44.17285323482314" lon="9.60746395627764"><ele>28.0</ele><time>2026-04-09T12:38:29Z</time></trkpt><trkpt lat="44.17285096707531" lon="9.607265372510087"><ele>28.5</ele><time>2026-04-09T12:38:30Z</time></trkpt><trkpt lat="44.17283965759617" lon="9.60706830998213"><ele>29.0</ele><time>2026-04-09T12:38:30.999Z</time></trkpt><trkpt lat="44.172862651952315" lon="9.606877230606086"><ele>29.5</ele><time>2026-04-09T12:38:31.999Z</time></trkpt><trkpt lat="44.17291069653373" lon="9.606703921040816"><ele>30.0</ele><time>2026-04-09T12:38:32.999Z</time></trkpt><trkpt lat="44.17298162703311" lon="9.606536286199484"><ele>30.0</ele><time>2026-04-09T12:38:33.999Z</time></trkpt><trkpt lat="44.173057548694366" lon="9.606354230606405"><ele>30.0</ele><time>2026-04-09T12:38:34.999Z</time></trkpt><trkpt lat="44.17311664675696" lon="9.60616359458044"><ele>30.0</ele><time>2026-04-09T12:38:35.999Z</time></trkpt><trkpt lat="44.17318849616615" lon="9.605983891078433"><ele>30.0</ele><time>2026-04-09T12:38:36.999Z</time></trkpt><trkpt lat="44.173263601357384" lon="9.605824058871818"><ele>38.0</ele><time>2026-04-09T12:38:37.999Z</time></trkpt><trkpt lat="44.17335145365721" lon="9.60571489933718"><ele>46.0</ele><time>2026-04-09T12:38:38.999Z</time></trkpt><trkpt lat="44.17346606296224" lon="9.605646995216999"><ele>54.0</ele><time>2026-04-09T12:38:39.999Z</time></trkpt><trkpt lat="44.17357574433786" lon="9.605616106459108"><ele>62.0</ele><time>2026-04-09T12:38:40.999Z</time></trkpt><trkpt lat="44.173691842176794" lon="9.605565233529099"><ele>62.0</ele><time>2026-04-09T12:38:41.999Z</time></trkpt><trkpt lat="44.173819355739475" lon="9.605557787511021"><ele>62.0</ele><time>2026-04-09T12:38:42.999Z</time></trkpt><trkpt lat="44.17395206764313" lon="9.605558056911379"><ele>62.0</ele><time>2026-04-09T12:38:43.999Z</time></trkpt><trkpt lat="44.17408963432504" lon="9.605551685838098"><ele>62.0</ele><time>2026-04-09T12:38:44.999Z</time></trkpt><trkpt lat="44.17422873798481" lon="9.605560661376112"><ele>67.25</ele><time>2026-04-09T12:38:45.999Z</time></trkpt><trkpt lat="44.174368682652485" lon="9.605559033147197"><ele>72.5</ele><time>2026-04-09T12:38:46.999Z</time></trkpt><trkpt lat="44.17450632755995" lon="9.605523125625766"><ele>77.75</ele><time>2026-04-09T12:38:47.999Z</time></trkpt><trkpt lat="44.17464141564725" lon="9.605478367853538"><ele>83.0</ele><time>2026-04-09T12:38:48.999Z</time></trkpt><trkpt lat="44.17477689890607" lon="9.60541969212558"><ele>81.25</ele><time>2026-04-09T12:38:49.999Z</time></trkpt><trkpt lat="44.17491099735837" lon="9.605347391309415"><ele>79.5</ele><time>2026-04-09T12:38:50.999Z</time></trkpt><trkpt lat="44.17503639296025" lon="9.605257003162698"><ele>77.75</ele><time>2026-04-09T12:38:51.999Z</time></trkpt><trkpt lat="44.17516355221265" lon="9.605161741656099"><ele>76.0</ele><time>2026-04-09T12:38:52.999Z</time></trkpt><trkpt lat="44.17529535966186" lon="9.605094565894815"><ele>76.0</ele><time>2026-04-09T12:38:53.999Z</time></trkpt><trkpt lat="44.175436224828346" lon="9.60503016259057"><ele>76.0</ele><time>2026-04-09T12:38:54.999Z</time></trkpt><trkpt lat="44.17557954320077" lon="9.604974139606622"><ele>76.0</ele><time>2026-04-09T12:38:55.999Z</time></trkpt><trkpt lat="44.17572137349275" lon="9.604927748432615"><ele>76.0</ele><time>2026-04-09T12:38:56.999Z</time></trkpt><trkpt lat="44.17586312979769" lon="9.60489146855075"><ele>79.5</ele><time>2026-04-09T12:38:57.999Z</time></trkpt><trkpt lat="44.17600675663006" lon="9.604863472262918"><ele>83.0</ele><time>2026-04-09T12:38:58.999Z</time></trkpt><trkpt lat="44.176155746198205" lon="9.604830873552281"><ele>86.5</ele><time>2026-04-09T12:38:59.999Z</time></trkpt><trkpt lat="44.17630326781621" lon="9.604803838389962"><ele>90.0</ele><time>2026-04-09T12:39:00.999Z</time></trkpt><trkpt lat="44.17645417621583" lon="9.604793050066899"><ele>93.66666666666666</ele><time>2026-04-09T12:39:01.999Z</time></trkpt><trkpt lat="44.17660585582336" lon="9.604810593772012"><ele>97.33333333333333</ele><time>2026-04-09T12:39:02.999Z</time></trkpt><trkpt lat="44.17675566503278" lon="9.60484216770854"><ele>101.0</ele><time>2026-04-09T12:39:03.999Z</time></trkpt><trkpt lat="44.176913628770755" lon="9.604896152520551"><ele>101.0</ele><time>2026-04-09T12:39:04.999Z</time></trkpt><trkpt lat="44.177054095951924" lon="9.604951945794399"><ele>101.0</ele><time>2026-04-09T12:39:05.999Z</time></trkpt><trkpt lat="44.17718805050948" lon="9.605047625796423"><ele>101.0</ele><time>2026-04-09T12:39:06.999Z</time></trkpt><trkpt lat="44.17731183746736" lon="9.605159983044565"><ele>101.0</ele><time>2026-04-09T12:39:07.999Z</time></trkpt><trkpt lat="44.17743946054804" lon="9.605278702668038"><ele>110.33333333333333</ele><time>2026-04-09T12:39:08.999Z</time></trkpt><trkpt lat="44.177575034507406" lon="9.605385415115675"><ele>119.66666666666666</ele><time>2026-04-09T12:39:09.999Z</time></trkpt><trkpt lat="44.17770420733761" lon="9.60550065958611"><ele>129.0</ele><time>2026-04-09T12:39:10.999Z</time></trkpt><trkpt lat="44.1778330587521" lon="9.605585055084248"><ele>129.0</ele><time>2026-04-09T12:39:11.999Z</time></trkpt><trkpt lat="44.17797932094895" lon="9.605652413552459"><ele>129.0</ele><time>2026-04-09T12:39:12.999Z</time></trkpt><trkpt lat="44.17812845945905" lon="9.605700567342904"><ele>129.0</ele><time>2026-04-09T12:39:13.999Z</time></trkpt><trkpt lat="44.178265524787825" lon="9.605731161219165"><ele>129.0</ele><time>2026-04-09T12:39:14.999Z</time></trkpt><trkpt lat="44.178391296202456" lon="9.605721528155362"><ele>128.25</ele><time>2026-04-09T12:39:15.999Z</time></trkpt><trkpt lat="44.178503394643066" lon="9.605653242421875"><ele>127.5</ele><time>2026-04-09T12:39:16.999Z</time></trkpt><trkpt lat="44.178585238771824" lon="9.605576399392753"><ele>126.75</ele><time>2026-04-09T12:39:17.999Z</time></trkpt><trkpt lat="44.17862568016522" lon="9.605437267910705"><ele>126.0</ele><time>2026-04-09T12:39:18.999Z</time></trkpt><trkpt lat="44.178539055731704" lon="9.605264189637413"><ele>124.8</ele><time>2026-04-09T12:39:19.999Z</time></trkpt><trkpt lat="44.17844434022907" lon="9.605190920760528"><ele>123.6</ele><time>2026-04-09T12:39:20.999Z</time></trkpt><trkpt lat="44.178344436826286" lon="9.605145646824246"><ele>122.4</ele><time>2026-04-09T12:39:21.999Z</time></trkpt><trkpt lat="44.17825646593268" lon="9.605064810393552"><ele>121.2</ele><time>2026-04-09T12:39:22.999Z</time></trkpt><trkpt lat="44.178198874093994" lon="9.604947540553734"><ele>120.0</ele><time>2026-04-09T12:39:23.999Z</time></trkpt><trkpt lat="44.178207409043175" lon="9.60477300821764"><ele>120.0</ele><time>2026-04-09T12:39:24.999Z</time></trkpt><trkpt lat="44.178186801726056" lon="9.604607238938422"><ele>120.0</ele><time>2026-04-09T12:39:25.999Z</time></trkpt><trkpt lat="44.178188138832894" lon="9.604425925318797"><ele>120.0</ele><time>2026-04-09T12:39:26.999Z</time></trkpt><trkpt lat="44.17816852209991" lon="9.604254711855232"><ele>120.0</ele><time>2026-04-09T12:39:27.999Z</time></trkpt><trkpt lat="44.178158073503155" lon="9.6040716063537"><ele>122.75</ele><time>2026-04-09T12:39:28.999Z</time></trkpt><trkpt lat="44.17815432988053" lon="9.603875836515895"><ele>125.5</ele><time>2026-04-09T12:39:29.999Z</time></trkpt><trkpt lat="44.17815092820449" lon="9.603689664315803"><ele>128.25</ele><time>2026-04-09T12:39:30.999Z</time></trkpt><trkpt lat="44.17818110460053" lon="9.603506497003305"><ele>131.0</ele><time>2026-04-09T12:39:31.999Z</time></trkpt><trkpt lat="44.17822748686396" lon="9.603311813460065"><ele>131.0</ele><time>2026-04-09T12:39:32.999Z</time></trkpt><trkpt lat="44.17827490342503" lon="9.603122640297542"><ele>131.0</ele><time>2026-04-09T12:39:33.999Z</time></trkpt><trkpt lat="44.17833070141283" lon="9.60293521485233"><ele>131.0</ele><time>2026-04-09T12:39:34.998Z</time></trkpt><trkpt lat="44.178349973820616" lon="9.602727929965347"><ele>131.0</ele><time>2026-04-09T12:39:35.998Z</time></trkpt><trkpt lat="44.178357228755345" lon="9.602514291673447"><ele>131.75</ele><time>2026-04-09T12:39:36.998Z</time></trkpt><trkpt lat="44.17838773723117" lon="9.60232951190702"><ele>132.5</ele><time>2026-04-09T12:39:37.998Z</time></trkpt><trkpt lat="44.17844665416658" lon="9.602168377961041"><ele>133.25</ele><time>2026-04-09T12:39:38.998Z</time></trkpt><trkpt lat="44.17846252257702" lon="9.601999051699421"><ele>134.0</ele><time>2026-04-09T12:39:39.998Z</time></trkpt><trkpt lat="44.17841154931565" lon="9.601825354806072"><ele>134.0</ele><time>2026-04-09T12:39:40.998Z</time></trkpt><trkpt lat="44.17835768976804" lon="9.601687334230803"><ele>134.0</ele><time>2026-04-09T12:39:41.998Z</time></trkpt><trkpt lat="44.17836096058815" lon="9.601561180830922"><ele>134.0</ele><time>2026-04-09T12:39:42.998Z</time></trkpt><trkpt lat="44.178449222019395" lon="9.601460357769767"><ele>134.0</ele><time>2026-04-09T12:39:43.998Z</time></trkpt><trkpt lat="44.1785081402591" lon="9.601339619985202"><ele>134.0</ele><time>2026-04-09T12:39:44.998Z</time></trkpt><trkpt lat="44.17853059741683" lon="9.60119030496705"><ele>134.0</ele><time>2026-04-09T12:39:45.998Z</time></trkpt><trkpt lat="44.17848763208106" lon="9.601032928358649"><ele>134.0</ele><time>2026-04-09T12:39:46.998Z</time></trkpt><trkpt lat="44.17841858308489" lon="9.600892030504138"><ele>134.0</ele><time>2026-04-09T12:39:47.998Z</time></trkpt><trkpt lat="44.17836855466083" lon="9.600748610488337"><ele>134.0</ele><time>2026-04-09T12:39:48.998Z</time></trkpt><trkpt lat="44.17841037127938" lon="9.600593692592877"><ele>134.0</ele><time>2026-04-09T12:39:49.998Z</time></trkpt><trkpt lat="44.178452979524955" lon="9.600442812185271"><ele>134.0</ele><time>2026-04-09T12:39:50.998Z</time></trkpt><trkpt lat="44.178505191429046" lon="9.60027657467929"><ele>134.0</ele><time>2026-04-09T12:39:51.998Z</time></trkpt><trkpt lat="44.17857717498365" lon="9.60014167144419"><ele>134.0</ele><time>2026-04-09T12:39:52.998Z</time></trkpt><trkpt lat="44.17866319636469" lon="9.600035188054948"><ele>133.75</ele><time>2026-04-09T12:39:53.998Z</time></trkpt><trkpt lat="44.17878331271574" lon="9.599947166524176"><ele>133.5</ele><time>2026-04-09T12:39:54.998Z</time></trkpt><trkpt lat="44.17888667959203" lon="9.599847134177251"><ele>133.25</ele><time>2026-04-09T12:39:55.998Z</time></trkpt><trkpt lat="44.178978483240755" lon="9.59973983704299"><ele>133.0</ele><time>2026-04-09T12:39:57Z</time></trkpt><trkpt lat="44.17907023501457" lon="9.599627644938927"><ele>136.0</ele><time>2026-04-09T12:39:58Z</time></trkpt><trkpt lat="44.17912571316529" lon="9.59953196683722"><ele>139.0</ele><time>2026-04-09T12:39:59Z</time></trkpt><trkpt lat="44.17914146649861" lon="9.599408236005655"><ele>142.0</ele><time>2026-04-09T12:40:00Z</time></trkpt><trkpt lat="44.17909030531037" lon="9.599248887843638"><ele>145.0</ele><time>2026-04-09T12:40:01Z</time></trkpt><trkpt lat="44.17904806793226" lon="9.599101023373443"><ele>148.0</ele><time>2026-04-09T12:40:02Z</time></trkpt><trkpt lat="44.17901185673273" lon="9.59894929629972"><ele>148.0</ele><time>2026-04-09T12:40:03Z</time></trkpt><trkpt lat="44.178931511926415" lon="9.598818568332378"><ele>148.0</ele><time>2026-04-09T12:40:04Z</time></trkpt><trkpt lat="44.178807927215416" lon="9.598729407945127"><ele>148.0</ele><time>2026-04-09T12:40:05Z</time></trkpt><trkpt lat="44.17868202649259" lon="9.598676066654804"><ele>148.0</ele><time>2026-04-09T12:40:06Z</time></trkpt><trkpt lat="44.17853737324438" lon="9.598645665453004"><ele>148.0</ele><time>2026-04-09T12:40:07Z</time></trkpt><trkpt lat="44.17839278656922" lon="9.598699970016222"><ele>148.0</ele><time>2026-04-09T12:40:08Z</time></trkpt><trkpt lat="44.17825166045494" lon="9.598765315180728"><ele>148.0</ele><time>2026-04-09T12:40:09Z</time></trkpt><trkpt lat="44.17811138368785" lon="9.59880955403963"><ele>148.0</ele><time>2026-04-09T12:40:10Z</time></trkpt><trkpt lat="44.17796568887074" lon="9.598827874715202"><ele>148.5</ele><time>2026-04-09T12:40:11Z</time></trkpt><trkpt lat="44.177823296478216" lon="9.598858972184244"><ele>149.0</ele><time>2026-04-09T12:40:12Z</time></trkpt><trkpt lat="44.17766506879175" lon="9.598875598853885"><ele>149.5</ele><time>2026-04-09T12:40:13Z</time></trkpt><trkpt lat="44.177519998425005" lon="9.598866339473224"><ele>150.0</ele><time>2026-04-09T12:40:14Z</time></trkpt><trkpt lat="44.17740842683529" lon="9.598803523859079"><ele>148.6</ele><time>2026-04-09T12:40:15Z</time></trkpt><trkpt lat="44.17730115594432" lon="9.598673317391878"><ele>147.2</ele><time>2026-04-09T12:40:16Z</time></trkpt><trkpt lat="44.17721565213052" lon="9.598532369887678"><ele>145.8</ele><time>2026-04-09T12:40:17Z</time></trkpt><trkpt lat="44.17719820781884" lon="9.598418724729632"><ele>144.4</ele><time>2026-04-09T12:40:18Z</time></trkpt><trkpt lat="44.17724604132855" lon="9.598337211341876"><ele>143.0</ele><time>2026-04-09T12:40:19Z</time></trkpt><trkpt lat="44.17731907799124" lon="9.59827442550019"><ele>147.8</ele><time>2026-04-09T12:40:20Z</time></trkpt><trkpt lat="44.177416774744046" lon="9.598211336998128"><ele>152.60000000000002</ele><time>2026-04-09T12:40:21Z</time></trkpt><trkpt lat="44.1775159865561" lon="9.598140486807248"><ele>157.39999999999998</ele><time>2026-04-09T12:40:22Z</time></trkpt><trkpt lat="44.1776136824109" lon="9.598070719451595"><ele>162.2</ele><time>2026-04-09T12:40:23Z</time></trkpt><trkpt lat="44.17772533674735" lon="9.598007175809828"><ele>167.0</ele><time>2026-04-09T12:40:24Z</time></trkpt><trkpt lat="44.177849027594746" lon="9.597946102563014"><ele>167.0</ele><time>2026-04-09T12:40:25Z</time></trkpt><trkpt lat="44.17797862934284" lon="9.597884183875063"><ele>167.0</ele><time>2026-04-09T12:40:26Z</time></trkpt><trkpt lat="44.17810881840989" lon="9.59786922013307"><ele>167.0</ele><time>2026-04-09T12:40:27Z</time></trkpt><trkpt lat="44.178240169938775" lon="9.597867755582337"><ele>167.0</ele><time>2026-04-09T12:40:28Z</time></trkpt><trkpt lat="44.17839051614821" lon="9.597856186297781"><ele>169.66666666666666</ele><time>2026-04-09T12:40:29Z</time></trkpt><trkpt lat="44.17852985150063" lon="9.597778224107028"><ele>172.33333333333334</ele><time>2026-04-09T12:40:30Z</time></trkpt><trkpt lat="44.17865622496052" lon="9.597656507947463"><ele>175.0</ele><time>2026-04-09T12:40:31Z</time></trkpt><trkpt lat="44.178761350864185" lon="9.597476784511356"><ele>175.0</ele><time>2026-04-09T12:40:32Z</time></trkpt><trkpt lat="44.1788293934238" lon="9.597268353251952"><ele>175.0</ele><time>2026-04-09T12:40:33Z</time></trkpt><trkpt lat="44.178862782210295" lon="9.597040762193293"><ele>175.0</ele><time>2026-04-09T12:40:34Z</time></trkpt><trkpt lat="44.17891828348602" lon="9.596870027009604"><ele>174.5</ele><time>2026-04-09T12:40:35Z</time></trkpt><trkpt lat="44.17900375752456" lon="9.596768654181089"><ele>174.0</ele><time>2026-04-09T12:40:36Z</time></trkpt><trkpt lat="44.1791023544516" lon="9.596637577262868"><ele>173.5</ele><time>2026-04-09T12:40:36.999Z</time></trkpt><trkpt lat="44.179223019449104" lon="9.59654075896446"><ele>173.0</ele><time>2026-04-09T12:40:37.999Z</time></trkpt><trkpt lat="44.179337999028974" lon="9.596436872633877"><ele>176.0</ele><time>2026-04-09T12:40:38.999Z</time></trkpt><trkpt lat="44.1794665664291" lon="9.59639910364793"><ele>179.0</ele><time>2026-04-09T12:40:39.999Z</time></trkpt><trkpt lat="44.17958222542066" lon="9.596343977730024"><ele>182.0</ele><time>2026-04-09T12:40:40.999Z</time></trkpt><trkpt lat="44.17968167621198" lon="9.596229776007371"><ele>185.0</ele><time>2026-04-09T12:40:41.999Z</time></trkpt><trkpt lat="44.179730537697836" lon="9.596047420340224"><ele>185.0</ele><time>2026-04-09T12:40:42.999Z</time></trkpt><trkpt lat="44.17973307193406" lon="9.595850958384368"><ele>185.0</ele><time>2026-04-09T12:40:43.999Z</time></trkpt><trkpt lat="44.17969234850528" lon="9.595656127297906"><ele>185.0</ele><time>2026-04-09T12:40:44.999Z</time></trkpt><trkpt lat="44.17968558069" lon="9.5954581788816"><ele>185.0</ele><time>2026-04-09T12:40:45.999Z</time></trkpt><trkpt lat="44.1796817001389" lon="9.595254713997157"><ele>185.0</ele><time>2026-04-09T12:40:46.999Z</time></trkpt><trkpt lat="44.179693138389965" lon="9.595066275381864"><ele>185.0</ele><time>2026-04-09T12:40:47.999Z</time></trkpt><trkpt lat="44.17971889715541" lon="9.594869403122663"><ele>185.0</ele><time>2026-04-09T12:40:48.999Z</time></trkpt><trkpt lat="44.17971488380486" lon="9.594710744882507"><ele>185.0</ele><time>2026-04-09T12:40:49.999Z</time></trkpt><trkpt lat="44.17974460850423" lon="9.594603674367205"><ele>185.0</ele><time>2026-04-09T12:40:50.999Z</time></trkpt><trkpt lat="44.1798127399137" lon="9.594515940850071"><ele>185.0</ele><time>2026-04-09T12:40:51.999Z</time></trkpt><trkpt lat="44.17991767428526" lon="9.594475225210243"><ele>185.0</ele><time>2026-04-09T12:40:52.999Z</time></trkpt><trkpt lat="44.180017716792726" lon="9.594390173851027"><ele>185.0</ele><time>2026-04-09T12:40:53.999Z</time></trkpt><trkpt lat="44.18012471045419" lon="9.594321275652778"><ele>185.0</ele><time>2026-04-09T12:40:54.999Z</time></trkpt><trkpt lat="44.180222075060584" lon="9.594234161072968"><ele>190.25</ele><time>2026-04-09T12:40:55.999Z</time></trkpt><trkpt lat="44.18032050789771" lon="9.594132660259067"><ele>195.5</ele><time>2026-04-09T12:40:56.999Z</time></trkpt><trkpt lat="44.180416899427854" lon="9.594033341268748"><ele>200.75</ele><time>2026-04-09T12:40:57.999Z</time></trkpt><trkpt lat="44.1805196869439" lon="9.593914652769683"><ele>206.0</ele><time>2026-04-09T12:40:58.999Z</time></trkpt><trkpt lat="44.18061945042145" lon="9.593784127556509"><ele>209.25</ele><time>2026-04-09T12:40:59.999Z</time></trkpt><trkpt lat="44.1806930744996" lon="9.593607756678397"><ele>212.5</ele><time>2026-04-09T12:41:00.999Z</time></trkpt><trkpt lat="44.18077266867866" lon="9.593447690811173"><ele>215.75</ele><time>2026-04-09T12:41:01.999Z</time></trkpt><trkpt lat="44.18086137377443" lon="9.593301024001612"><ele>219.0</ele><time>2026-04-09T12:41:02.999Z</time></trkpt><trkpt lat="44.18095261123169" lon="9.59313774566608"><ele>219.0</ele><time>2026-04-09T12:41:03.999Z</time></trkpt><trkpt lat="44.18103868306742" lon="9.592975685340821"><ele>219.0</ele><time>2026-04-09T12:41:04.999Z</time></trkpt><trkpt lat="44.181119127012074" lon="9.592818075368308"><ele>219.0</ele><time>2026-04-09T12:41:05.999Z</time></trkpt><trkpt lat="44.18119138219411" lon="9.592702711025304"><ele>219.0</ele><time>2026-04-09T12:41:06.999Z</time></trkpt><trkpt lat="44.181290247477726" lon="9.59265447620013"><ele>219.5</ele><time>2026-04-09T12:41:07.999Z</time></trkpt><trkpt lat="44.181407288137564" lon="9.592687734572632"><ele>220.0</ele><time>2026-04-09T12:41:08.999Z</time></trkpt><trkpt lat="44.181539386512064" lon="9.592678004879117"><ele>220.5</ele><time>2026-04-09T12:41:09.999Z</time></trkpt><trkpt lat="44.18165412897632" lon="9.592716492977427"><ele>221.0</ele><time>2026-04-09T12:41:10.999Z</time></trkpt><trkpt lat="44.1817729995273" lon="9.592764402541555"><ele>221.0</ele><time>2026-04-09T12:41:11.999Z</time></trkpt><trkpt lat="44.181880454947624" lon="9.592790671689254"><ele>221.00000000000003</ele><time>2026-04-09T12:41:12.999Z</time></trkpt><trkpt lat="44.18196272739488" lon="9.592737094878899"><ele>221.00000000000003</ele><time>2026-04-09T12:41:13.999Z</time></trkpt><trkpt lat="44.18201011834722" lon="9.592629481521444"><ele>221.0</ele><time>2026-04-09T12:41:14.999Z</time></trkpt><trkpt lat="44.18204650457083" lon="9.592486917686545"><ele>221.0</ele><time>2026-04-09T12:41:15.999Z</time></trkpt><trkpt lat="44.18208959193071" lon="9.592348750581099"><ele>221.0</ele><time>2026-04-09T12:41:16.999Z</time></trkpt><trkpt lat="44.182138985443885" lon="9.59221018549752"><ele>221.0</ele><time>2026-04-09T12:41:17.999Z</time></trkpt><trkpt lat="44.18220256798604" lon="9.59207241183477"><ele>221.0</ele><time>2026-04-09T12:41:18.999Z</time></trkpt><trkpt lat="44.182303034279435" lon="9.591972894234246"><ele>221.0</ele><time>2026-04-09T12:41:19.999Z</time></trkpt><trkpt lat="44.18242001677789" lon="9.591931056072111"><ele>221.5</ele><time>2026-04-09T12:41:20.999Z</time></trkpt><trkpt lat="44.182529065441784" lon="9.591902741646612"><ele>222.0</ele><time>2026-04-09T12:41:21.999Z</time></trkpt><trkpt lat="44.18266796653152" lon="9.591881339446081"><ele>222.5</ele><time>2026-04-09T12:41:22.999Z</time></trkpt><trkpt lat="44.18279148592146" lon="9.591856345468111"><ele>223.0</ele><time>2026-04-09T12:41:23.999Z</time></trkpt><trkpt lat="44.18292291690874" lon="9.591813640538215"><ele>223.0</ele><time>2026-04-09T12:41:24.999Z</time></trkpt><trkpt lat="44.183032137187205" lon="9.591696311893854"><ele>223.0</ele><time>2026-04-09T12:41:25.999Z</time></trkpt><trkpt lat="44.183111324435075" lon="9.591538214885103"><ele>223.0</ele><time>2026-04-09T12:41:26.999Z</time></trkpt><trkpt lat="44.18317867334584" lon="9.591350876294376"><ele>223.0</ele><time>2026-04-09T12:41:27.999Z</time></trkpt><trkpt lat="44.18323960110311" lon="9.591167092464516"><ele>225.0</ele><time>2026-04-09T12:41:28.999Z</time></trkpt><trkpt lat="44.18330779614903" lon="9.59098429371482"><ele>227.0</ele><time>2026-04-09T12:41:29.999Z</time></trkpt><trkpt lat="44.183368742599164" lon="9.590811578966113"><ele>229.0</ele><time>2026-04-09T12:41:30.999Z</time></trkpt><trkpt lat="44.18344128398857" lon="9.590686056701571"><ele>231.0</ele><time>2026-04-09T12:41:31.999Z</time></trkpt><trkpt lat="44.183547099664594" lon="9.590672548932982"><ele>231.0</ele><time>2026-04-09T12:41:32.999Z</time></trkpt><trkpt lat="44.18366465664149" lon="9.590690625627758"><ele>231.0</ele><time>2026-04-09T12:41:33.999Z</time></trkpt><trkpt lat="44.183778905314206" lon="9.590779219871761"><ele>231.0</ele><time>2026-04-09T12:41:34.999Z</time></trkpt><trkpt lat="44.18387004817123" lon="9.59089117903909"><ele>231.0</ele><time>2026-04-09T12:41:35.999Z</time></trkpt><trkpt lat="44.18395391649248" lon="9.591082562455789"><ele>239.0</ele><time>2026-04-09T12:41:36.999Z</time></trkpt><trkpt lat="44.18404310245629" lon="9.591245426214137"><ele>247.0</ele><time>2026-04-09T12:41:37.999Z</time></trkpt><trkpt lat="44.18411500443702" lon="9.591423662706157"><ele>255.0</ele><time>2026-04-09T12:41:38.999Z</time></trkpt><trkpt lat="44.18416177995876" lon="9.591613907466806"><ele>263.0</ele><time>2026-04-09T12:41:39.999Z</time></trkpt><trkpt lat="44.184194784325726" lon="9.591816690518058"><ele>270.6666666666667</ele><time>2026-04-09T12:41:40.999Z</time></trkpt><trkpt lat="44.18426296465449" lon="9.592024026589492"><ele>278.3333333333333</ele><time>2026-04-09T12:41:41.998Z</time></trkpt><trkpt lat="44.18438107336476" lon="9.59217497365649"><ele>286.0</ele><time>2026-04-09T12:41:42.998Z</time></trkpt><trkpt lat="44.18447788276796" lon="9.592315968463364"><ele>286.0</ele><time>2026-04-09T12:41:43.998Z</time></trkpt><trkpt lat="44.18458508873705" lon="9.592490088124753"><ele>286.0</ele><time>2026-04-09T12:41:44.998Z</time></trkpt><trkpt lat="44.184698526041736" lon="9.592661773877232"><ele>286.0</ele><time>2026-04-09T12:41:45.998Z</time></trkpt><trkpt lat="44.184817017137654" lon="9.59285492052399"><ele>283.5</ele><time>2026-04-09T12:41:46.998Z</time></trkpt><trkpt lat="44.18492693879793" lon="9.593046768034391"><ele>281.0</ele><time>2026-04-09T12:41:47.998Z</time></trkpt><trkpt lat="44.185019950486215" lon="9.593227624209836"><ele>278.5</ele><time>2026-04-09T12:41:48.998Z</time></trkpt><trkpt lat="44.18509924923057" lon="9.59332976133352"><ele>276.0</ele><time>2026-04-09T12:41:49.998Z</time></trkpt><trkpt lat="44.185199969089986" lon="9.593348259503895"><ele>276.0</ele><time>2026-04-09T12:41:50.998Z</time></trkpt><trkpt lat="44.185308904581454" lon="9.593300536005277"><ele>276.0</ele><time>2026-04-09T12:41:51.998Z</time></trkpt><trkpt lat="44.18541799777998" lon="9.59320462356928"><ele>276.0</ele><time>2026-04-09T12:41:52.998Z</time></trkpt><trkpt lat="44.18551972977441" lon="9.59316441814192"><ele>276.0</ele><time>2026-04-09T12:41:53.998Z</time></trkpt><trkpt lat="44.18560053300276" lon="9.593234261886884"><ele>276.0</ele><time>2026-04-09T12:41:54.998Z</time></trkpt><trkpt lat="44.185609262049034" lon="9.593432422018447"><ele>273.6</ele><time>2026-04-09T12:41:55.998Z</time></trkpt><trkpt lat="44.185684470097485" lon="9.593504046301174"><ele>271.20000000000005</ele><time>2026-04-09T12:41:56.998Z</time></trkpt><trkpt lat="44.18575977854609" lon="9.593594587562896"><ele>268.79999999999995</ele><time>2026-04-09T12:41:57.998Z</time></trkpt><trkpt lat="44.1858525542563" lon="9.593682897835677"><ele>266.4</ele><time>2026-04-09T12:41:58.998Z</time></trkpt><trkpt lat="44.18593193806373" lon="9.593764770288015"><ele>264.0</ele><time>2026-04-09T12:41:59.998Z</time></trkpt><trkpt lat="44.1860041556968" lon="9.59384425929025"><ele>264.0</ele><time>2026-04-09T12:42:00.998Z</time></trkpt><trkpt lat="44.18608273245247" lon="9.593895102955631"><ele>264.0</ele><time>2026-04-09T12:42:01.998Z</time></trkpt><trkpt lat="44.186189429106875" lon="9.593809908651261"><ele>264.0</ele><time>2026-04-09T12:42:03Z</time></trkpt><trkpt lat="44.18628164245986" lon="9.59372232970367"><ele>264.0</ele><time>2026-04-09T12:42:04Z</time></trkpt><trkpt lat="44.18638566484887" lon="9.593635346675473"><ele>264.0</ele><time>2026-04-09T12:42:05Z</time></trkpt><trkpt lat="44.18647135349678" lon="9.593528543735712"><ele>264.59999999999997</ele><time>2026-04-09T12:42:06Z</time></trkpt><trkpt lat="44.186592394982775" lon="9.593431133809048"><ele>265.2</ele><time>2026-04-09T12:42:07Z</time></trkpt><trkpt lat="44.18668419532016" lon="9.593372289272063"><ele>265.79999999999995</ele><time>2026-04-09T12:42:08Z</time></trkpt><trkpt lat="44.186778695230856" lon="9.593399626851987"><ele>266.4</ele><time>2026-04-09T12:42:09Z</time></trkpt><trkpt lat="44.18686112346949" lon="9.59344075577241"><ele>267.0</ele><time>2026-04-09T12:42:10Z</time></trkpt><trkpt lat="44.18694015049131" lon="9.59356757579016"><ele>273.75</ele><time>2026-04-09T12:42:11Z</time></trkpt><trkpt lat="44.187009754499755" lon="9.593716302797823"><ele>280.5</ele><time>2026-04-09T12:42:12Z</time></trkpt><trkpt lat="44.187081758346096" lon="9.59385768662234"><ele>287.25</ele><time>2026-04-09T12:42:13Z</time></trkpt><trkpt lat="44.18715578302948" lon="9.594005684855665"><ele>294.0</ele><time>2026-04-09T12:42:14Z</time></trkpt><trkpt lat="44.18727474569276" lon="9.59413451996666"><ele>292.0</ele><time>2026-04-09T12:42:15Z</time></trkpt><trkpt lat="44.18740777806909" lon="9.59420464804887"><ele>290.0</ele><time>2026-04-09T12:42:16Z</time></trkpt><trkpt lat="44.18750939939234" lon="9.59430817489832"><ele>288.0</ele><time>2026-04-09T12:42:17Z</time></trkpt><trkpt lat="44.18762486702803" lon="9.594451379756299"><ele>286.0</ele><time>2026-04-09T12:42:18Z</time></trkpt><trkpt lat="44.18773447572373" lon="9.59459888864059"><ele>291.66666666666663</ele><time>2026-04-09T12:42:19Z</time></trkpt><trkpt lat="44.18780966495761" lon="9.594786510214906"><ele>297.3333333333333</ele><time>2026-04-09T12:42:20Z</time></trkpt><trkpt lat="44.18785986591731" lon="9.594972931527131"><ele>303.0</ele><time>2026-04-09T12:42:21Z</time></trkpt><trkpt lat="44.18789771868053" lon="9.595198135677839"><ele>306.2</ele><time>2026-04-09T12:42:22Z</time></trkpt><trkpt lat="44.187889780716766" lon="9.595367122950352"><ele>309.4</ele><time>2026-04-09T12:42:23Z</time></trkpt><trkpt lat="44.187891174842996" lon="9.595492017398756"><ele>312.59999999999997</ele><time>2026-04-09T12:42:24Z</time></trkpt><trkpt lat="44.187939549088604" lon="9.595578975058206"><ele>315.8</ele><time>2026-04-09T12:42:25Z</time></trkpt><trkpt lat="44.18804219335712" lon="9.59561226083307"><ele>319.0</ele><time>2026-04-09T12:42:26Z</time></trkpt><trkpt lat="44.188167019630335" lon="9.595599699265037"><ele>314.0</ele><time>2026-04-09T12:42:27Z</time></trkpt><trkpt lat="44.18825901181799" lon="9.595685285981823"><ele>309.0</ele><time>2026-04-09T12:42:28Z</time></trkpt><trkpt lat="44.1883289306763" lon="9.595814470878516"><ele>304.0</ele><time>2026-04-09T12:42:29Z</time></trkpt><trkpt lat="44.18838381279734" lon="9.595975818054214"><ele>299.0</ele><time>2026-04-09T12:42:30Z</time></trkpt><trkpt lat="44.18842494561512" lon="9.596142027653624"><ele>302.75</ele><time>2026-04-09T12:42:31Z</time></trkpt><trkpt lat="44.18844136198364" lon="9.596327791812113"><ele>306.5</ele><time>2026-04-09T12:42:32Z</time></trkpt><trkpt lat="44.18846724403966" lon="9.596514019375592"><ele>310.25</ele><time>2026-04-09T12:42:33Z</time></trkpt><trkpt lat="44.188505670902124" lon="9.596698883837385"><ele>314.0</ele><time>2026-04-09T12:42:34Z</time></trkpt><trkpt lat="44.18854378772681" lon="9.596846975119709"><ele>314.0</ele><time>2026-04-09T12:42:35Z</time></trkpt><trkpt lat="44.18858676524439" lon="9.596955885554795"><ele>314.0</ele><time>2026-04-09T12:42:36Z</time></trkpt><trkpt lat="44.18864411404577" lon="9.597013176549696"><ele>314.0</ele><time>2026-04-09T12:42:37Z</time></trkpt><trkpt lat="44.188737046340464" lon="9.596993256480783"><ele>314.0</ele><time>2026-04-09T12:42:38Z</time></trkpt><trkpt lat="44.18881969575278" lon="9.596889164895467"><ele>314.0</ele><time>2026-04-09T12:42:39Z</time></trkpt><trkpt lat="44.188883752786445" lon="9.59676883743562"><ele>314.0</ele><time>2026-04-09T12:42:40Z</time></trkpt><trkpt lat="44.18894048822585" lon="9.59666171416232"><ele>314.0</ele><time>2026-04-09T12:42:41Z</time></trkpt><trkpt lat="44.1890155071816" lon="9.59653884996458"><ele>314.0</ele><time>2026-04-09T12:42:42Z</time></trkpt><trkpt lat="44.189075147841606" lon="9.59643098447722"><ele>314.0</ele><time>2026-04-09T12:42:43Z</time></trkpt><trkpt lat="44.18916437529379" lon="9.596342207368863"><ele>314.0</ele><time>2026-04-09T12:42:44Z</time></trkpt><trkpt lat="44.18925522267472" lon="9.596278280352974"><ele>314.0</ele><time>2026-04-09T12:42:45Z</time></trkpt><trkpt lat="44.18936142299901" lon="9.59626761936523"><ele>314.0</ele><time>2026-04-09T12:42:45.999Z</time></trkpt><trkpt lat="44.18947770812178" lon="9.59624527607579"><ele>314.0</ele><time>2026-04-09T12:42:46.999Z</time></trkpt><trkpt lat="44.18961359006214" lon="9.596192005548932"><ele>314.0</ele><time>2026-04-09T12:42:47.999Z</time></trkpt><trkpt lat="44.18971049899091" lon="9.596186918339109"><ele>312.25</ele><time>2026-04-09T12:42:48.999Z</time></trkpt><trkpt lat="44.18981065248593" lon="9.596103824674618"><ele>310.5</ele><time>2026-04-09T12:42:49.999Z</time></trkpt><trkpt lat="44.18992842636293" lon="9.59604988115751"><ele>308.75</ele><time>2026-04-09T12:42:50.999Z</time></trkpt><trkpt lat="44.190059088917465" lon="9.596029567829918"><ele>307.0</ele><time>2026-04-09T12:42:51.999Z</time></trkpt><trkpt lat="44.190177701405446" lon="9.596072697443196"><ele>307.0</ele><time>2026-04-09T12:42:52.999Z</time></trkpt><trkpt lat="44.19029179314337" lon="9.596138763083406"><ele>307.0</ele><time>2026-04-09T12:42:53.999Z</time></trkpt><trkpt lat="44.190370987294415" lon="9.596268998198678"><ele>307.0</ele><time>2026-04-09T12:42:54.999Z</time></trkpt><trkpt lat="44.19042489193829" lon="9.596445032168678"><ele>307.0</ele><time>2026-04-09T12:42:55.999Z</time></trkpt><trkpt lat="44.190487377950625" lon="9.596609463912229"><ele>312.75</ele><time>2026-04-09T12:42:56.999Z</time></trkpt><trkpt lat="44.19054113260273" lon="9.596772897891386"><ele>318.5</ele><time>2026-04-09T12:42:57.999Z</time></trkpt><trkpt lat="44.190602604795956" lon="9.596941621213439"><ele>324.25</ele><time>2026-04-09T12:42:58.999Z</time></trkpt><trkpt lat="44.190676834653566" lon="9.597088991404554"><ele>330.0</ele><time>2026-04-09T12:42:59.999Z</time></trkpt><trkpt lat="44.19080313708814" lon="9.597197306971049"><ele>333.75</ele><time>2026-04-09T12:43:00.999Z</time></trkpt><trkpt lat="44.19095202993192" lon="9.597245342753302"><ele>337.5</ele><time>2026-04-09T12:43:01.999Z</time></trkpt><trkpt lat="44.19109413719058" lon="9.597258377559935"><ele>341.25</ele><time>2026-04-09T12:43:02.999Z</time></trkpt><trkpt lat="44.19123193305179" lon="9.597282816007443"><ele>345.0</ele><time>2026-04-09T12:43:03.999Z</time></trkpt><trkpt lat="44.19137358056776" lon="9.59735010042699"><ele>343.75</ele><time>2026-04-09T12:43:04.999Z</time></trkpt><trkpt lat="44.19151506298158" lon="9.597437818164305"><ele>342.5</ele><time>2026-04-09T12:43:05.999Z</time></trkpt><trkpt lat="44.19163022953804" lon="9.59751337031392"><ele>341.25</ele><time>2026-04-09T12:43:06.999Z</time></trkpt><trkpt lat="44.19173271210218" lon="9.597513244928221"><ele>340.0</ele><time>2026-04-09T12:43:07.999Z</time></trkpt><trkpt lat="44.19180549885201" lon="9.597456024628853"><ele>340.0</ele><time>2026-04-09T12:43:08.999Z</time></trkpt><trkpt lat="44.1918241743436" lon="9.59735283435182"><ele>340.0</ele><time>2026-04-09T12:43:09.999Z</time></trkpt><trkpt lat="44.191830748386224" lon="9.597194399039662"><ele>340.0</ele><time>2026-04-09T12:43:10.999Z</time></trkpt><trkpt lat="44.191717812239766" lon="9.597058111376064"><ele>340.0</ele><time>2026-04-09T12:43:11.999Z</time></trkpt><trkpt lat="44.191649771048425" lon="9.596925364930458"><ele>339.2</ele><time>2026-04-09T12:43:12.999Z</time></trkpt><trkpt lat="44.191563722062945" lon="9.596825590784086"><ele>338.4</ele><time>2026-04-09T12:43:13.999Z</time></trkpt><trkpt lat="44.19148082792256" lon="9.596699257509071"><ele>337.6</ele><time>2026-04-09T12:43:14.999Z</time></trkpt><trkpt lat="44.19144209420018" lon="9.596584046787408"><ele>336.8</ele><time>2026-04-09T12:43:15.999Z</time></trkpt><trkpt lat="44.19145059338696" lon="9.59648392236088"><ele>336.0</ele><time>2026-04-09T12:43:16.999Z</time></trkpt><trkpt lat="44.19151113575451" lon="9.59640665430838"><ele>336.0</ele><time>2026-04-09T12:43:17.999Z</time></trkpt><trkpt lat="44.191611929518785" lon="9.59635725027451"><ele>336.0</ele><time>2026-04-09T12:43:18.999Z</time></trkpt><trkpt lat="44.19174100984254" lon="9.596325219452623"><ele>336.0</ele><time>2026-04-09T12:43:19.999Z</time></trkpt><trkpt lat="44.191851022111656" lon="9.59629394746691"><ele>336.0</ele><time>2026-04-09T12:43:20.999Z</time></trkpt><trkpt lat="44.19196207485876" lon="9.5962545030405"><ele>336.0</ele><time>2026-04-09T12:43:21.999Z</time></trkpt><trkpt lat="44.192072279032324" lon="9.59621119068747"><ele>336.0</ele><time>2026-04-09T12:43:22.999Z</time></trkpt><trkpt lat="44.19218651479862" lon="9.596176413392978"><ele>336.0</ele><time>2026-04-09T12:43:23.999Z</time></trkpt><trkpt lat="44.192295233347956" lon="9.596125090230796"><ele>336.0</ele><time>2026-04-09T12:43:24.999Z</time></trkpt><trkpt lat="44.192388617245626" lon="9.596040927936484"><ele>336.0</ele><time>2026-04-09T12:43:25.999Z</time></trkpt><trkpt lat="44.19243909967534" lon="9.595945721197884"><ele>336.0</ele><time>2026-04-09T12:43:26.999Z</time></trkpt><trkpt lat="44.19249560257679" lon="9.595999634159233"><ele>336.0</ele><time>2026-04-09T12:43:28.999Z</time></trkpt><trkpt lat="44.19241814330354" lon="9.596134728924198"><ele>336.0</ele><time>2026-04-09T12:43:30.999Z</time></trkpt><trkpt lat="44.19236200937428" lon="9.596211670821639"><ele>336.0</ele><time>2026-04-09T12:43:31.999Z</time></trkpt><trkpt lat="44.192301699564" lon="9.596283655979475"><ele>336.0</ele><time>2026-04-09T12:43:32.999Z</time></trkpt><trkpt lat="44.192227355884725" lon="9.596368815825004"><ele>336.0</ele><time>2026-04-09T12:43:33.999Z</time></trkpt><trkpt lat="44.19215566065706" lon="9.596475409021911"><ele>336.0</ele><time>2026-04-09T12:43:34.999Z</time></trkpt><trkpt lat="44.1920929770041" lon="9.59656461615071"><ele>336.0</ele><time>2026-04-09T12:43:35.999Z</time></trkpt><trkpt lat="44.19211798872238" lon="9.596725893085477"><ele>336.0</ele><time>2026-04-09T12:43:37.999Z</time></trkpt><trkpt lat="44.19221344786766" lon="9.596730102795366"><ele>336.0</ele><time>2026-04-09T12:43:38.999Z</time></trkpt><trkpt lat="44.19228867054912" lon="9.596664724904095"><ele>337.6</ele><time>2026-04-09T12:43:39.999Z</time></trkpt><trkpt lat="44.19234395015214" lon="9.596548911788616"><ele>339.20000000000005</ele><time>2026-04-09T12:43:40.999Z</time></trkpt><trkpt lat="44.192419324116415" lon="9.596434610649498"><ele>340.79999999999995</ele><time>2026-04-09T12:43:41.999Z</time></trkpt><trkpt lat="44.19250897492389" lon="9.59634335332399"><ele>342.4</ele><time>2026-04-09T12:43:42.999Z</time></trkpt><trkpt lat="44.19260304233823" lon="9.596241429478738"><ele>344.0</ele><time>2026-04-09T12:43:43.999Z</time></trkpt><trkpt lat="44.1926929170595" lon="9.596143908042018"><ele>344.0</ele><time>2026-04-09T12:43:44.999Z</time></trkpt><trkpt lat="44.19278741944275" lon="9.596061201360834"><ele>344.0</ele><time>2026-04-09T12:43:45.999Z</time></trkpt><trkpt lat="44.192906959126084" lon="9.596034056288104"><ele>344.0</ele><time>2026-04-09T12:43:46.999Z</time></trkpt><trkpt lat="44.19302372951168" lon="9.59601109096891"><ele>344.0</ele><time>2026-04-09T12:43:47.999Z</time></trkpt><trkpt lat="44.19313796763523" lon="9.59594998166542"><ele>350.25</ele><time>2026-04-09T12:43:48.999Z</time></trkpt><trkpt lat="44.19321998758258" lon="9.59580110945302"><ele>356.5</ele><time>2026-04-09T12:43:49.999Z</time></trkpt><trkpt lat="44.19326986950262" lon="9.595637863155511"><ele>362.75</ele><time>2026-04-09T12:43:50.998Z</time></trkpt><trkpt lat="44.193371061258" lon="9.595496008126059"><ele>369.0</ele><time>2026-04-09T12:43:51.998Z</time></trkpt><trkpt lat="44.193471911563655" lon="9.59539266285059"><ele>370.2</ele><time>2026-04-09T12:43:52.998Z</time></trkpt><trkpt lat="44.1935288848146" lon="9.595314277862052"><ele>371.4</ele><time>2026-04-09T12:43:53.998Z</time></trkpt><trkpt lat="44.19355302482549" lon="9.59520901834804"><ele>372.6</ele><time>2026-04-09T12:43:54.998Z</time></trkpt><trkpt lat="44.19350575103093" lon="9.595069874339924"><ele>373.8</ele><time>2026-04-09T12:43:55.998Z</time></trkpt><trkpt lat="44.19338312225614" lon="9.59499954209472"><ele>375.0</ele><time>2026-04-09T12:43:56.998Z</time></trkpt><trkpt lat="44.193269565858074" lon="9.595046136683697"><ele>369.75</ele><time>2026-04-09T12:43:57.998Z</time></trkpt><trkpt lat="44.193140241581446" lon="9.595023295277803"><ele>364.5</ele><time>2026-04-09T12:43:58.998Z</time></trkpt><trkpt lat="44.193023039744666" lon="9.59499779322004"><ele>359.25</ele><time>2026-04-09T12:43:59.998Z</time></trkpt><trkpt lat="44.192930089152654" lon="9.594893616891213"><ele>354.0</ele><time>2026-04-09T12:44:00.998Z</time></trkpt><trkpt lat="44.1928337945819" lon="9.594795161731371"><ele>354.0</ele><time>2026-04-09T12:44:01.998Z</time></trkpt><trkpt lat="44.192718348603144" lon="9.594725940785915"><ele>354.0</ele><time>2026-04-09T12:44:02.998Z</time></trkpt><trkpt lat="44.19261479040952" lon="9.594643469007929"><ele>354.0</ele><time>2026-04-09T12:44:03.998Z</time></trkpt><trkpt lat="44.1925135438197" lon="9.594575015704269"><ele>354.0</ele><time>2026-04-09T12:44:04.998Z</time></trkpt><trkpt lat="44.192359040787316" lon="9.594538960203169"><ele>355.5</ele><time>2026-04-09T12:44:05.998Z</time></trkpt><trkpt lat="44.19222442288413" lon="9.594498536285576"><ele>357.0</ele><time>2026-04-09T12:44:06.998Z</time></trkpt><trkpt lat="44.19209286177732" lon="9.594451628656632"><ele>358.5</ele><time>2026-04-09T12:44:07.998Z</time></trkpt><trkpt lat="44.19198704587056" lon="9.59432703670934"><ele>360.0</ele><time>2026-04-09T12:44:09Z</time></trkpt><trkpt lat="44.1918930238433" lon="9.594215147720162"><ele>360.0</ele><time>2026-04-09T12:44:10Z</time></trkpt><trkpt lat="44.19182555555644" lon="9.594088121531163"><ele>360.0</ele><time>2026-04-09T12:44:11Z</time></trkpt><trkpt lat="44.19182733567973" lon="9.593962108435553"><ele>360.0</ele><time>2026-04-09T12:44:12Z</time></trkpt><trkpt lat="44.191818315990155" lon="9.593788533635626"><ele>360.0</ele><time>2026-04-09T12:44:13Z</time></trkpt><trkpt lat="44.19182045342798" lon="9.593632938598148"><ele>360.0</ele><time>2026-04-09T12:44:14Z</time></trkpt><trkpt lat="44.19180236639095" lon="9.593464847925064"><ele>362.75</ele><time>2026-04-09T12:44:15Z</time></trkpt><trkpt lat="44.19174862101772" lon="9.593299502355109"><ele>365.5</ele><time>2026-04-09T12:44:16Z</time></trkpt><trkpt lat="44.191696138698994" lon="9.593136050308905"><ele>368.25</ele><time>2026-04-09T12:44:17Z</time></trkpt><trkpt lat="44.19166073807303" lon="9.592961727520143"><ele>371.0</ele><time>2026-04-09T12:44:18Z</time></trkpt><trkpt lat="44.19162828015158" lon="9.592813494204123"><ele>371.0</ele><time>2026-04-09T12:44:19Z</time></trkpt><trkpt lat="44.19166198810242" lon="9.592713057367401"><ele>371.0</ele><time>2026-04-09T12:44:20Z</time></trkpt><trkpt lat="44.19171074422768" lon="9.592633897459631"><ele>371.0</ele><time>2026-04-09T12:44:21Z</time></trkpt><trkpt lat="44.19181647606893" lon="9.592615289062346"><ele>371.0</ele><time>2026-04-09T12:44:22Z</time></trkpt><trkpt lat="44.19189922002176" lon="9.592552082179962"><ele>371.0</ele><time>2026-04-09T12:44:23Z</time></trkpt><trkpt lat="44.19200182167436" lon="9.592505168046248"><ele>371.0</ele><time>2026-04-09T12:44:24Z</time></trkpt><trkpt lat="44.1920952068992" lon="9.592425752757006"><ele>371.0</ele><time>2026-04-09T12:44:25Z</time></trkpt><trkpt lat="44.19217536269833" lon="9.592312892359313"><ele>371.0</ele><time>2026-04-09T12:44:26Z</time></trkpt><trkpt lat="44.19225147122402" lon="9.592192842145378"><ele>371.0</ele><time>2026-04-09T12:44:27Z</time></trkpt><trkpt lat="44.19233357848648" lon="9.592072535302828"><ele>374.0</ele><time>2026-04-09T12:44:28Z</time></trkpt><trkpt lat="44.192410340858494" lon="9.591950828790882"><ele>377.0</ele><time>2026-04-09T12:44:29Z</time></trkpt><trkpt lat="44.192494659120165" lon="9.591825940587004"><ele>380.0</ele><time>2026-04-09T12:44:30Z</time></trkpt><trkpt lat="44.19257912134329" lon="9.591692776168127"><ele>383.0</ele><time>2026-04-09T12:44:31Z</time></trkpt><trkpt lat="44.19268583473938" lon="9.591596830017407"><ele>383.0</ele><time>2026-04-09T12:44:32Z</time></trkpt><trkpt lat="44.192810102317615" lon="9.59153261196987"><ele>383.0</ele><time>2026-04-09T12:44:33Z</time></trkpt><trkpt lat="44.192946151651284" lon="9.591498319531414"><ele>383.0</ele><time>2026-04-09T12:44:34Z</time></trkpt><trkpt lat="44.19305341070427" lon="9.59140126701286"><ele>383.0</ele><time>2026-04-09T12:44:35Z</time></trkpt><trkpt lat="44.193145774863666" lon="9.591276973559546"><ele>384.0</ele><time>2026-04-09T12:44:36Z</time></trkpt><trkpt lat="44.193226977257126" lon="9.591156149212777"><ele>385.0</ele><time>2026-04-09T12:44:37Z</time></trkpt><trkpt lat="44.19331294417821" lon="9.591134911357235"><ele>386.0</ele><time>2026-04-09T12:44:38Z</time></trkpt><trkpt lat="44.19339647804874" lon="9.591167908667392"><ele>387.0</ele><time>2026-04-09T12:44:39Z</time></trkpt><trkpt lat="44.19348369843392" lon="9.591281925669671"><ele>388.0</ele><time>2026-04-09T12:44:40Z</time></trkpt><trkpt lat="44.1935803892206" lon="9.591368863603112"><ele>394.0</ele><time>2026-04-09T12:44:41Z</time></trkpt><trkpt lat="44.193693333763015" lon="9.591425869324944"><ele>400.0</ele><time>2026-04-09T12:44:42Z</time></trkpt><trkpt lat="44.193808822582746" lon="9.591435724332712"><ele>406.0</ele><time>2026-04-09T12:44:43Z</time></trkpt><trkpt lat="44.193941602130884" lon="9.591435591586928"><ele>412.0</ele><time>2026-04-09T12:44:44Z</time></trkpt><trkpt lat="44.19405389411718" lon="9.59143655789272"><ele>414.25</ele><time>2026-04-09T12:44:45Z</time></trkpt><trkpt lat="44.194182659563324" lon="9.591475403851376"><ele>416.5</ele><time>2026-04-09T12:44:46Z</time></trkpt><trkpt lat="44.19430462917176" lon="9.591533792532674"><ele>418.75</ele><time>2026-04-09T12:44:47Z</time></trkpt><trkpt lat="44.19442741350821" lon="9.591576930479343"><ele>421.0</ele><time>2026-04-09T12:44:48Z</time></trkpt><trkpt lat="44.194563687077164" lon="9.591622001964778"><ele>421.0</ele><time>2026-04-09T12:44:49Z</time></trkpt><trkpt lat="44.19469971833948" lon="9.59165051871419"><ele>421.0</ele><time>2026-04-09T12:44:50Z</time></trkpt><trkpt lat="44.19482081133178" lon="9.591675921494673"><ele>421.0</ele><time>2026-04-09T12:44:51Z</time></trkpt><trkpt lat="44.194934199073735" lon="9.591765947774663"><ele>421.0</ele><time>2026-04-09T12:44:52Z</time></trkpt><trkpt lat="44.19507265728312" lon="9.591829505716989"><ele>419.25</ele><time>2026-04-09T12:44:53Z</time></trkpt><trkpt lat="44.195188779179496" lon="9.591832268105236"><ele>417.5</ele><time>2026-04-09T12:44:54Z</time></trkpt><trkpt lat="44.19530498105029" lon="9.591844657203374"><ele>415.75</ele><time>2026-04-09T12:44:55Z</time></trkpt><trkpt lat="44.19539645621229" lon="9.591924727417343"><ele>414.0</ele><time>2026-04-09T12:44:56Z</time></trkpt><trkpt lat="44.19541914197892" lon="9.592077399988424"><ele>418.79999999999995</ele><time>2026-04-09T12:44:57Z</time></trkpt><trkpt lat="44.19545209262909" lon="9.592262372932591"><ele>423.59999999999997</ele><time>2026-04-09T12:44:58Z</time></trkpt><trkpt lat="44.19547358337739" lon="9.592394514715775"><ele>428.4</ele><time>2026-04-09T12:44:58.999Z</time></trkpt><trkpt lat="44.195562538636004" lon="9.592423123081867"><ele>433.2</ele><time>2026-04-09T12:44:59.999Z</time></trkpt><trkpt lat="44.19566929803029" lon="9.592399889824518"><ele>438.0</ele><time>2026-04-09T12:45:00.999Z</time></trkpt><trkpt lat="44.19575618357917" lon="9.592314433955787"><ele>438.0</ele><time>2026-04-09T12:45:01.999Z</time></trkpt><trkpt lat="44.19583991038094" lon="9.592198934522752"><ele>438.0</ele><time>2026-04-09T12:45:02.999Z</time></trkpt><trkpt lat="44.19592156507323" lon="9.59205990668874"><ele>438.0</ele><time>2026-04-09T12:45:03.999Z</time></trkpt><trkpt lat="44.195990095275384" lon="9.591922792560135"><ele>438.0</ele><time>2026-04-09T12:45:04.999Z</time></trkpt><trkpt lat="44.19607421285027" lon="9.591795510382184"><ele>437.25</ele><time>2026-04-09T12:45:05.999Z</time></trkpt><trkpt lat="44.196179595793254" lon="9.591689336201632"><ele>436.5</ele><time>2026-04-09T12:45:06.999Z</time></trkpt><trkpt lat="44.19630188490063" lon="9.59162482537283"><ele>435.75</ele><time>2026-04-09T12:45:07.999Z</time></trkpt><trkpt lat="44.19642307110847" lon="9.591574721841432"><ele>435.0</ele><time>2026-04-09T12:45:08.999Z</time></trkpt><trkpt lat="44.196547008310496" lon="9.591612698902493"><ele>435.0</ele><time>2026-04-09T12:45:09.999Z</time></trkpt><trkpt lat="44.19669256158128" lon="9.591631601544998"><ele>435.0</ele><time>2026-04-09T12:45:10.999Z</time></trkpt><trkpt lat="44.19684041297522" lon="9.591669869642569"><ele>435.0</ele><time>2026-04-09T12:45:11.999Z</time></trkpt><trkpt lat="44.19696534479085" lon="9.591644768404057"><ele>435.0</ele><time>2026-04-09T12:45:12.999Z</time></trkpt><trkpt lat="44.197090555991714" lon="9.591574836202511"><ele>435.0</ele><time>2026-04-09T12:45:13.999Z</time></trkpt><trkpt lat="44.19718939529393" lon="9.59147589349801"><ele>435.0</ele><time>2026-04-09T12:45:14.999Z</time></trkpt><trkpt lat="44.19725001488084" lon="9.591332872569806"><ele>435.0</ele><time>2026-04-09T12:45:15.999Z</time></trkpt><trkpt lat="44.19729726981354" lon="9.591166449227513"><ele>435.0</ele><time>2026-04-09T12:45:16.999Z</time></trkpt><trkpt lat="44.19737699124568" lon="9.591042291193817"><ele>434.75</ele><time>2026-04-09T12:45:17.999Z</time></trkpt><trkpt lat="44.19750244931485" lon="9.591001134876992"><ele>434.5</ele><time>2026-04-09T12:45:18.999Z</time></trkpt><trkpt lat="44.1976144669597" lon="9.590927735687703"><ele>434.25</ele><time>2026-04-09T12:45:19.999Z</time></trkpt><trkpt lat="44.197727433323976" lon="9.590880212910399"><ele>434.0</ele><time>2026-04-09T12:45:20.999Z</time></trkpt><trkpt lat="44.19786200466667" lon="9.590884689617923"><ele>434.0</ele><time>2026-04-09T12:45:21.999Z</time></trkpt><trkpt lat="44.19797855565665" lon="9.590959280677811"><ele>434.0</ele><time>2026-04-09T12:45:22.999Z</time></trkpt><trkpt lat="44.1980785840956" lon="9.590984542052068"><ele>434.0</ele><time>2026-04-09T12:45:23.999Z</time></trkpt><trkpt lat="44.19815602520672" lon="9.591028647885732"><ele>434.0</ele><time>2026-04-09T12:45:24.999Z</time></trkpt><trkpt lat="44.19824254483147" lon="9.590836343708785"><ele>435.0</ele><time>2026-04-09T12:45:25.999Z</time></trkpt><trkpt lat="44.198305183489275" lon="9.590697512392737"><ele>436.0</ele><time>2026-04-09T12:45:26.999Z</time></trkpt><trkpt lat="44.19836720041986" lon="9.590563828410524"><ele>437.0</ele><time>2026-04-09T12:45:27.999Z</time></trkpt><trkpt lat="44.19843756357223" lon="9.590430968151134"><ele>438.0</ele><time>2026-04-09T12:45:28.999Z</time></trkpt><trkpt lat="44.19851223266582" lon="9.590306160270082"><ele>438.0</ele><time>2026-04-09T12:45:29.999Z</time></trkpt><trkpt lat="44.19859319041527" lon="9.590183782130158"><ele>438.0</ele><time>2026-04-09T12:45:30.999Z</time></trkpt><trkpt lat="44.198677313496155" lon="9.59006136794531"><ele>438.0</ele><time>2026-04-09T12:45:31.999Z</time></trkpt><trkpt lat="44.198778816604054" lon="9.589933841485704"><ele>438.0</ele><time>2026-04-09T12:45:32.999Z</time></trkpt><trkpt lat="44.1988898059219" lon="9.58983816753292"><ele>441.0</ele><time>2026-04-09T12:45:33.999Z</time></trkpt><trkpt lat="44.19900488884163" lon="9.589771539642777"><ele>444.0</ele><time>2026-04-09T12:45:34.999Z</time></trkpt><trkpt lat="44.199128980143605" lon="9.589766011577625"><ele>447.0</ele><time>2026-04-09T12:45:35.999Z</time></trkpt><trkpt lat="44.19924175615869" lon="9.58984062863047"><ele>450.0</ele><time>2026-04-09T12:45:36.999Z</time></trkpt><trkpt lat="44.1993044750823" lon="9.589967590132291"><ele>450.0</ele><time>2026-04-09T12:45:37.999Z</time></trkpt><trkpt lat="44.1993230547521" lon="9.590157370819773"><ele>450.0</ele><time>2026-04-09T12:45:38.999Z</time></trkpt><trkpt lat="44.19937394090882" lon="9.590319192460248"><ele>450.0</ele><time>2026-04-09T12:45:39.999Z</time></trkpt><trkpt lat="44.19944084515856" lon="9.590453575963497"><ele>450.0</ele><time>2026-04-09T12:45:40.999Z</time></trkpt><trkpt lat="44.19952056282985" lon="9.59060907977102"><ele>456.5</ele><time>2026-04-09T12:45:41.999Z</time></trkpt><trkpt lat="44.199601470711045" lon="9.590753692204018"><ele>463.0</ele><time>2026-04-09T12:45:42.999Z</time></trkpt><trkpt lat="44.19968449661452" lon="9.590909366161416"><ele>469.5</ele><time>2026-04-09T12:45:43.999Z</time></trkpt><trkpt lat="44.19977181089375" lon="9.591059865762547"><ele>476.0</ele><time>2026-04-09T12:45:44.999Z</time></trkpt><trkpt lat="44.19986529454932" lon="9.591199235779179"><ele>477.25</ele><time>2026-04-09T12:45:45.999Z</time></trkpt><trkpt lat="44.19996652560489" lon="9.591356551614092"><ele>478.5</ele><time>2026-04-09T12:45:46.999Z</time></trkpt><trkpt lat="44.20003170563092" lon="9.59151873146583"><ele>479.75</ele><time>2026-04-09T12:45:47.999Z</time></trkpt><trkpt lat="44.20008793083606" lon="9.591686386623213"><ele>481.0</ele><time>2026-04-09T12:45:48.999Z</time></trkpt><trkpt lat="44.20019139923929" lon="9.591823793219646"><ele>481.0</ele><time>2026-04-09T12:45:49.999Z</time></trkpt><trkpt lat="44.20032646838393" lon="9.591899644205359"><ele>481.0</ele><time>2026-04-09T12:45:50.999Z</time></trkpt><trkpt lat="44.200444104416604" lon="9.59197270850695"><ele>481.0</ele><time>2026-04-09T12:45:51.999Z</time></trkpt><trkpt lat="44.20056115516503" lon="9.592087462929422"><ele>481.0</ele><time>2026-04-09T12:45:52.999Z</time></trkpt><trkpt lat="44.200716142013896" lon="9.59213057798882"><ele>479.75</ele><time>2026-04-09T12:45:53.999Z</time></trkpt><trkpt lat="44.20086346039744" lon="9.592098038065304"><ele>478.5</ele><time>2026-04-09T12:45:54.999Z</time></trkpt><trkpt lat="44.20101122171797" lon="9.592031616596243"><ele>477.25</ele><time>2026-04-09T12:45:55.999Z</time></trkpt><trkpt lat="44.20112647626336" lon="9.591948545315235"><ele>476.0</ele><time>2026-04-09T12:45:56.999Z</time></trkpt><trkpt lat="44.20123551067754" lon="9.59191382840279"><ele>476.0</ele><time>2026-04-09T12:45:57.999Z</time></trkpt><trkpt lat="44.20133039987804" lon="9.591977169058229"><ele>476.0</ele><time>2026-04-09T12:45:58.999Z</time></trkpt><trkpt lat="44.20139387058734" lon="9.592137575870508"><ele>476.0</ele><time>2026-04-09T12:45:59.999Z</time></trkpt><trkpt lat="44.201433914491766" lon="9.592264354689119"><ele>476.0</ele><time>2026-04-09T12:46:00.999Z</time></trkpt><trkpt lat="44.20148857618404" lon="9.592416930395094"><ele>479.25</ele><time>2026-04-09T12:46:01.999Z</time></trkpt><trkpt lat="44.20155771927839" lon="9.592551062950957"><ele>482.5</ele><time>2026-04-09T12:46:02.999Z</time></trkpt><trkpt lat="44.20162873226517" lon="9.592685033566095"><ele>485.75</ele><time>2026-04-09T12:46:03.998Z</time></trkpt><trkpt lat="44.20169143556153" lon="9.592840843419198"><ele>489.0</ele><time>2026-04-09T12:46:04.998Z</time></trkpt><trkpt lat="44.201764634898" lon="9.592993010189304"><ele>493.0</ele><time>2026-04-09T12:46:05.998Z</time></trkpt><trkpt lat="44.201838304550705" lon="9.59313701122433"><ele>497.0</ele><time>2026-04-09T12:46:06.998Z</time></trkpt><trkpt lat="44.201865396461" lon="9.59331154306631"><ele>501.0</ele><time>2026-04-09T12:46:07.998Z</time></trkpt><trkpt lat="44.20185065611284" lon="9.59349735521373"><ele>505.0</ele><time>2026-04-09T12:46:08.998Z</time></trkpt><trkpt lat="44.201852713590924" lon="9.59367784855753"><ele>507.1666666666667</ele><time>2026-04-09T12:46:09.998Z</time></trkpt><trkpt lat="44.20186158095559" lon="9.593816225790112"><ele>509.33333333333337</ele><time>2026-04-09T12:46:10.998Z</time></trkpt><trkpt lat="44.20189060105127" lon="9.593905357989224"><ele>511.5</ele><time>2026-04-09T12:46:11.998Z</time></trkpt><trkpt lat="44.20198045939112" lon="9.593912788484824"><ele>513.6666666666666</ele><time>2026-04-09T12:46:12.998Z</time></trkpt><trkpt lat="44.20207005805013" lon="9.593875611002293"><ele>515.8333333333333</ele><time>2026-04-09T12:46:13.998Z</time></trkpt><trkpt lat="44.202147110916265" lon="9.593872400922136"><ele>518.0</ele><time>2026-04-09T12:46:15Z</time></trkpt><trkpt lat="44.202224192086284" lon="9.593941795270359"><ele>518.0</ele><time>2026-04-09T12:46:16Z</time></trkpt><trkpt lat="44.2022413594338" lon="9.59405952971581"><ele>518.0</ele><time>2026-04-09T12:46:17Z</time></trkpt><trkpt lat="44.2022702175972" lon="9.594161284787074"><ele>518.0</ele><time>2026-04-09T12:46:18Z</time></trkpt><trkpt lat="44.20229889565181" lon="9.594283032135532"><ele>518.0</ele><time>2026-04-09T12:46:19Z</time></trkpt><trkpt lat="44.202330150566866" lon="9.594413187969126"><ele>518.0</ele><time>2026-04-09T12:46:20Z</time></trkpt><trkpt lat="44.20236029667368" lon="9.594497759695047"><ele>518.0</ele><time>2026-04-09T12:46:21Z</time></trkpt><trkpt lat="44.202405334979964" lon="9.594615664824605"><ele>520.0</ele><time>2026-04-09T12:46:22Z</time></trkpt><trkpt lat="44.20243084154437" lon="9.594772313194072"><ele>522.0</ele><time>2026-04-09T12:46:23Z</time></trkpt><trkpt lat="44.202473468377505" lon="9.594852131560623"><ele>524.0</ele><time>2026-04-09T12:46:25Z</time></trkpt><trkpt lat="44.20254687109245" lon="9.59484707986923"><ele>526.0</ele><time>2026-04-09T12:46:26Z</time></trkpt><trkpt lat="44.202599456060746" lon="9.594693173386451"><ele>528.0</ele><time>2026-04-09T12:46:28Z</time></trkpt><trkpt lat="44.202630530927095" lon="9.59452734512943"><ele>528.0</ele><time>2026-04-09T12:46:29Z</time></trkpt><trkpt lat="44.20269505278404" lon="9.594459930824588"><ele>528.0</ele><time>2026-04-09T12:46:30Z</time></trkpt><trkpt lat="44.20276611359384" lon="9.594469603822285"><ele>528.0</ele><time>2026-04-09T12:46:31Z</time></trkpt><trkpt lat="44.20286057506389" lon="9.594515633683246"><ele>528.0</ele><time>2026-04-09T12:46:32Z</time></trkpt><trkpt lat="44.20297130795568" lon="9.594581631711987"><ele>528.0</ele><time>2026-04-09T12:46:33Z</time></trkpt><trkpt lat="44.20307600118078" lon="9.59458439625407"><ele>529.6</ele><time>2026-04-09T12:46:34Z</time></trkpt><trkpt lat="44.20318259946603" lon="9.594574147923192"><ele>531.1999999999999</ele><time>2026-04-09T12:46:35Z</time></trkpt><trkpt lat="44.20329426513055" lon="9.594605479091268"><ele>532.8</ele><time>2026-04-09T12:46:36Z</time></trkpt><trkpt lat="44.20339789093603" lon="9.594652839977917"><ele>534.4</ele><time>2026-04-09T12:46:37Z</time></trkpt><trkpt lat="44.20346463869077" lon="9.594746340428323"><ele>536.0</ele><time>2026-04-09T12:46:38Z</time></trkpt><trkpt lat="44.20355842842701" lon="9.594834766656135"><ele>536.0</ele><time>2026-04-09T12:46:39Z</time></trkpt><trkpt lat="44.20362842357237" lon="9.594768887520543"><ele>536.0</ele><time>2026-04-09T12:46:41Z</time></trkpt><trkpt lat="44.203624942761884" lon="9.594562807190604"><ele>536.0</ele><time>2026-04-09T12:46:43Z</time></trkpt><trkpt lat="44.20356764760535" lon="9.59445137250654"><ele>536.0</ele><time>2026-04-09T12:46:44Z</time></trkpt><trkpt lat="44.203490337635046" lon="9.594376116295823"><ele>536.0</ele><time>2026-04-09T12:46:45Z</time></trkpt><trkpt lat="44.203415936784594" lon="9.594299544500355"><ele>532.6</ele><time>2026-04-09T12:46:46Z</time></trkpt><trkpt lat="44.20335112326063" lon="9.594174676917733"><ele>529.2</ele><time>2026-04-09T12:46:47Z</time></trkpt><trkpt lat="44.20329330711686" lon="9.59405648597996"><ele>525.8</ele><time>2026-04-09T12:46:48Z</time></trkpt><trkpt lat="44.20326732664038" lon="9.593949389209882"><ele>522.4</ele><time>2026-04-09T12:46:49Z</time></trkpt><trkpt lat="44.20331132275328" lon="9.593851900479486"><ele>519.0</ele><time>2026-04-09T12:46:50Z</time></trkpt><trkpt lat="44.203395080739774" lon="9.593800330354053"><ele>519.0</ele><time>2026-04-09T12:46:51Z</time></trkpt><trkpt lat="44.203490194036185" lon="9.593803587302435"><ele>519.0</ele><time>2026-04-09T12:46:52Z</time></trkpt><trkpt lat="44.203586002500664" lon="9.593784083152192"><ele>519.0</ele><time>2026-04-09T12:46:53Z</time></trkpt><trkpt lat="44.20369416242461" lon="9.593735052741108"><ele>519.0</ele><time>2026-04-09T12:46:54Z</time></trkpt><trkpt lat="44.203787818217094" lon="9.593682187392021"><ele>519.0</ele><time>2026-04-09T12:46:55Z</time></trkpt><trkpt lat="44.20389848826676" lon="9.593635148722058"><ele>519.4</ele><time>2026-04-09T12:46:56Z</time></trkpt><trkpt lat="44.20398153712517" lon="9.593614381531477"><ele>519.8</ele><time>2026-04-09T12:46:57Z</time></trkpt><trkpt lat="44.20407023487941" lon="9.593554270361253"><ele>520.2</ele><time>2026-04-09T12:46:58Z</time></trkpt><trkpt lat="44.204097131052485" lon="9.593448402564274"><ele>520.6</ele><time>2026-04-09T12:46:58.999Z</time></trkpt><trkpt lat="44.20405095512031" lon="9.593325632767554"><ele>521.0</ele><time>2026-04-09T12:46:59.999Z</time></trkpt><trkpt lat="44.2039800831987" lon="9.59324351578642"><ele>521.0</ele><time>2026-04-09T12:47:00.999Z</time></trkpt><trkpt lat="44.20388695246596" lon="9.593161097992065"><ele>521.0</ele><time>2026-04-09T12:47:01.999Z</time></trkpt><trkpt lat="44.20377608217844" lon="9.593096756114424"><ele>521.0</ele><time>2026-04-09T12:47:02.999Z</time></trkpt><trkpt lat="44.2036807822269" lon="9.593010662514942"><ele>521.0</ele><time>2026-04-09T12:47:03.999Z</time></trkpt><trkpt lat="44.20362780671837" lon="9.592912438141111"><ele>521.0</ele><time>2026-04-09T12:47:04.999Z</time></trkpt><trkpt lat="44.203631691253946" lon="9.592774744265634"><ele>521.5</ele><time>2026-04-09T12:47:05.999Z</time></trkpt><trkpt lat="44.20368561704723" lon="9.592635097998489"><ele>522.0</ele><time>2026-04-09T12:47:06.999Z</time></trkpt><trkpt lat="44.20377749755717" lon="9.592541254158224"><ele>522.5</ele><time>2026-04-09T12:47:07.999Z</time></trkpt><trkpt lat="44.20388757815419" lon="9.592453732840367"><ele>523.0</ele><time>2026-04-09T12:47:08.999Z</time></trkpt><trkpt lat="44.20397191945716" lon="9.592351495456189"><ele>528.5</ele><time>2026-04-09T12:47:09.999Z</time></trkpt><trkpt lat="44.20405824976934" lon="9.592246201705953"><ele>534.0</ele><time>2026-04-09T12:47:10.999Z</time></trkpt><trkpt lat="44.20417677885715" lon="9.59217818788518"><ele>539.5</ele><time>2026-04-09T12:47:11.999Z</time></trkpt><trkpt lat="44.20430632743118" lon="9.592167821820299"><ele>545.0</ele><time>2026-04-09T12:47:12.999Z</time></trkpt><trkpt lat="44.20443861701242" lon="9.592229647803375"><ele>545.0</ele><time>2026-04-09T12:47:13.999Z</time></trkpt><trkpt lat="44.204534964787484" lon="9.592307043728646"><ele>545.0</ele><time>2026-04-09T12:47:14.999Z</time></trkpt><trkpt lat="44.20460720372388" lon="9.59230658886599"><ele>545.0</ele><time>2026-04-09T12:47:15.999Z</time></trkpt><trkpt lat="44.20468207462087" lon="9.592192509952604"><ele>545.0</ele><time>2026-04-09T12:47:16.999Z</time></trkpt><trkpt lat="44.20467748504919" lon="9.592029376129698"><ele>545.0</ele><time>2026-04-09T12:47:17.999Z</time></trkpt><trkpt lat="44.204620580176815" lon="9.591877694497725"><ele>542.5</ele><time>2026-04-09T12:47:18.999Z</time></trkpt><trkpt lat="44.20456639696869" lon="9.591740280546812"><ele>540.0</ele><time>2026-04-09T12:47:19.999Z</time></trkpt><trkpt lat="44.204578208090105" lon="9.591593045573644"><ele>537.5</ele><time>2026-04-09T12:47:20.999Z</time></trkpt><trkpt lat="44.20465026119573" lon="9.59145747425175"><ele>535.0</ele><time>2026-04-09T12:47:21.999Z</time></trkpt><trkpt lat="44.20475297641446" lon="9.591344010294991"><ele>539.25</ele><time>2026-04-09T12:47:22.999Z</time></trkpt><trkpt lat="44.20486990917681" lon="9.591245914616954"><ele>543.5</ele><time>2026-04-09T12:47:23.999Z</time></trkpt><trkpt lat="44.2049960146325" lon="9.591233386693492"><ele>547.75</ele><time>2026-04-09T12:47:24.999Z</time></trkpt><trkpt lat="44.20513226729563" lon="9.591255180314223"><ele>552.0</ele><time>2026-04-09T12:47:25.999Z</time></trkpt><trkpt lat="44.20526223753717" lon="9.5912067239107"><ele>550.8000000000001</ele><time>2026-04-09T12:47:26.999Z</time></trkpt><trkpt lat="44.20535742098684" lon="9.591086489127647"><ele>549.6</ele><time>2026-04-09T12:47:27.999Z</time></trkpt><trkpt lat="44.205401881645464" lon="9.590951779677926"><ele>548.4000000000001</ele><time>2026-04-09T12:47:28.999Z</time></trkpt><trkpt lat="44.20544636965195" lon="9.590888826475505"><ele>547.2</ele><time>2026-04-09T12:47:29.999Z</time></trkpt><trkpt lat="44.20549613508998" lon="9.591051129901276"><ele>546.0</ele><time>2026-04-09T12:47:31.999Z</time></trkpt><trkpt lat="44.205462747477156" lon="9.59115295837694"><ele>547.2</ele><time>2026-04-09T12:47:32.999Z</time></trkpt><trkpt lat="44.205416247370934" lon="9.5912651975056"><ele>548.4000000000001</ele><time>2026-04-09T12:47:33.999Z</time></trkpt><trkpt lat="44.20539129872928" lon="9.591392207700709"><ele>549.6</ele><time>2026-04-09T12:47:34.999Z</time></trkpt><trkpt lat="44.20537783728264" lon="9.591540622813486"><ele>550.8000000000001</ele><time>2026-04-09T12:47:35.999Z</time></trkpt><trkpt lat="44.20539350436856" lon="9.591689926064792"><ele>552.0</ele><time>2026-04-09T12:47:36.999Z</time></trkpt><trkpt lat="44.20542159789272" lon="9.591840455529905"><ele>552.6</ele><time>2026-04-09T12:47:37.999Z</time></trkpt><trkpt lat="44.205447036343195" lon="9.59201082272041"><ele>553.2</ele><time>2026-04-09T12:47:38.999Z</time></trkpt><trkpt lat="44.205445039993606" lon="9.592155447786258"><ele>553.8</ele><time>2026-04-09T12:47:39.999Z</time></trkpt><trkpt lat="44.205477583736524" lon="9.59223434299711"><ele>554.4</ele><time>2026-04-09T12:47:40.999Z</time></trkpt><trkpt lat="44.205549749655844" lon="9.592241577921612"><ele>555.0</ele><time>2026-04-09T12:47:41.999Z</time></trkpt><trkpt lat="44.20562144628413" lon="9.592150380042797"><ele>554.4</ele><time>2026-04-09T12:47:42.999Z</time></trkpt><trkpt lat="44.205638875854945" lon="9.591999711878465"><ele>553.8</ele><time>2026-04-09T12:47:43.999Z</time></trkpt><trkpt lat="44.20562008073631" lon="9.591852268716284"><ele>553.2</ele><time>2026-04-09T12:47:44.999Z</time></trkpt><trkpt lat="44.205618468346316" lon="9.591706127929658"><ele>552.6</ele><time>2026-04-09T12:47:45.999Z</time></trkpt><trkpt lat="44.20565367669675" lon="9.591569384186878"><ele>552.0</ele><time>2026-04-09T12:47:46.999Z</time></trkpt><trkpt lat="44.20571060804453" lon="9.591429247237063"><ele>554.25</ele><time>2026-04-09T12:47:47.999Z</time></trkpt><trkpt lat="44.205784367467" lon="9.591295402323055"><ele>556.5</ele><time>2026-04-09T12:47:48.999Z</time></trkpt><trkpt lat="44.20586898942628" lon="9.59116643633839"><ele>558.75</ele><time>2026-04-09T12:47:49.999Z</time></trkpt><trkpt lat="44.205965710909624" lon="9.591049212951615"><ele>561.0</ele><time>2026-04-09T12:47:50.999Z</time></trkpt><trkpt lat="44.206084480540774" lon="9.590954484367051"><ele>561.0</ele><time>2026-04-09T12:47:51.999Z</time></trkpt><trkpt lat="44.20621076978751" lon="9.590889448550188"><ele>561.0</ele><time>2026-04-09T12:47:52.999Z</time></trkpt><trkpt lat="44.20635568517486" lon="9.590874382890867"><ele>561.0</ele><time>2026-04-09T12:47:53.999Z</time></trkpt><trkpt lat="44.20651131513579" lon="9.590888835955594"><ele>561.0</ele><time>2026-04-09T12:47:54.999Z</time></trkpt><trkpt lat="44.206662603334706" lon="9.590941434520841"><ele>565.0</ele><time>2026-04-09T12:47:55.999Z</time></trkpt><trkpt lat="44.20680785231275" lon="9.591011576429821"><ele>569.0</ele><time>2026-04-09T12:47:56.999Z</time></trkpt><trkpt lat="44.20695139544932" lon="9.591069862784181"><ele>573.0</ele><time>2026-04-09T12:47:57.999Z</time></trkpt><trkpt lat="44.207098178102925" lon="9.591118423546483"><ele>573.0</ele><time>2026-04-09T12:47:58.999Z</time></trkpt><trkpt lat="44.207258924927665" lon="9.591120741349934"><ele>573.0</ele><time>2026-04-09T12:47:59.999Z</time></trkpt><trkpt lat="44.207420215871814" lon="9.591078094148003"><ele>573.0</ele><time>2026-04-09T12:48:00.999Z</time></trkpt><trkpt lat="44.20757498504675" lon="9.591014778216339"><ele>575.0</ele><time>2026-04-09T12:48:01.999Z</time></trkpt><trkpt lat="44.207735868951154" lon="9.590985835698973"><ele>577.0</ele><time>2026-04-09T12:48:02.999Z</time></trkpt><trkpt lat="44.207893530523435" lon="9.591028626109347"><ele>579.0</ele><time>2026-04-09T12:48:03.998Z</time></trkpt><trkpt lat="44.20804663838645" lon="9.591124607868185"><ele>582.3333333333334</ele><time>2026-04-09T12:48:04.998Z</time></trkpt><trkpt lat="44.208187494995045" lon="9.591239513536827"><ele>585.6666666666667</ele><time>2026-04-09T12:48:05.998Z</time></trkpt><trkpt lat="44.20832425540207" lon="9.591341728640208"><ele>589.0</ele><time>2026-04-09T12:48:06.998Z</time></trkpt><trkpt lat="44.20841893972801" lon="9.591472267167621"><ele>589.0</ele><time>2026-04-09T12:48:07.998Z</time></trkpt><trkpt lat="44.208485031216966" lon="9.59163329418264"><ele>589.0</ele><time>2026-04-09T12:48:08.998Z</time></trkpt><trkpt lat="44.208511513213566" lon="9.591813776591913"><ele>589.0</ele><time>2026-04-09T12:48:09.998Z</time></trkpt><trkpt lat="44.20855186922324" lon="9.591966699234048"><ele>589.0</ele><time>2026-04-09T12:48:10.998Z</time></trkpt><trkpt lat="44.20864991047777" lon="9.592053619965782"><ele>589.6</ele><time>2026-04-09T12:48:11.998Z</time></trkpt><trkpt lat="44.20877957232665" lon="9.592087633940514"><ele>590.2</ele><time>2026-04-09T12:48:12.998Z</time></trkpt><trkpt lat="44.208911380739984" lon="9.592094525011309"><ele>590.8000000000001</ele><time>2026-04-09T12:48:13.998Z</time></trkpt><trkpt lat="44.20900665753109" lon="9.592040219321106"><ele>591.4</ele><time>2026-04-09T12:48:14.998Z</time></trkpt><trkpt lat="44.209058300576764" lon="9.591970575299788"><ele>592.0</ele><time>2026-04-09T12:48:15.998Z</time></trkpt><trkpt lat="44.209058603011044" lon="9.591830996441606"><ele>592.0</ele><time>2026-04-09T12:48:16.998Z</time></trkpt><trkpt lat="44.20901159987977" lon="9.591703330064151"><ele>592.0</ele><time>2026-04-09T12:48:17.998Z</time></trkpt><trkpt lat="44.208955833438345" lon="9.59158575791136"><ele>592.0</ele><time>2026-04-09T12:48:18.998Z</time></trkpt><trkpt lat="44.20896057357175" lon="9.59146860626857"><ele>592.0</ele><time>2026-04-09T12:48:19.998Z</time></trkpt><trkpt lat="44.20902053982861" lon="9.591350860123555"><ele>592.0</ele><time>2026-04-09T12:48:21Z</time></trkpt><trkpt lat="44.20911442048253" lon="9.591299443264695"><ele>592.0</ele><time>2026-04-09T12:48:22Z</time></trkpt><trkpt lat="44.20922188375937" lon="9.591281869614797"><ele>592.0</ele><time>2026-04-09T12:48:23Z</time></trkpt><trkpt lat="44.20933063597948" lon="9.591258858824233"><ele>592.0</ele><time>2026-04-09T12:48:24Z</time></trkpt><trkpt lat="44.20940612942597" lon="9.591141050151995"><ele>592.0</ele><time>2026-04-09T12:48:25Z</time></trkpt><trkpt lat="44.209423172981296" lon="9.590952882029914"><ele>590.6</ele><time>2026-04-09T12:48:26Z</time></trkpt><trkpt lat="44.20941910882782" lon="9.590794670736097"><ele>589.2</ele><time>2026-04-09T12:48:27Z</time></trkpt><trkpt lat="44.209470542764855" lon="9.590698911929739"><ele>587.8</ele><time>2026-04-09T12:48:28Z</time></trkpt><trkpt lat="44.20957048993312" lon="9.590706545200467"><ele>586.4</ele><time>2026-04-09T12:48:29Z</time></trkpt><trkpt lat="44.20967430996339" lon="9.590805568217855"><ele>585.0</ele><time>2026-04-09T12:48:30Z</time></trkpt><trkpt lat="44.20975535487754" lon="9.590926176591543"><ele>585.0</ele><time>2026-04-09T12:48:31Z</time></trkpt><trkpt lat="44.2098387973156" lon="9.59101347222297"><ele>585.0</ele><time>2026-04-09T12:48:32Z</time></trkpt><trkpt lat="44.209908807769565" lon="9.5910005329159"><ele>585.0</ele><time>2026-04-09T12:48:33Z</time></trkpt><trkpt lat="44.20995203110246" lon="9.59090912109791"><ele>585.0</ele><time>2026-04-09T12:48:34Z</time></trkpt><trkpt lat="44.209952296606815" lon="9.590778323338338"><ele>585.0</ele><time>2026-04-09T12:48:35Z</time></trkpt><trkpt lat="44.209896881557306" lon="9.59066118221839"><ele>585.0</ele><time>2026-04-09T12:48:36Z</time></trkpt><trkpt lat="44.20982236911803" lon="9.590556626519264"><ele>585.0</ele><time>2026-04-09T12:48:37Z</time></trkpt><trkpt lat="44.209754532611846" lon="9.590449717616892"><ele>585.0</ele><time>2026-04-09T12:48:38Z</time></trkpt><trkpt lat="44.2096867955503" lon="9.590333896379235"><ele>585.0</ele><time>2026-04-09T12:48:39Z</time></trkpt><trkpt lat="44.20960607761811" lon="9.590221953545853"><ele>585.0</ele><time>2026-04-09T12:48:40Z</time></trkpt><trkpt lat="44.209531785096615" lon="9.590113256061098"><ele>585.0</ele><time>2026-04-09T12:48:41Z</time></trkpt><trkpt lat="44.20948401199241" lon="9.590010228654608"><ele>585.3333333333334</ele><time>2026-04-09T12:48:42Z</time></trkpt><trkpt lat="44.209459252062054" lon="9.58990241684356"><ele>585.6666666666666</ele><time>2026-04-09T12:48:43Z</time></trkpt><trkpt lat="44.20944659790945" lon="9.589801827171682"><ele>586.0</ele><time>2026-04-09T12:48:44Z</time></trkpt><trkpt lat="44.20942574340592" lon="9.589704797678134"><ele>586.3333333333333</ele><time>2026-04-09T12:48:45Z</time></trkpt><trkpt lat="44.209395568801796" lon="9.58960219470886"><ele>586.6666666666666</ele><time>2026-04-09T12:48:46Z</time></trkpt><trkpt lat="44.209366571638895" lon="9.589491473790904"><ele>587.0</ele><time>2026-04-09T12:48:47Z</time></trkpt><trkpt lat="44.209335264229466" lon="9.589378705917015"><ele>589.2</ele><time>2026-04-09T12:48:48Z</time></trkpt><trkpt lat="44.209279160523984" lon="9.589275793196155"><ele>591.4000000000001</ele><time>2026-04-09T12:48:49Z</time></trkpt><trkpt lat="44.20920237814788" lon="9.589192763752159"><ele>593.5999999999999</ele><time>2026-04-09T12:48:50Z</time></trkpt><trkpt lat="44.20911531063302" lon="9.58911352473506"><ele>595.8</ele><time>2026-04-09T12:48:51Z</time></trkpt><trkpt lat="44.20904096843898" lon="9.589015836412935"><ele>598.0</ele><time>2026-04-09T12:48:52Z</time></trkpt><trkpt lat="44.20899318866141" lon="9.588882240684246"><ele>598.6</ele><time>2026-04-09T12:48:53Z</time></trkpt><trkpt lat="44.20898881956566" lon="9.58871377548554"><ele>599.1999999999999</ele><time>2026-04-09T12:48:54Z</time></trkpt><trkpt lat="44.209021304351424" lon="9.58855695172194"><ele>599.8</ele><time>2026-04-09T12:48:55Z</time></trkpt><trkpt lat="44.20908524627108" lon="9.588441124550721"><ele>600.4</ele><time>2026-04-09T12:48:56Z</time></trkpt><trkpt lat="44.20917162850115" lon="9.588388417803964"><ele>601.0</ele><time>2026-04-09T12:48:57Z</time></trkpt><trkpt lat="44.209266955720615" lon="9.588427677934785"><ele>601.0</ele><time>2026-04-09T12:48:58Z</time></trkpt><trkpt lat="44.2093578959884" lon="9.588502859806281"><ele>601.0</ele><time>2026-04-09T12:48:59Z</time></trkpt><trkpt lat="44.209445438375894" lon="9.588584708845026"><ele>601.0</ele><time>2026-04-09T12:49:00Z</time></trkpt><trkpt lat="44.209552744472695" lon="9.588631178838003"><ele>601.0</ele><time>2026-04-09T12:49:01Z</time></trkpt><trkpt lat="44.20965747667812" lon="9.588611195572142"><ele>601.0</ele><time>2026-04-09T12:49:02Z</time></trkpt><trkpt lat="44.20973520062903" lon="9.588500768432366"><ele>601.0</ele><time>2026-04-09T12:49:03Z</time></trkpt><trkpt lat="44.2097713158224" lon="9.588339116168658"><ele>601.0</ele><time>2026-04-09T12:49:04Z</time></trkpt><trkpt lat="44.20978800393954" lon="9.588185279015782"><ele>601.0</ele><time>2026-04-09T12:49:04.999Z</time></trkpt><trkpt lat="44.209816473936144" lon="9.58803874324141"><ele>601.0</ele><time>2026-04-09T12:49:05.999Z</time></trkpt><trkpt lat="44.20986457984437" lon="9.587891335356524"><ele>603.5</ele><time>2026-04-09T12:49:06.999Z</time></trkpt><trkpt lat="44.20992997904259" lon="9.587753874064033"><ele>606.0</ele><time>2026-04-09T12:49:07.999Z</time></trkpt><trkpt lat="44.21002838424881" lon="9.587641452844858"><ele>608.5</ele><time>2026-04-09T12:49:08.999Z</time></trkpt><trkpt lat="44.210145964508946" lon="9.587564327349494"><ele>611.0</ele><time>2026-04-09T12:49:09.999Z</time></trkpt><trkpt lat="44.2102694909243" lon="9.587492363483019"><ele>611.0</ele><time>2026-04-09T12:49:10.999Z</time></trkpt><trkpt lat="44.2103830377305" lon="9.587426989127483"><ele>611.0</ele><time>2026-04-09T12:49:11.999Z</time></trkpt><trkpt lat="44.21047097935767" lon="9.58743168877232"><ele>611.0</ele><time>2026-04-09T12:49:12.999Z</time></trkpt><trkpt lat="44.21052664278308" lon="9.587490152591956"><ele>611.0</ele><time>2026-04-09T12:49:13.999Z</time></trkpt><trkpt lat="44.210571530588226" lon="9.587612701476132"><ele>611.0</ele><time>2026-04-09T12:49:14.999Z</time></trkpt><trkpt lat="44.21060394819766" lon="9.587739206868408"><ele>611.2</ele><time>2026-04-09T12:49:15.999Z</time></trkpt><trkpt lat="44.21066955180543" lon="9.587833341804387"><ele>611.4000000000001</ele><time>2026-04-09T12:49:16.999Z</time></trkpt><trkpt lat="44.21076514780707" lon="9.587891703558023"><ele>611.6</ele><time>2026-04-09T12:49:17.999Z</time></trkpt><trkpt lat="44.21087204732456" lon="9.58794589323272"><ele>611.8000000000001</ele><time>2026-04-09T12:49:18.999Z</time></trkpt><trkpt lat="44.2109868067636" lon="9.58799718017856"><ele>612.0</ele><time>2026-04-09T12:49:19.999Z</time></trkpt><trkpt lat="44.21111082118078" lon="9.588016166846911"><ele>614.25</ele><time>2026-04-09T12:49:20.999Z</time></trkpt><trkpt lat="44.2112471664204" lon="9.587995033321098"><ele>616.5</ele><time>2026-04-09T12:49:21.999Z</time></trkpt><trkpt lat="44.21138662356896" lon="9.587964302483567"><ele>618.75</ele><time>2026-04-09T12:49:22.999Z</time></trkpt><trkpt lat="44.21152623003364" lon="9.587927777970325"><ele>621.0</ele><time>2026-04-09T12:49:23.999Z</time></trkpt><trkpt lat="44.21164146348282" lon="9.587853422667612"><ele>620.0</ele><time>2026-04-09T12:49:24.999Z</time></trkpt><trkpt lat="44.21171512192139" lon="9.587714207312215"><ele>619.0</ele><time>2026-04-09T12:49:25.999Z</time></trkpt><trkpt lat="44.21177781469458" lon="9.587560649029516"><ele>618.0</ele><time>2026-04-09T12:49:26.999Z</time></trkpt><trkpt lat="44.21187416911248" lon="9.58747932399081"><ele>617.0</ele><time>2026-04-09T12:49:27.999Z</time></trkpt><trkpt lat="44.21201084638816" lon="9.587489821541439"><ele>617.0</ele><time>2026-04-09T12:49:28.999Z</time></trkpt><trkpt lat="44.21211844342434" lon="9.587493620265596"><ele>617.0</ele><time>2026-04-09T12:49:29.999Z</time></trkpt><trkpt lat="44.212175219441264" lon="9.58741994033701"><ele>617.0</ele><time>2026-04-09T12:49:30.999Z</time></trkpt><trkpt lat="44.212176749479774" lon="9.587269462635009"><ele>617.0</ele><time>2026-04-09T12:49:31.999Z</time></trkpt><trkpt lat="44.21213730864815" lon="9.587115831048152"><ele>617.0</ele><time>2026-04-09T12:49:32.999Z</time></trkpt><trkpt lat="44.212065685483154" lon="9.586986802652651"><ele>616.75</ele><time>2026-04-09T12:49:33.999Z</time></trkpt><trkpt lat="44.211996939542324" lon="9.586861322826769"><ele>616.5</ele><time>2026-04-09T12:49:34.999Z</time></trkpt><trkpt lat="44.21194150759456" lon="9.586720006632975"><ele>616.25</ele><time>2026-04-09T12:49:35.999Z</time></trkpt><trkpt lat="44.2118774545921" lon="9.586569730487364"><ele>616.0</ele><time>2026-04-09T12:49:36.999Z</time></trkpt><trkpt lat="44.2118138498175" lon="9.586416865072088"><ele>616.0</ele><time>2026-04-09T12:49:37.999Z</time></trkpt><trkpt lat="44.211765492653576" lon="9.586291312860764"><ele>616.0</ele><time>2026-04-09T12:49:38.999Z</time></trkpt><trkpt lat="44.21176578522312" lon="9.586194918611476"><ele>616.0</ele><time>2026-04-09T12:49:39.999Z</time></trkpt><trkpt lat="44.21180134820897" lon="9.586092309099623"><ele>616.0</ele><time>2026-04-09T12:49:40.999Z</time></trkpt><trkpt lat="44.21187273794631" lon="9.585985810672812"><ele>616.0</ele><time>2026-04-09T12:49:41.999Z</time></trkpt><trkpt lat="44.2119347702023" lon="9.58585901043396"><ele>616.25</ele><time>2026-04-09T12:49:42.999Z</time></trkpt><trkpt lat="44.21198804319112" lon="9.585728870538778"><ele>616.5</ele><time>2026-04-09T12:49:43.999Z</time></trkpt><trkpt lat="44.21204740614846" lon="9.585584084938514"><ele>616.75</ele><time>2026-04-09T12:49:44.999Z</time></trkpt><trkpt lat="44.212110252152485" lon="9.585437451432808"><ele>617.0</ele><time>2026-04-09T12:49:45.999Z</time></trkpt><trkpt lat="44.21218269914945" lon="9.58529058724414"><ele>618.75</ele><time>2026-04-09T12:49:46.999Z</time></trkpt><trkpt lat="44.21225451830994" lon="9.585138113041035"><ele>620.5</ele><time>2026-04-09T12:49:47.999Z</time></trkpt><trkpt lat="44.212335573199596" lon="9.584966621186235"><ele>622.25</ele><time>2026-04-09T12:49:48.999Z</time></trkpt><trkpt lat="44.21241699849809" lon="9.584779951342236"><ele>624.0</ele><time>2026-04-09T12:49:49.999Z</time></trkpt><trkpt lat="44.21250275900653" lon="9.584618708447366"><ele>620.6</ele><time>2026-04-09T12:49:50.999Z</time></trkpt><trkpt lat="44.21259239033313" lon="9.584495167064174"><ele>617.2</ele><time>2026-04-09T12:49:51.999Z</time></trkpt><trkpt lat="44.21266548348318" lon="9.584392510950298"><ele>613.8000000000001</ele><time>2026-04-09T12:49:52.999Z</time></trkpt><trkpt lat="44.21271497146669" lon="9.58432537647733"><ele>610.4</ele><time>2026-04-09T12:49:53.999Z</time></trkpt><trkpt lat="44.21277338955519" lon="9.58427401234356"><ele>607.0</ele><time>2026-04-09T12:49:54.999Z</time></trkpt><trkpt lat="44.212863447192824" lon="9.584252965677488"><ele>607.0</ele><time>2026-04-09T12:49:56.999Z</time></trkpt><trkpt lat="44.212891508031305" lon="9.584150816704831"><ele>607.0</ele><time>2026-04-09T12:50:11.998Z</time></trkpt><trkpt lat="44.212933966359344" lon="9.584283910025569"><ele>607.0</ele><time>2026-04-09T12:51:53.999Z</time></trkpt><trkpt lat="44.21296234970376" lon="9.584367696003007"><ele>607.0</ele><time>2026-04-09T12:51:54.999Z</time></trkpt><trkpt lat="44.21300240307445" lon="9.584464519409503"><ele>607.0</ele><time>2026-04-09T12:51:55.999Z</time></trkpt><trkpt lat="44.21308815704286" lon="9.584521209795797"><ele>607.0</ele><time>2026-04-09T12:51:56.999Z</time></trkpt><trkpt lat="44.21318226889899" lon="9.584493301681727"><ele>609.25</ele><time>2026-04-09T12:51:57.999Z</time></trkpt><trkpt lat="44.2132699317105" lon="9.584390657125255"><ele>611.5</ele><time>2026-04-09T12:51:58.999Z</time></trkpt><trkpt lat="44.213338007219136" lon="9.584237593355333"><ele>613.75</ele><time>2026-04-09T12:51:59.999Z</time></trkpt><trkpt lat="44.21342200825798" lon="9.584113213928884"><ele>616.0</ele><time>2026-04-09T12:52:00.999Z</time></trkpt><trkpt lat="44.21350662670259" lon="9.583978382170681"><ele>616.0</ele><time>2026-04-09T12:52:01.999Z</time></trkpt><trkpt lat="44.21360426410432" lon="9.58385783632404"><ele>616.0</ele><time>2026-04-09T12:52:02.999Z</time></trkpt><trkpt lat="44.213711974427206" lon="9.583757395075871"><ele>616.0</ele><time>2026-04-09T12:52:03.999Z</time></trkpt><trkpt lat="44.2138197823325" lon="9.58364171171652"><ele>616.0</ele><time>2026-04-09T12:52:04.999Z</time></trkpt><trkpt lat="44.21392097263904" lon="9.583614950461273"><ele>618.4</ele><time>2026-04-09T12:52:05.999Z</time></trkpt><trkpt lat="44.21401127933158" lon="9.583618181862777"><ele>620.8</ele><time>2026-04-09T12:52:06.999Z</time></trkpt><trkpt lat="44.21410975732597" lon="9.583670408460954"><ele>623.1999999999999</ele><time>2026-04-09T12:52:07.999Z</time></trkpt><trkpt lat="44.21421800247644" lon="9.583728755968322"><ele>625.6</ele><time>2026-04-09T12:52:08.999Z</time></trkpt><trkpt lat="44.21434010747962" lon="9.58378384127125"><ele>628.0</ele><time>2026-04-09T12:52:09.999Z</time></trkpt><trkpt lat="44.214464422786094" lon="9.583857910291222"><ele>628.0</ele><time>2026-04-09T12:52:10.999Z</time></trkpt><trkpt lat="44.21459334426864" lon="9.58394679709328"><ele>628.0</ele><time>2026-04-09T12:52:11.999Z</time></trkpt><trkpt lat="44.2147251742697" lon="9.584025370711252"><ele>628.0</ele><time>2026-04-09T12:52:12.999Z</time></trkpt><trkpt lat="44.21486295488776" lon="9.584107313225523"><ele>628.0</ele><time>2026-04-09T12:52:13.999Z</time></trkpt><trkpt lat="44.21501438108906" lon="9.584184308764614"><ele>629.75</ele><time>2026-04-09T12:52:14.999Z</time></trkpt><trkpt lat="44.21515839602148" lon="9.584265535236543"><ele>631.5</ele><time>2026-04-09T12:52:15.999Z</time></trkpt><trkpt lat="44.215273647822045" lon="9.584327339182643"><ele>633.25</ele><time>2026-04-09T12:52:16.998Z</time></trkpt><trkpt lat="44.215359226949595" lon="9.584406398561343"><ele>635.0</ele><time>2026-04-09T12:52:17.998Z</time></trkpt><trkpt lat="44.21542873824211" lon="9.584559232971648"><ele>635.0</ele><time>2026-04-09T12:52:18.998Z</time></trkpt><trkpt lat="44.21543225739222" lon="9.584752175915854"><ele>635.0</ele><time>2026-04-09T12:52:19.998Z</time></trkpt><trkpt lat="44.21549110417397" lon="9.584916161704442"><ele>635.0</ele><time>2026-04-09T12:52:20.998Z</time></trkpt><trkpt lat="44.21555582060697" lon="9.585086854372262"><ele>635.0</ele><time>2026-04-09T12:52:21.998Z</time></trkpt><trkpt lat="44.215648214897115" lon="9.58524790557373"><ele>633.6</ele><time>2026-04-09T12:52:22.998Z</time></trkpt><trkpt lat="44.21572673149966" lon="9.58540724969256"><ele>632.2</ele><time>2026-04-09T12:52:23.998Z</time></trkpt><trkpt lat="44.21578043516327" lon="9.5855217524828"><ele>630.8</ele><time>2026-04-09T12:52:24.998Z</time></trkpt><trkpt lat="44.21585192360969" lon="9.585569971603727"><ele>629.4</ele><time>2026-04-09T12:52:26.998Z</time></trkpt><trkpt lat="44.215793123599454" lon="9.585521298084446"><ele>628.0</ele><time>2026-04-09T12:52:41.999Z</time></trkpt><trkpt lat="44.21588061132607" lon="9.585569962467458"><ele>628.0</ele><time>2026-04-09T12:53:23.999Z</time></trkpt><trkpt lat="44.21596442223437" lon="9.585532006703112"><ele>628.0</ele><time>2026-04-09T12:53:26.999Z</time></trkpt><trkpt lat="44.21606852458694" lon="9.585468048905431"><ele>628.0</ele><time>2026-04-09T12:53:28.999Z</time></trkpt><trkpt lat="44.21614388948158" lon="9.585426437792272"><ele>628.0</ele><time>2026-04-09T12:53:29.999Z</time></trkpt><trkpt lat="44.216245497530736" lon="9.585395749142284"><ele>628.0</ele><time>2026-04-09T12:53:30.999Z</time></trkpt><trkpt lat="44.216341641284295" lon="9.585369318648352"><ele>627.4</ele><time>2026-04-09T12:53:31.999Z</time></trkpt><trkpt lat="44.21644021381618" lon="9.585341262970685"><ele>626.8</ele><time>2026-04-09T12:53:32.999Z</time></trkpt><trkpt lat="44.21655633354199" lon="9.585311144830811"><ele>626.2</ele><time>2026-04-09T12:53:33.999Z</time></trkpt><trkpt lat="44.216663133882825" lon="9.585302239162269"><ele>625.6</ele><time>2026-04-09T12:53:34.999Z</time></trkpt><trkpt lat="44.21676848549832" lon="9.58532279016959"><ele>625.0</ele><time>2026-04-09T12:53:35.999Z</time></trkpt><trkpt lat="44.21688561501661" lon="9.585372722829277"><ele>625.0</ele><time>2026-04-09T12:53:36.999Z</time></trkpt><trkpt lat="44.21699492571128" lon="9.585451794942374"><ele>625.0</ele><time>2026-04-09T12:53:37.999Z</time></trkpt><trkpt lat="44.21710828760985" lon="9.585500276299655"><ele>625.0</ele><time>2026-04-09T12:53:38.999Z</time></trkpt><trkpt lat="44.21724811300369" lon="9.585503793438107"><ele>625.0</ele><time>2026-04-09T12:53:39.999Z</time></trkpt><trkpt lat="44.217346569205944" lon="9.585512184021253"><ele>620.4</ele><time>2026-04-09T12:53:40.999Z</time></trkpt><trkpt lat="44.21742564935085" lon="9.585561676464875"><ele>615.8</ele><time>2026-04-09T12:53:41.999Z</time></trkpt><trkpt lat="44.21749168960468" lon="9.585722024812902"><ele>611.2</ele><time>2026-04-09T12:53:42.999Z</time></trkpt><trkpt lat="44.21750958165024" lon="9.585846105000691"><ele>606.6</ele><time>2026-04-09T12:53:43.999Z</time></trkpt><trkpt lat="44.21753787881162" lon="9.586002540889105"><ele>602.0</ele><time>2026-04-09T12:53:44.999Z</time></trkpt><trkpt lat="44.21759714335372" lon="9.58616590397113"><ele>606.25</ele><time>2026-04-09T12:53:45.999Z</time></trkpt><trkpt lat="44.21765556754732" lon="9.586337931325943"><ele>610.5</ele><time>2026-04-09T12:53:46.999Z</time></trkpt><trkpt lat="44.21772486936076" lon="9.586511525418503"><ele>614.75</ele><time>2026-04-09T12:53:47.999Z</time></trkpt><trkpt lat="44.217806021527224" lon="9.586695292733094"><ele>619.0</ele><time>2026-04-09T12:53:48.999Z</time></trkpt><trkpt lat="44.217850823438354" lon="9.586868224790367"><ele>620.75</ele><time>2026-04-09T12:53:49.999Z</time></trkpt><trkpt lat="44.21785370360534" lon="9.587057297363934"><ele>622.5</ele><time>2026-04-09T12:53:50.999Z</time></trkpt><trkpt lat="44.217821965745685" lon="9.587251519586676"><ele>624.25</ele><time>2026-04-09T12:53:51.999Z</time></trkpt><trkpt lat="44.217771853565395" lon="9.587455486022952"><ele>626.0</ele><time>2026-04-09T12:53:52.999Z</time></trkpt><trkpt lat="44.2177261177672" lon="9.58765169434559"><ele>626.0</ele><time>2026-04-09T12:53:53.999Z</time></trkpt><trkpt lat="44.21767628251421" lon="9.587827774442859"><ele>626.0</ele><time>2026-04-09T12:53:54.999Z</time></trkpt><trkpt lat="44.21764595893109" lon="9.587973126577474"><ele>626.0</ele><time>2026-04-09T12:53:55.999Z</time></trkpt><trkpt lat="44.217656653959324" lon="9.58808828560041"><ele>626.0</ele><time>2026-04-09T12:53:56.999Z</time></trkpt><trkpt lat="44.21772699686175" lon="9.588185197710601"><ele>626.0</ele><time>2026-04-09T12:53:57.999Z</time></trkpt><trkpt lat="44.217838983567205" lon="9.588204728402628"><ele>626.25</ele><time>2026-04-09T12:53:58.999Z</time></trkpt><trkpt lat="44.217956299690066" lon="9.588174924717224"><ele>626.5</ele><time>2026-04-09T12:53:59.999Z</time></trkpt><trkpt lat="44.21807009330446" lon="9.58814629554555"><ele>626.75</ele><time>2026-04-09T12:54:00.999Z</time></trkpt><trkpt lat="44.21819035561953" lon="9.588125451993152"><ele>627.0</ele><time>2026-04-09T12:54:01.999Z</time></trkpt><trkpt lat="44.21831854305772" lon="9.588096970091883"><ele>623.5</ele><time>2026-04-09T12:54:02.999Z</time></trkpt><trkpt lat="44.218450254451184" lon="9.588029235376732"><ele>620.0</ele><time>2026-04-09T12:54:03.999Z</time></trkpt><trkpt lat="44.218554338016745" lon="9.587949788162387"><ele>616.5</ele><time>2026-04-09T12:54:04.999Z</time></trkpt><trkpt lat="44.218663998047404" lon="9.587859077816118"><ele>613.0</ele><time>2026-04-09T12:54:05.999Z</time></trkpt><trkpt lat="44.21876757697401" lon="9.587757043201918"><ele>606.5</ele><time>2026-04-09T12:54:06.999Z</time></trkpt><trkpt lat="44.218882459989864" lon="9.587707870042927"><ele>600.0</ele><time>2026-04-09T12:54:07.999Z</time></trkpt><trkpt lat="44.219007040392384" lon="9.587718160589443"><ele>593.5</ele><time>2026-04-09T12:54:08.999Z</time></trkpt><trkpt lat="44.21912542879158" lon="9.587712209735903"><ele>587.0</ele><time>2026-04-09T12:54:09.999Z</time></trkpt><trkpt lat="44.21923819658341" lon="9.587755529029394"><ele>586.5</ele><time>2026-04-09T12:54:10.999Z</time></trkpt><trkpt lat="44.21934106164021" lon="9.58784167264309"><ele>586.0</ele><time>2026-04-09T12:54:11.999Z</time></trkpt><trkpt lat="44.219433535662965" lon="9.587959463257047"><ele>585.5</ele><time>2026-04-09T12:54:12.998Z</time></trkpt><trkpt lat="44.2195189994337" lon="9.58808391334035"><ele>585.0</ele><time>2026-04-09T12:54:13.998Z</time></trkpt><trkpt lat="44.219609351862964" lon="9.588201018293462"><ele>590.0</ele><time>2026-04-09T12:54:14.998Z</time></trkpt><trkpt lat="44.21973143421287" lon="9.58827674683677"><ele>595.0</ele><time>2026-04-09T12:54:15.998Z</time></trkpt><trkpt lat="44.2198807519993" lon="9.588278499060715"><ele>600.0</ele><time>2026-04-09T12:54:16.998Z</time></trkpt><trkpt lat="44.220033722426884" lon="9.58824796595181"><ele>605.0</ele><time>2026-04-09T12:54:17.998Z</time></trkpt><trkpt lat="44.220188878151205" lon="9.588282571265461"><ele>605.0</ele><time>2026-04-09T12:54:18.998Z</time></trkpt><trkpt lat="44.22035336868288" lon="9.58829122299105"><ele>605.0</ele><time>2026-04-09T12:54:19.998Z</time></trkpt><trkpt lat="44.22052195659272" lon="9.588328387895888"><ele>605.0</ele><time>2026-04-09T12:54:20.998Z</time></trkpt><trkpt lat="44.2207005194373" lon="9.58836240576892"><ele>603.0</ele><time>2026-04-09T12:54:21.998Z</time></trkpt><trkpt lat="44.22084068235768" lon="9.588380017141889"><ele>601.0</ele><time>2026-04-09T12:54:22.998Z</time></trkpt><trkpt lat="44.22095678340046" lon="9.588406487674447"><ele>599.0</ele><time>2026-04-09T12:54:23.998Z</time></trkpt><trkpt lat="44.221050134883164" lon="9.588459587513496"><ele>597.0</ele><time>2026-04-09T12:54:24.998Z</time></trkpt><trkpt lat="44.2211212428365" lon="9.588600214134612"><ele>602.5</ele><time>2026-04-09T12:54:25.998Z</time></trkpt><trkpt lat="44.22120590367952" lon="9.58875032118626"><ele>608.0</ele><time>2026-04-09T12:54:26.998Z</time></trkpt><trkpt lat="44.221270779661836" lon="9.5889366027435"><ele>613.5</ele><time>2026-04-09T12:54:27.998Z</time></trkpt><trkpt lat="44.22133997739353" lon="9.58912417357938"><ele>619.0</ele><time>2026-04-09T12:54:28.998Z</time></trkpt><trkpt lat="44.22142048400125" lon="9.589322039287238"><ele>615.0</ele><time>2026-04-09T12:54:29.998Z</time></trkpt><trkpt lat="44.22152680224752" lon="9.589501781153086"><ele>611.0</ele><time>2026-04-09T12:54:30.998Z</time></trkpt><trkpt lat="44.2216671940891" lon="9.58965549600653"><ele>607.0</ele><time>2026-04-09T12:54:31.998Z</time></trkpt><trkpt lat="44.22180551600656" lon="9.589814728719489"><ele>607.0</ele><time>2026-04-09T12:54:32.998Z</time></trkpt><trkpt lat="44.221931032129476" lon="9.589998671270875"><ele>607.0</ele><time>2026-04-09T12:54:33.998Z</time></trkpt><trkpt lat="44.22205393785028" lon="9.590184770281642"><ele>607.0</ele><time>2026-04-09T12:54:34.998Z</time></trkpt><trkpt lat="44.222159690891516" lon="9.590339947126466"><ele>608.5</ele><time>2026-04-09T12:54:35.998Z</time></trkpt><trkpt lat="44.22223598142405" lon="9.590496673377963"><ele>610.0</ele><time>2026-04-09T12:54:36.998Z</time></trkpt><trkpt lat="44.22224042881148" lon="9.590700300151791"><ele>611.5</ele><time>2026-04-09T12:54:37.998Z</time></trkpt><trkpt lat="44.22226193726276" lon="9.590883832978147"><ele>613.0</ele><time>2026-04-09T12:54:39Z</time></trkpt><trkpt lat="44.222259291155495" lon="9.591035797953316"><ele>613.0</ele><time>2026-04-09T12:54:40Z</time></trkpt><trkpt lat="44.222287970149885" lon="9.591165362919579"><ele>613.0</ele><time>2026-04-09T12:54:41Z</time></trkpt><trkpt lat="44.222370688857985" lon="9.59125636731439"><ele>613.0</ele><time>2026-04-09T12:54:42Z</time></trkpt><trkpt lat="44.222489334457784" lon="9.591280976107914"><ele>613.0</ele><time>2026-04-09T12:54:43Z</time></trkpt><trkpt lat="44.22261454095091" lon="9.591245876371415"><ele>609.0</ele><time>2026-04-09T12:54:44Z</time></trkpt><trkpt lat="44.22272761260864" lon="9.591204079463296"><ele>605.0</ele><time>2026-04-09T12:54:45Z</time></trkpt><trkpt lat="44.22284260717285" lon="9.59125963358254"><ele>601.0</ele><time>2026-04-09T12:54:46Z</time></trkpt><trkpt lat="44.22296798995931" lon="9.591316021085039"><ele>597.0</ele><time>2026-04-09T12:54:47Z</time></trkpt><trkpt lat="44.223106003093164" lon="9.591374448816696"><ele>596.5</ele><time>2026-04-09T12:54:48Z</time></trkpt><trkpt lat="44.22324227545632" lon="9.591414685962642"><ele>596.0</ele><time>2026-04-09T12:54:49Z</time></trkpt><trkpt lat="44.223382448609605" lon="9.591413312001327"><ele>595.5</ele><time>2026-04-09T12:54:50Z</time></trkpt><trkpt lat="44.22352761575589" lon="9.591369157824541"><ele>595.0</ele><time>2026-04-09T12:54:51Z</time></trkpt><trkpt lat="44.22367134574797" lon="9.591283781082373"><ele>595.0</ele><time>2026-04-09T12:54:52Z</time></trkpt><trkpt lat="44.22380635185358" lon="9.591174550382975"><ele>595.0</ele><time>2026-04-09T12:54:53Z</time></trkpt><trkpt lat="44.2239547333539" lon="9.5910878614711"><ele>595.0</ele><time>2026-04-09T12:54:54Z</time></trkpt><trkpt lat="44.22409747523686" lon="9.591002089041574"><ele>594.6666666666667</ele><time>2026-04-09T12:54:55Z</time></trkpt><trkpt lat="44.22424960611168" lon="9.590892475757855"><ele>594.3333333333334</ele><time>2026-04-09T12:54:56Z</time></trkpt><trkpt lat="44.22439561658235" lon="9.590821646004615"><ele>594.0</ele><time>2026-04-09T12:54:57Z</time></trkpt><trkpt lat="44.22453516265964" lon="9.590793564821467"><ele>594.0</ele><time>2026-04-09T12:54:58Z</time></trkpt><trkpt lat="44.22464297780986" lon="9.590710967835253"><ele>594.0</ele><time>2026-04-09T12:54:59Z</time></trkpt><trkpt lat="44.2247390669903" lon="9.590577646386086"><ele>594.0</ele><time>2026-04-09T12:55:00Z</time></trkpt><trkpt lat="44.22482628924914" lon="9.590407406363893"><ele>594.0</ele><time>2026-04-09T12:55:01Z</time></trkpt><trkpt lat="44.224948065711224" lon="9.59030289825074"><ele>593.25</ele><time>2026-04-09T12:55:02Z</time></trkpt><trkpt lat="44.22505967699878" lon="9.590237121226782"><ele>592.5</ele><time>2026-04-09T12:55:03Z</time></trkpt><trkpt lat="44.22520396936157" lon="9.590184856630591"><ele>591.75</ele><time>2026-04-09T12:55:04Z</time></trkpt><trkpt lat="44.22532580354572" lon="9.590164271767682"><ele>591.0</ele><time>2026-04-09T12:55:05Z</time></trkpt><trkpt lat="44.22544626376843" lon="9.590164760072513"><ele>591.0</ele><time>2026-04-09T12:55:06Z</time></trkpt><trkpt lat="44.22559369270609" lon="9.590167112821701"><ele>591.0</ele><time>2026-04-09T12:55:07Z</time></trkpt><trkpt lat="44.22573555862647" lon="9.590146019364376"><ele>591.0</ele><time>2026-04-09T12:55:08Z</time></trkpt><trkpt lat="44.22588280656058" lon="9.59013627552539"><ele>591.0</ele><time>2026-04-09T12:55:09Z</time></trkpt><trkpt lat="44.226024250704924" lon="9.590079047449008"><ele>591.25</ele><time>2026-04-09T12:55:10Z</time></trkpt><trkpt lat="44.22615594120767" lon="9.590085103115538"><ele>591.5</ele><time>2026-04-09T12:55:11Z</time></trkpt><trkpt lat="44.226279691548235" lon="9.590123222870545"><ele>591.75</ele><time>2026-04-09T12:55:12Z</time></trkpt><trkpt lat="44.22641858873189" lon="9.590164942679271"><ele>592.0</ele><time>2026-04-09T12:55:13Z</time></trkpt><trkpt lat="44.22656879793002" lon="9.590184077275051"><ele>593.0</ele><time>2026-04-09T12:55:14Z</time></trkpt><trkpt lat="44.22671361544893" lon="9.590169973997996"><ele>594.0</ele><time>2026-04-09T12:55:15Z</time></trkpt><trkpt lat="44.22686003721783" lon="9.590096548558229"><ele>595.0</ele><time>2026-04-09T12:55:16Z</time></trkpt><trkpt lat="44.22700253476314" lon="9.590028708909816"><ele>595.0</ele><time>2026-04-09T12:55:17Z</time></trkpt><trkpt lat="44.2271392062405" lon="9.589970215369727"><ele>595.0</ele><time>2026-04-09T12:55:18Z</time></trkpt><trkpt lat="44.22724071333461" lon="9.589925441497273"><ele>595.0</ele><time>2026-04-09T12:55:19Z</time></trkpt><trkpt lat="44.22729913618938" lon="9.589790185500572"><ele>595.0</ele><time>2026-04-09T12:55:20Z</time></trkpt><trkpt lat="44.22730079599705" lon="9.589597561115259"><ele>594.75</ele><time>2026-04-09T12:55:21Z</time></trkpt><trkpt lat="44.22732102099704" lon="9.589421020604648"><ele>594.5</ele><time>2026-04-09T12:55:22Z</time></trkpt><trkpt lat="44.22740016129534" lon="9.589273029235773"><ele>594.25</ele><time>2026-04-09T12:55:22.999Z</time></trkpt><trkpt lat="44.22746065824003" lon="9.589101936812993"><ele>594.0</ele><time>2026-04-09T12:55:23.999Z</time></trkpt><trkpt lat="44.227533594356096" lon="9.588911649139982"><ele>594.0</ele><time>2026-04-09T12:55:24.999Z</time></trkpt><trkpt lat="44.227523605981936" lon="9.588707573975732"><ele>594.0</ele><time>2026-04-09T12:55:25.999Z</time></trkpt><trkpt lat="44.22754658859079" lon="9.588556063725855"><ele>594.0</ele><time>2026-04-09T12:55:26.999Z</time></trkpt><trkpt lat="44.227598785147876" lon="9.588462399367627"><ele>594.0</ele><time>2026-04-09T12:55:27.999Z</time></trkpt><trkpt lat="44.227686611230155" lon="9.588422310775787"><ele>594.0</ele><time>2026-04-09T12:55:28.999Z</time></trkpt><trkpt lat="44.227784137070124" lon="9.588444446743182"><ele>594.0</ele><time>2026-04-09T12:55:29.999Z</time></trkpt><trkpt lat="44.22786372023297" lon="9.58848360244288"><ele>594.0</ele><time>2026-04-09T12:55:30.999Z</time></trkpt><trkpt lat="44.22789620112638" lon="9.588622625443698"><ele>594.0</ele><time>2026-04-09T12:55:31.999Z</time></trkpt><trkpt lat="44.2279208130774" lon="9.588751695254198"><ele>594.0</ele><time>2026-04-09T12:55:32.999Z</time></trkpt><trkpt lat="44.22796329356949" lon="9.588890976101519"><ele>594.0</ele><time>2026-04-09T12:55:33.999Z</time></trkpt><trkpt lat="44.228014871262054" lon="9.589049226482153"><ele>594.0</ele><time>2026-04-09T12:55:34.999Z</time></trkpt><trkpt lat="44.228085031676" lon="9.589189571353183"><ele>594.0</ele><time>2026-04-09T12:55:35.999Z</time></trkpt><trkpt lat="44.22819125176738" lon="9.589292323756851"><ele>594.0</ele><time>2026-04-09T12:55:36.999Z</time></trkpt><trkpt lat="44.22831745467507" lon="9.58936801691612"><ele>594.0</ele><time>2026-04-09T12:55:37.999Z</time></trkpt><trkpt lat="44.22842103557329" lon="9.58946456980295"><ele>598.0</ele><time>2026-04-09T12:55:38.999Z</time></trkpt><trkpt lat="44.228516054029406" lon="9.589551351541987"><ele>602.0</ele><time>2026-04-09T12:55:39.999Z</time></trkpt><trkpt lat="44.22860873829132" lon="9.589661395933812"><ele>606.0</ele><time>2026-04-09T12:55:40.999Z</time></trkpt><trkpt lat="44.22872631062056" lon="9.589727490507059"><ele>610.0</ele><time>2026-04-09T12:55:41.999Z</time></trkpt><trkpt lat="44.22883731448492" lon="9.589811393720542"><ele>610.0</ele><time>2026-04-09T12:55:42.999Z</time></trkpt><trkpt lat="44.228952823962835" lon="9.589874313823831"><ele>610.0</ele><time>2026-04-09T12:55:43.999Z</time></trkpt><trkpt lat="44.22903668001589" lon="9.589895922387164"><ele>610.0</ele><time>2026-04-09T12:55:44.999Z</time></trkpt><trkpt lat="44.22911030501515" lon="9.589861047141826"><ele>610.0</ele><time>2026-04-09T12:55:45.999Z</time></trkpt><trkpt lat="44.22920030491911" lon="9.589777332581264"><ele>610.0</ele><time>2026-04-09T12:55:46.999Z</time></trkpt><trkpt lat="44.22928030725042" lon="9.589697202413067"><ele>609.5</ele><time>2026-04-09T12:55:47.999Z</time></trkpt><trkpt lat="44.22937026375341" lon="9.589594775254119"><ele>609.0</ele><time>2026-04-09T12:55:48.999Z</time></trkpt><trkpt lat="44.22944615346468" lon="9.589458667086738"><ele>608.5</ele><time>2026-04-09T12:55:49.999Z</time></trkpt><trkpt lat="44.229512778894545" lon="9.589306636462315"><ele>608.0</ele><time>2026-04-09T12:55:50.999Z</time></trkpt><trkpt lat="44.22958272766463" lon="9.589139718146724"><ele>609.0</ele><time>2026-04-09T12:55:51.999Z</time></trkpt><trkpt lat="44.22966806014889" lon="9.589009471342967"><ele>610.0</ele><time>2026-04-09T12:55:52.999Z</time></trkpt><trkpt lat="44.2297709749533" lon="9.588866324470965"><ele>611.0</ele><time>2026-04-09T12:55:53.999Z</time></trkpt><trkpt lat="44.22987276818284" lon="9.588765881477162"><ele>612.0</ele><time>2026-04-09T12:55:54.999Z</time></trkpt><trkpt lat="44.229972422854225" lon="9.588660600555796"><ele>606.6</ele><time>2026-04-09T12:55:55.999Z</time></trkpt><trkpt lat="44.23004869681076" lon="9.588547538853616"><ele>601.2</ele><time>2026-04-09T12:55:56.999Z</time></trkpt><trkpt lat="44.23012108268534" lon="9.588475524398085"><ele>595.8</ele><time>2026-04-09T12:55:57.999Z</time></trkpt><trkpt lat="44.23020104373628" lon="9.588358339281614"><ele>590.4</ele><time>2026-04-09T12:55:58.999Z</time></trkpt><trkpt lat="44.23027749752406" lon="9.588234002425285"><ele>585.0</ele><time>2026-04-09T12:55:59.999Z</time></trkpt><trkpt lat="44.23035937793313" lon="9.58810269977447"><ele>585.0</ele><time>2026-04-09T12:56:00.999Z</time></trkpt><trkpt lat="44.23044669917743" lon="9.58795483373312"><ele>585.0</ele><time>2026-04-09T12:56:01.999Z</time></trkpt><trkpt lat="44.23051934399653" lon="9.587814595755153"><ele>585.0</ele><time>2026-04-09T12:56:02.999Z</time></trkpt><trkpt lat="44.23059445326845" lon="9.587663487609296"><ele>585.0</ele><time>2026-04-09T12:56:03.999Z</time></trkpt><trkpt lat="44.230674573837284" lon="9.587492718434563"><ele>587.6666666666666</ele><time>2026-04-09T12:56:04.999Z</time></trkpt><trkpt lat="44.23075547059254" lon="9.587336321847433"><ele>590.3333333333333</ele><time>2026-04-09T12:56:05.999Z</time></trkpt><trkpt lat="44.23085997276661" lon="9.587135195603159"><ele>593.0</ele><time>2026-04-09T12:56:06.999Z</time></trkpt><trkpt lat="44.23096541701719" lon="9.586967737385143"><ele>588.25</ele><time>2026-04-09T12:56:07.999Z</time></trkpt><trkpt lat="44.231053299017496" lon="9.586811876935375"><ele>583.5</ele><time>2026-04-09T12:56:08.999Z</time></trkpt><trkpt lat="44.23115213237493" lon="9.58666765595071"><ele>578.75</ele><time>2026-04-09T12:56:09.999Z</time></trkpt><trkpt lat="44.23122752083679" lon="9.586555984525965"><ele>574.0</ele><time>2026-04-09T12:56:10.999Z</time></trkpt><trkpt lat="44.2313490181249" lon="9.586506294667378"><ele>578.0</ele><time>2026-04-09T12:56:11.999Z</time></trkpt><trkpt lat="44.23152485408104" lon="9.586472185923801"><ele>582.0</ele><time>2026-04-09T12:56:12.999Z</time></trkpt><trkpt lat="44.231594353603555" lon="9.58652147522227"><ele>586.0</ele><time>2026-04-09T12:56:13.999Z</time></trkpt><trkpt lat="44.231706795386145" lon="9.586558087462931"><ele>590.0</ele><time>2026-04-09T12:56:14.999Z</time></trkpt><trkpt lat="44.23182831956097" lon="9.586545863006084"><ele>590.0</ele><time>2026-04-09T12:56:15.999Z</time></trkpt><trkpt lat="44.23195272807372" lon="9.586475796577474"><ele>590.0</ele><time>2026-04-09T12:56:16.999Z</time></trkpt><trkpt lat="44.23208182144915" lon="9.586396715826975"><ele>590.0</ele><time>2026-04-09T12:56:17.999Z</time></trkpt><trkpt lat="44.232221551856824" lon="9.58630018858633"><ele>590.0</ele><time>2026-04-09T12:56:18.999Z</time></trkpt><trkpt lat="44.232342093374555" lon="9.586179874535148"><ele>593.5</ele><time>2026-04-09T12:56:19.999Z</time></trkpt><trkpt lat="44.232442508133346" lon="9.586077192678516"><ele>597.0</ele><time>2026-04-09T12:56:20.999Z</time></trkpt><trkpt lat="44.232537154163026" lon="9.586018724384399"><ele>600.5</ele><time>2026-04-09T12:56:21.999Z</time></trkpt><trkpt lat="44.23264962082037" lon="9.58605618252373"><ele>604.0</ele><time>2026-04-09T12:56:22.999Z</time></trkpt><trkpt lat="44.232775107060824" lon="9.58608360596927"><ele>604.0</ele><time>2026-04-09T12:56:23.999Z</time></trkpt><trkpt lat="44.23290168801282" lon="9.586140392126307"><ele>604.0</ele><time>2026-04-09T12:56:24.999Z</time></trkpt><trkpt lat="44.23303126853176" lon="9.586174148058335"><ele>604.0</ele><time>2026-04-09T12:56:25.999Z</time></trkpt><trkpt lat="44.233170019296686" lon="9.586209386490815"><ele>604.0</ele><time>2026-04-09T12:56:26.999Z</time></trkpt><trkpt lat="44.233292535307825" lon="9.586296825097657"><ele>596.25</ele><time>2026-04-09T12:56:27.999Z</time></trkpt><trkpt lat="44.23340675741791" lon="9.586379849317694"><ele>588.5</ele><time>2026-04-09T12:56:28.999Z</time></trkpt><trkpt lat="44.23351353837651" lon="9.586421890587586"><ele>580.75</ele><time>2026-04-09T12:56:29.999Z</time></trkpt><trkpt lat="44.233632282851325" lon="9.58640034352658"><ele>573.0</ele><time>2026-04-09T12:56:30.999Z</time></trkpt><trkpt lat="44.23374231377595" lon="9.586299713117553"><ele>574.6666666666666</ele><time>2026-04-09T12:56:31.999Z</time></trkpt><trkpt lat="44.2338362821057" lon="9.586144344723351"><ele>576.3333333333333</ele><time>2026-04-09T12:56:32.999Z</time></trkpt><trkpt lat="44.23392858097009" lon="9.585982880385275"><ele>578.0</ele><time>2026-04-09T12:56:33.999Z</time></trkpt><trkpt lat="44.23406852368849" lon="9.585875753002183"><ele>578.0</ele><time>2026-04-09T12:56:34.999Z</time></trkpt><trkpt lat="44.234198086664406" lon="9.585777633452398"><ele>578.0</ele><time>2026-04-09T12:56:35.999Z</time></trkpt><trkpt lat="44.234325590396296" lon="9.585680988742743"><ele>578.0</ele><time>2026-04-09T12:56:36.999Z</time></trkpt><trkpt lat="44.23442865762278" lon="9.585593448477493"><ele>578.0</ele><time>2026-04-09T12:56:37.999Z</time></trkpt><trkpt lat="44.23448467271596" lon="9.585518506631018"><ele>578.0</ele><time>2026-04-09T12:56:38.999Z</time></trkpt><trkpt lat="44.23449149898841" lon="9.585380597169854"><ele>578.0</ele><time>2026-04-09T12:56:39.999Z</time></trkpt><trkpt lat="44.23443857956529" lon="9.585221488376488"><ele>578.0</ele><time>2026-04-09T12:56:40.998Z</time></trkpt><trkpt lat="44.23436164738328" lon="9.585078280620957"><ele>578.0</ele><time>2026-04-09T12:56:41.998Z</time></trkpt><trkpt lat="44.234289055033344" lon="9.584938307131532"><ele>580.75</ele><time>2026-04-09T12:56:42.998Z</time></trkpt><trkpt lat="44.23421622128363" lon="9.584772454255566"><ele>583.5</ele><time>2026-04-09T12:56:43.998Z</time></trkpt><trkpt lat="44.23418388980906" lon="9.584603440019517"><ele>586.25</ele><time>2026-04-09T12:56:45Z</time></trkpt><trkpt lat="44.23418241931062" lon="9.584474230224796"><ele>589.0</ele><time>2026-04-09T12:56:46Z</time></trkpt><trkpt lat="44.234210408861806" lon="9.584330126392292"><ele>589.0</ele><time>2026-04-09T12:56:47Z</time></trkpt><trkpt lat="44.234306835133204" lon="9.584215948998333"><ele>589.0</ele><time>2026-04-09T12:56:48Z</time></trkpt><trkpt lat="44.23439720622683" lon="9.584067483644468"><ele>589.0</ele><time>2026-04-09T12:56:49Z</time></trkpt><trkpt lat="44.234476812438835" lon="9.583907624492264"><ele>589.0</ele><time>2026-04-09T12:56:50Z</time></trkpt><trkpt lat="44.2345685882467" lon="9.583751346549326"><ele>585.75</ele><time>2026-04-09T12:56:51Z</time></trkpt><trkpt lat="44.2346759288743" lon="9.583614506150663"><ele>582.5</ele><time>2026-04-09T12:56:52Z</time></trkpt><trkpt lat="44.234806459761366" lon="9.5835244873349"><ele>579.25</ele><time>2026-04-09T12:56:53Z</time></trkpt><trkpt lat="44.23492889836203" lon="9.583396876050431"><ele>576.0</ele><time>2026-04-09T12:56:54Z</time></trkpt><trkpt lat="44.235054988340465" lon="9.583276129486224"><ele>574.0</ele><time>2026-04-09T12:56:55Z</time></trkpt><trkpt lat="44.23516794785086" lon="9.583168259448785"><ele>572.0</ele><time>2026-04-09T12:56:56Z</time></trkpt><trkpt lat="44.23528945819759" lon="9.583108844738394"><ele>570.0</ele><time>2026-04-09T12:56:57Z</time></trkpt><trkpt lat="44.23543043378799" lon="9.58311920587612"><ele>568.0</ele><time>2026-04-09T12:56:58Z</time></trkpt><trkpt lat="44.23555913603922" lon="9.583183420328007"><ele>568.5</ele><time>2026-04-09T12:56:59Z</time></trkpt><trkpt lat="44.23570644257574" lon="9.583221305602207"><ele>569.0</ele><time>2026-04-09T12:57:00Z</time></trkpt><trkpt lat="44.235843215024104" lon="9.58328012432745"><ele>569.5</ele><time>2026-04-09T12:57:01Z</time></trkpt><trkpt lat="44.235971605349754" lon="9.583396977812836"><ele>570.0</ele><time>2026-04-09T12:57:02Z</time></trkpt><trkpt lat="44.2361105359907" lon="9.58351028799889"><ele>570.0</ele><time>2026-04-09T12:57:03Z</time></trkpt><trkpt lat="44.23626655945647" lon="9.583559076352254"><ele>570.0</ele><time>2026-04-09T12:57:04Z</time></trkpt><trkpt lat="44.23643491933314" lon="9.583547826262953"><ele>570.0</ele><time>2026-04-09T12:57:05Z</time></trkpt><trkpt lat="44.23658110844582" lon="9.583534789341902"><ele>571.0</ele><time>2026-04-09T12:57:06Z</time></trkpt><trkpt lat="44.23669469974808" lon="9.583471156462194"><ele>572.0</ele><time>2026-04-09T12:57:07Z</time></trkpt><trkpt lat="44.23679621716366" lon="9.583348750980772"><ele>573.0</ele><time>2026-04-09T12:57:08Z</time></trkpt><trkpt lat="44.2368983969117" lon="9.583199862041901"><ele>574.0</ele><time>2026-04-09T12:57:09Z</time></trkpt><trkpt lat="44.23700654880186" lon="9.583065562714959"><ele>574.0</ele><time>2026-04-09T12:57:10Z</time></trkpt><trkpt lat="44.23710484583312" lon="9.582960116823267"><ele>574.0</ele><time>2026-04-09T12:57:11Z</time></trkpt><trkpt lat="44.23718326487436" lon="9.58291917396986"><ele>574.0</ele><time>2026-04-09T12:57:12Z</time></trkpt><trkpt lat="44.23726545409177" lon="9.582943268566602"><ele>574.0</ele><time>2026-04-09T12:57:13Z</time></trkpt><trkpt lat="44.237336447309765" lon="9.583033367182873"><ele>574.0</ele><time>2026-04-09T12:57:14Z</time></trkpt><trkpt lat="44.2373761634474" lon="9.583171252597054"><ele>572.6</ele><time>2026-04-09T12:57:15Z</time></trkpt><trkpt lat="44.237438118819576" lon="9.583283271914453"><ele>571.2</ele><time>2026-04-09T12:57:16Z</time></trkpt><trkpt lat="44.23751398092524" lon="9.583356775402374"><ele>569.8000000000001</ele><time>2026-04-09T12:57:17Z</time></trkpt><trkpt lat="44.23761354741273" lon="9.583361523842894"><ele>568.4</ele><time>2026-04-09T12:57:18Z</time></trkpt><trkpt lat="44.2377100489177" lon="9.583304491911644"><ele>567.0</ele><time>2026-04-09T12:57:19Z</time></trkpt><trkpt lat="44.23780237175415" lon="9.583191257760246"><ele>567.0</ele><time>2026-04-09T12:57:20Z</time></trkpt><trkpt lat="44.23787697408177" lon="9.583056065486282"><ele>567.0</ele><time>2026-04-09T12:57:21Z</time></trkpt><trkpt lat="44.237936834479115" lon="9.582909464093566"><ele>567.0</ele><time>2026-04-09T12:57:22Z</time></trkpt><trkpt lat="44.23797697434922" lon="9.582734262232552"><ele>567.0</ele><time>2026-04-09T12:57:23Z</time></trkpt><trkpt lat="44.23803027797571" lon="9.582559047784665"><ele>568.25</ele><time>2026-04-09T12:57:24Z</time></trkpt><trkpt lat="44.23807983600194" lon="9.582374830983044"><ele>569.5</ele><time>2026-04-09T12:57:25Z</time></trkpt><trkpt lat="44.23813181374355" lon="9.582192665334272"><ele>570.75</ele><time>2026-04-09T12:57:26Z</time></trkpt><trkpt lat="44.238203796466166" lon="9.582016069017545"><ele>572.0</ele><time>2026-04-09T12:57:27Z</time></trkpt><trkpt lat="44.23828043048697" lon="9.581841534661939"><ele>574.2</ele><time>2026-04-09T12:57:28Z</time></trkpt><trkpt lat="44.23834600720223" lon="9.581697837816957"><ele>576.4000000000001</ele><time>2026-04-09T12:57:29Z</time></trkpt><trkpt lat="44.23841273142189" lon="9.58161053209512"><ele>578.5999999999999</ele><time>2026-04-09T12:57:30Z</time></trkpt><trkpt lat="44.23850195692945" lon="9.581591289914567"><ele>580.8</ele><time>2026-04-09T12:57:31Z</time></trkpt><trkpt lat="44.23861163994089" lon="9.581600708705919"><ele>583.0</ele><time>2026-04-09T12:57:32Z</time></trkpt><trkpt lat="44.23872943102279" lon="9.581615014824605"><ele>583.0</ele><time>2026-04-09T12:57:33Z</time></trkpt><trkpt lat="44.23885508423338" lon="9.58159736966166"><ele>583.0</ele><time>2026-04-09T12:57:34Z</time></trkpt><trkpt lat="44.23897659165625" lon="9.581503859286705"><ele>583.0</ele><time>2026-04-09T12:57:35Z</time></trkpt><trkpt lat="44.23907620689714" lon="9.581358888187603"><ele>583.0</ele><time>2026-04-09T12:57:36Z</time></trkpt><trkpt lat="44.239159425779974" lon="9.581273513720253"><ele>582.8</ele><time>2026-04-09T12:57:36.999Z</time></trkpt><trkpt lat="44.23923514980973" lon="9.581237977645346"><ele>582.5999999999999</ele><time>2026-04-09T12:57:37.999Z</time></trkpt><trkpt lat="44.239311642924136" lon="9.581268446113317"><ele>582.4000000000001</ele><time>2026-04-09T12:57:38.999Z</time></trkpt><trkpt lat="44.239399907406046" lon="9.581379124267094"><ele>582.2</ele><time>2026-04-09T12:57:39.999Z</time></trkpt><trkpt lat="44.23948467033515" lon="9.581492022106291"><ele>582.0</ele><time>2026-04-09T12:57:40.999Z</time></trkpt><trkpt lat="44.239572339598205" lon="9.581610896222875"><ele>582.0</ele><time>2026-04-09T12:57:41.999Z</time></trkpt><trkpt lat="44.23966042944374" lon="9.581742906267527"><ele>582.0</ele><time>2026-04-09T12:57:42.999Z</time></trkpt><trkpt lat="44.23976001099204" lon="9.581882361439275"><ele>582.0</ele><time>2026-04-09T12:57:43.999Z</time></trkpt><trkpt lat="44.239821757606286" lon="9.58205558136078"><ele>582.0</ele><time>2026-04-09T12:57:44.999Z</time></trkpt><trkpt lat="44.23983398286911" lon="9.582264475048426"><ele>583.0</ele><time>2026-04-09T12:57:45.999Z</time></trkpt><trkpt lat="44.23982624982184" lon="9.582466992770346"><ele>584.0</ele><time>2026-04-09T12:57:46.999Z</time></trkpt><trkpt lat="44.23984272632613" lon="9.582640294100528"><ele>585.0</ele><time>2026-04-09T12:57:47.999Z</time></trkpt><trkpt lat="44.23991311800002" lon="9.582795759546773"><ele>586.0</ele><time>2026-04-09T12:57:48.999Z</time></trkpt><trkpt lat="44.240029458279544" lon="9.582918387415049"><ele>586.0</ele><time>2026-04-09T12:57:49.999Z</time></trkpt><trkpt lat="44.24016264787858" lon="9.582969642501627"><ele>586.0</ele><time>2026-04-09T12:57:50.999Z</time></trkpt><trkpt lat="44.24030267676885" lon="9.582940868425956"><ele>586.0</ele><time>2026-04-09T12:57:51.999Z</time></trkpt><trkpt lat="44.24043028764402" lon="9.582842539841714"><ele>586.0</ele><time>2026-04-09T12:57:52.999Z</time></trkpt><trkpt lat="44.24055023866645" lon="9.582716942534356"><ele>586.5</ele><time>2026-04-09T12:57:53.999Z</time></trkpt><trkpt lat="44.24069429244344" lon="9.582704564292643"><ele>587.0</ele><time>2026-04-09T12:57:54.999Z</time></trkpt><trkpt lat="44.24082894437288" lon="9.582728959116325"><ele>587.5</ele><time>2026-04-09T12:57:55.999Z</time></trkpt><trkpt lat="44.240967464942436" lon="9.582802261024895"><ele>588.0</ele><time>2026-04-09T12:57:56.999Z</time></trkpt><trkpt lat="44.24109628533147" lon="9.582900132420436"><ele>585.5</ele><time>2026-04-09T12:57:57.999Z</time></trkpt><trkpt lat="44.24121195584079" lon="9.583034696067834"><ele>583.0</ele><time>2026-04-09T12:57:58.999Z</time></trkpt><trkpt lat="44.2413517560469" lon="9.583140523027621"><ele>580.5</ele><time>2026-04-09T12:57:59.999Z</time></trkpt><trkpt lat="44.241487756043256" lon="9.583181931547179"><ele>578.0</ele><time>2026-04-09T12:58:00.999Z</time></trkpt><trkpt lat="44.24161399673444" lon="9.583203732967904"><ele>577.25</ele><time>2026-04-09T12:58:01.999Z</time></trkpt><trkpt lat="44.24173776512899" lon="9.583180099515529"><ele>576.5</ele><time>2026-04-09T12:58:02.999Z</time></trkpt><trkpt lat="44.24185512161498" lon="9.58311513173279"><ele>575.75</ele><time>2026-04-09T12:58:03.999Z</time></trkpt><trkpt lat="44.24196911984617" lon="9.583022290680839"><ele>575.0</ele><time>2026-04-09T12:58:04.999Z</time></trkpt><trkpt lat="44.24208508882222" lon="9.582931134272576"><ele>575.0</ele><time>2026-04-09T12:58:05.999Z</time></trkpt><trkpt lat="44.24220810426746" lon="9.582883525809885"><ele>575.0</ele><time>2026-04-09T12:58:06.999Z</time></trkpt><trkpt lat="44.242341563053365" lon="9.582830631546452"><ele>575.0</ele><time>2026-04-09T12:58:07.999Z</time></trkpt><trkpt lat="44.24248106241056" lon="9.582807331911757"><ele>575.0</ele><time>2026-04-09T12:58:08.999Z</time></trkpt><trkpt lat="44.242625704965114" lon="9.582776381861832"><ele>580.0</ele><time>2026-04-09T12:58:09.999Z</time></trkpt><trkpt lat="44.24277364413602" lon="9.582745243699012"><ele>585.0</ele><time>2026-04-09T12:58:10.999Z</time></trkpt><trkpt lat="44.24291110495672" lon="9.582709784647976"><ele>590.0</ele><time>2026-04-09T12:58:11.999Z</time></trkpt><trkpt lat="44.243020038272334" lon="9.582664916920942"><ele>595.0</ele><time>2026-04-09T12:58:12.999Z</time></trkpt><trkpt lat="44.24310684368669" lon="9.582546022045316"><ele>592.25</ele><time>2026-04-09T12:58:13.999Z</time></trkpt><trkpt lat="44.24317109539352" lon="9.582379388227857"><ele>589.5</ele><time>2026-04-09T12:58:14.999Z</time></trkpt><trkpt lat="44.24326335710731" lon="9.582248369491857"><ele>586.75</ele><time>2026-04-09T12:58:15.999Z</time></trkpt><trkpt lat="44.24338295606655" lon="9.582146356126604"><ele>584.0</ele><time>2026-04-09T12:58:16.999Z</time></trkpt><trkpt lat="44.24350800155527" lon="9.582033864824943"><ele>585.5</ele><time>2026-04-09T12:58:17.999Z</time></trkpt><trkpt lat="44.24362969852166" lon="9.581914556196487"><ele>587.0</ele><time>2026-04-09T12:58:18.999Z</time></trkpt><trkpt lat="44.24374830921411" lon="9.581793497979954"><ele>588.5</ele><time>2026-04-09T12:58:19.999Z</time></trkpt><trkpt lat="44.243870030960935" lon="9.581706094857724"><ele>590.0</ele><time>2026-04-09T12:58:20.999Z</time></trkpt><trkpt lat="44.24398669853759" lon="9.581619568809142"><ele>590.5</ele><time>2026-04-09T12:58:21.999Z</time></trkpt><trkpt lat="44.244105133373786" lon="9.581552429109003"><ele>591.0</ele><time>2026-04-09T12:58:22.999Z</time></trkpt><trkpt lat="44.244221624903595" lon="9.58153121369806"><ele>591.5</ele><time>2026-04-09T12:58:23.999Z</time></trkpt><trkpt lat="44.2443413863986" lon="9.581501767837391"><ele>592.0</ele><time>2026-04-09T12:58:24.999Z</time></trkpt><trkpt lat="44.24443391735816" lon="9.581483441079255"><ele>592.0</ele><time>2026-04-09T12:58:25.999Z</time></trkpt><trkpt lat="44.24452447784573" lon="9.58146561750874"><ele>592.0</ele><time>2026-04-09T12:58:26.999Z</time></trkpt><trkpt lat="44.24461321074935" lon="9.581457102298055"><ele>592.0</ele><time>2026-04-09T12:58:28.999Z</time></trkpt><trkpt lat="44.244674633579116" lon="9.581437447282262"><ele>592.0</ele><time>2026-04-09T12:58:30.999Z</time></trkpt><trkpt lat="44.244732138243876" lon="9.581321949464707"><ele>592.0</ele><time>2026-04-09T13:00:47.999Z</time></trkpt><trkpt lat="44.244711619527095" lon="9.581210006009082"><ele>592.0</ele><time>2026-04-09T13:00:48.999Z</time></trkpt><trkpt lat="44.24465816903909" lon="9.581081574676045"><ele>592.0</ele><time>2026-04-09T13:00:49.999Z</time></trkpt><trkpt lat="44.244598173720014" lon="9.580944548748372"><ele>592.0</ele><time>2026-04-09T13:00:50.998Z</time></trkpt><trkpt lat="44.24455044418247" lon="9.58080672235196"><ele>592.0</ele><time>2026-04-09T13:00:51.998Z</time></trkpt><trkpt lat="44.24451141314498" lon="9.580693278777069"><ele>592.0</ele><time>2026-04-09T13:00:52.998Z</time></trkpt><trkpt lat="44.244473472462744" lon="9.580589197560268"><ele>592.0</ele><time>2026-04-09T13:00:53.998Z</time></trkpt><trkpt lat="44.24442895343418" lon="9.580478149997878"><ele>592.0</ele><time>2026-04-09T13:00:54.998Z</time></trkpt><trkpt lat="44.24437613490579" lon="9.580370915554868"><ele>592.0</ele><time>2026-04-09T13:00:55.998Z</time></trkpt><trkpt lat="44.24432969028973" lon="9.580242760247234"><ele>592.0</ele><time>2026-04-09T13:00:56.999Z</time></trkpt><trkpt lat="44.24427604791035" lon="9.580102782445742"><ele>592.0</ele><time>2026-04-09T13:00:57.999Z</time></trkpt><trkpt lat="44.24423063408999" lon="9.579951816728029"><ele>592.0</ele><time>2026-04-09T13:00:58.999Z</time></trkpt><trkpt lat="44.24422767538509" lon="9.579781115003673"><ele>592.5</ele><time>2026-04-09T13:00:59.999Z</time></trkpt><trkpt lat="44.24424340942381" lon="9.5796367468504"><ele>593.0</ele><time>2026-04-09T13:01:00.999Z</time></trkpt><trkpt lat="44.24430178438556" lon="9.579493009189614"><ele>593.5</ele><time>2026-04-09T13:01:01.999Z</time></trkpt><trkpt lat="44.2443870182191" lon="9.579366341680094"><ele>594.0</ele><time>2026-04-09T13:01:02.999Z</time></trkpt><trkpt lat="44.2444800480588" lon="9.579237947229702"><ele>590.0</ele><time>2026-04-09T13:01:03.999Z</time></trkpt><trkpt lat="44.24456810275383" lon="9.579085086695008"><ele>586.0</ele><time>2026-04-09T13:01:04.999Z</time></trkpt><trkpt lat="44.244652292044954" lon="9.578933374967038"><ele>582.0</ele><time>2026-04-09T13:01:05.999Z</time></trkpt><trkpt lat="44.244703178991784" lon="9.578748814933117"><ele>578.0</ele><time>2026-04-09T13:01:06.999Z</time></trkpt><trkpt lat="44.244714732546264" lon="9.578541185104358"><ele>581.75</ele><time>2026-04-09T13:01:07.999Z</time></trkpt><trkpt lat="44.244726845169566" lon="9.578346434319457"><ele>585.5</ele><time>2026-04-09T13:01:08.999Z</time></trkpt><trkpt lat="44.24474845190434" lon="9.578137623179579"><ele>589.25</ele><time>2026-04-09T13:01:09.999Z</time></trkpt><trkpt lat="44.244795290322045" lon="9.57797084649359"><ele>593.0</ele><time>2026-04-09T13:01:10.999Z</time></trkpt><trkpt lat="44.24487682244358" lon="9.577832316420547"><ele>593.0</ele><time>2026-04-09T13:01:11.999Z</time></trkpt><trkpt lat="44.24499830298591" lon="9.577757576757442"><ele>593.0</ele><time>2026-04-09T13:01:12.999Z</time></trkpt><trkpt lat="44.24511812638631" lon="9.5776591927043"><ele>593.0</ele><time>2026-04-09T13:01:13.999Z</time></trkpt><trkpt lat="44.24522890900964" lon="9.577562953327067"><ele>593.0</ele><time>2026-04-09T13:01:14.999Z</time></trkpt><trkpt lat="44.245361866721474" lon="9.577435434375266"><ele>593.0</ele><time>2026-04-09T13:01:15.999Z</time></trkpt><trkpt lat="44.24550219977328" lon="9.577348019053016"><ele>593.0</ele><time>2026-04-09T13:01:16.999Z</time></trkpt><trkpt lat="44.24563198696992" lon="9.577325522562884"><ele>593.0</ele><time>2026-04-09T13:01:17.999Z</time></trkpt><trkpt lat="44.24579292518414" lon="9.577289495652757"><ele>593.0</ele><time>2026-04-09T13:01:18.999Z</time></trkpt><trkpt lat="44.24594189689719" lon="9.577272598988342"><ele>599.3333333333333</ele><time>2026-04-09T13:01:19.999Z</time></trkpt><trkpt lat="44.246091385221504" lon="9.577259925512042"><ele>605.6666666666666</ele><time>2026-04-09T13:01:20.999Z</time></trkpt><trkpt lat="44.24624731326284" lon="9.57723728170508"><ele>612.0</ele><time>2026-04-09T13:01:21.999Z</time></trkpt><trkpt lat="44.24639655600874" lon="9.577199238740082"><ele>610.0</ele><time>2026-04-09T13:01:22.999Z</time></trkpt><trkpt lat="44.24654657290061" lon="9.577194451675574"><ele>608.0</ele><time>2026-04-09T13:01:23.999Z</time></trkpt><trkpt lat="44.24668550048615" lon="9.577152330027886"><ele>606.0</ele><time>2026-04-09T13:01:24.999Z</time></trkpt><trkpt lat="44.246813972890465" lon="9.577060422053913"><ele>604.0</ele><time>2026-04-09T13:01:25.999Z</time></trkpt><trkpt lat="44.24692047616601" lon="9.576924661003497"><ele>604.0</ele><time>2026-04-09T13:01:26.999Z</time></trkpt><trkpt lat="44.246977768879816" lon="9.576721312943956"><ele>604.0</ele><time>2026-04-09T13:01:27.999Z</time></trkpt><trkpt lat="44.24703412463077" lon="9.576521570675848"><ele>604.0</ele><time>2026-04-09T13:01:28.999Z</time></trkpt><trkpt lat="44.24708939984363" lon="9.576325460122298"><ele>607.5</ele><time>2026-04-09T13:01:29.999Z</time></trkpt><trkpt lat="44.247136811410435" lon="9.576124635685893"><ele>611.0</ele><time>2026-04-09T13:01:30.999Z</time></trkpt><trkpt lat="44.24718199319809" lon="9.575938740078982"><ele>614.5</ele><time>2026-04-09T13:01:31.999Z</time></trkpt><trkpt lat="44.247240992719576" lon="9.57577356475355"><ele>618.0</ele><time>2026-04-09T13:01:32.999Z</time></trkpt><trkpt lat="44.24734154927012" lon="9.575645839029512"><ele>618.0</ele><time>2026-04-09T13:01:33.999Z</time></trkpt><trkpt lat="44.24746015135439" lon="9.575528938579415"><ele>618.0</ele><time>2026-04-09T13:01:34.999Z</time></trkpt><trkpt lat="44.247582644818706" lon="9.575416133649734"><ele>618.0</ele><time>2026-04-09T13:01:35.999Z</time></trkpt><trkpt lat="44.24770231246654" lon="9.575303395567202"><ele>618.0</ele><time>2026-04-09T13:01:36.999Z</time></trkpt><trkpt lat="44.247834079117865" lon="9.575158635545526"><ele>620.0</ele><time>2026-04-09T13:01:37.999Z</time></trkpt><trkpt lat="44.24796257707653" lon="9.57503065301485"><ele>622.0</ele><time>2026-04-09T13:01:38.999Z</time></trkpt><trkpt lat="44.248094938608155" lon="9.574895795462568"><ele>624.0</ele><time>2026-04-09T13:01:39.999Z</time></trkpt><trkpt lat="44.24824141229312" lon="9.57476206515744"><ele>624.0</ele><time>2026-04-09T13:01:40.999Z</time></trkpt><trkpt lat="44.24836738637126" lon="9.574620574288518"><ele>624.0</ele><time>2026-04-09T13:01:41.999Z</time></trkpt><trkpt lat="44.24850241484351" lon="9.574492408047513"><ele>624.0</ele><time>2026-04-09T13:01:42.999Z</time></trkpt><trkpt lat="44.248643074348216" lon="9.574371363522404"><ele>614.3333333333334</ele><time>2026-04-09T13:01:43.999Z</time></trkpt><trkpt lat="44.248760029008594" lon="9.574247275582039"><ele>604.6666666666667</ele><time>2026-04-09T13:01:44.999Z</time></trkpt><trkpt lat="44.24884043538771" lon="9.574082065110092"><ele>595.0</ele><time>2026-04-09T13:01:45.999Z</time></trkpt><trkpt lat="44.24888053034368" lon="9.573865947118254"><ele>593.75</ele><time>2026-04-09T13:01:46.999Z</time></trkpt><trkpt lat="44.2489241938248" lon="9.573654670853687"><ele>592.5</ele><time>2026-04-09T13:01:47.999Z</time></trkpt><trkpt lat="44.24896223103783" lon="9.573480839202846"><ele>591.25</ele><time>2026-04-09T13:01:48.999Z</time></trkpt><trkpt lat="44.24896049820838" lon="9.573304445433871"><ele>590.0</ele><time>2026-04-09T13:01:49.999Z</time></trkpt><trkpt lat="44.24889592350833" lon="9.573151961234249"><ele>590.0</ele><time>2026-04-09T13:01:50.999Z</time></trkpt><trkpt lat="44.24880921897515" lon="9.57299745382095"><ele>590.0</ele><time>2026-04-09T13:01:51.999Z</time></trkpt><trkpt lat="44.24873704344223" lon="9.5728270169315"><ele>590.0</ele><time>2026-04-09T13:01:52.999Z</time></trkpt><trkpt lat="44.248627779829285" lon="9.57268023166815"><ele>590.0</ele><time>2026-04-09T13:01:53.999Z</time></trkpt><trkpt lat="44.24849715156378" lon="9.57258769146184"><ele>593.75</ele><time>2026-04-09T13:01:54.999Z</time></trkpt><trkpt lat="44.24838718205635" lon="9.572514583161915"><ele>597.5</ele><time>2026-04-09T13:01:55.999Z</time></trkpt><trkpt lat="44.24833409213306" lon="9.572351989224476"><ele>601.25</ele><time>2026-04-09T13:01:56.999Z</time></trkpt><trkpt lat="44.24832108723364" lon="9.572198819551152"><ele>605.0</ele><time>2026-04-09T13:01:57.999Z</time></trkpt><trkpt lat="44.24833155104742" lon="9.572012899168824"><ele>606.0</ele><time>2026-04-09T13:01:58.999Z</time></trkpt><trkpt lat="44.248316915174556" lon="9.57182439461812"><ele>607.0</ele><time>2026-04-09T13:01:59.999Z</time></trkpt><trkpt lat="44.24835704613682" lon="9.571626106376922"><ele>608.0</ele><time>2026-04-09T13:02:00.999Z</time></trkpt><trkpt lat="44.24840028600979" lon="9.57146334435911"><ele>609.0</ele><time>2026-04-09T13:02:01.999Z</time></trkpt><trkpt lat="44.2485305861824" lon="9.571382398630407"><ele>609.0</ele><time>2026-04-09T13:02:02.999Z</time></trkpt><trkpt lat="44.24863342462697" lon="9.571260459359472"><ele>609.0</ele><time>2026-04-09T13:02:03.999Z</time></trkpt><trkpt lat="44.2487392509833" lon="9.57111772772468"><ele>609.0</ele><time>2026-04-09T13:02:04.999Z</time></trkpt><trkpt lat="44.248850179495" lon="9.57098634220787"><ele>609.0</ele><time>2026-04-09T13:02:05.999Z</time></trkpt><trkpt lat="44.24896772706824" lon="9.57084178553269"><ele>608.3333333333334</ele><time>2026-04-09T13:02:06.999Z</time></trkpt><trkpt lat="44.24908852361715" lon="9.570686047139736"><ele>607.6666666666667</ele><time>2026-04-09T13:02:07.999Z</time></trkpt><trkpt lat="44.24918201594036" lon="9.570496613251686"><ele>607.0</ele><time>2026-04-09T13:02:08.999Z</time></trkpt><trkpt lat="44.24925864253138" lon="9.570286233151272"><ele>607.0</ele><time>2026-04-09T13:02:09.999Z</time></trkpt><trkpt lat="44.24934929297933" lon="9.570082578267696"><ele>607.0</ele><time>2026-04-09T13:02:10.999Z</time></trkpt><trkpt lat="44.249446714839195" lon="9.569880483804173"><ele>607.0</ele><time>2026-04-09T13:02:11.999Z</time></trkpt><trkpt lat="44.24954273338124" lon="9.569676965771189"><ele>602.6666666666667</ele><time>2026-04-09T13:02:12.999Z</time></trkpt><trkpt lat="44.24962932914852" lon="9.569474493574212"><ele>598.3333333333334</ele><time>2026-04-09T13:02:13.999Z</time></trkpt><trkpt lat="44.24969275147612" lon="9.569268686264659"><ele>594.0</ele><time>2026-04-09T13:02:14.999Z</time></trkpt><trkpt lat="44.249700538456096" lon="9.569036578630577"><ele>594.0</ele><time>2026-04-09T13:02:15.999Z</time></trkpt><trkpt lat="44.249666148069494" lon="9.568813113729652"><ele>594.0</ele><time>2026-04-09T13:02:16.999Z</time></trkpt><trkpt lat="44.24964311622934" lon="9.568627708524321"><ele>594.0</ele><time>2026-04-09T13:02:17.999Z</time></trkpt><trkpt lat="44.24964535209961" lon="9.568465107161444"><ele>594.0</ele><time>2026-04-09T13:02:18.999Z</time></trkpt><trkpt lat="44.249645226908406" lon="9.568271960218123"><ele>593.6</ele><time>2026-04-09T13:02:19.999Z</time></trkpt><trkpt lat="44.24963848101714" lon="9.568091296158059"><ele>593.2</ele><time>2026-04-09T13:02:20.999Z</time></trkpt><trkpt lat="44.24963334940867" lon="9.56792717384364"><ele>592.8000000000001</ele><time>2026-04-09T13:02:21.999Z</time></trkpt><trkpt lat="44.24965313103986" lon="9.567803201338098"><ele>592.4</ele><time>2026-04-09T13:02:22.999Z</time></trkpt><trkpt lat="44.249690801610534" lon="9.5677100077445"><ele>592.0</ele><time>2026-04-09T13:02:23.999Z</time></trkpt><trkpt lat="44.24974372253327" lon="9.567650374052283"><ele>593.1666666666667</ele><time>2026-04-09T13:02:24.999Z</time></trkpt><trkpt lat="44.24984547449421" lon="9.567603216242896"><ele>594.3333333333334</ele><time>2026-04-09T13:02:26.999Z</time></trkpt><trkpt lat="44.24993892164703" lon="9.567615773387553"><ele>595.5</ele><time>2026-04-09T13:02:28.999Z</time></trkpt><trkpt lat="44.249868677139546" lon="9.567595093321323"><ele>596.6666666666666</ele><time>2026-04-09T13:02:33.999Z</time></trkpt><trkpt lat="44.24977855618511" lon="9.56762477227732"><ele>597.8333333333333</ele><time>2026-04-09T13:02:35.999Z</time></trkpt><trkpt lat="44.24970833738706" lon="9.56761931861154"><ele>599.0</ele><time>2026-04-09T13:02:36.999Z</time></trkpt><trkpt lat="44.249660996227846" lon="9.56768480661783"><ele>597.8333333333333</ele><time>2026-04-09T13:02:37.999Z</time></trkpt><trkpt lat="44.24962374879324" lon="9.567772889580356"><ele>596.6666666666666</ele><time>2026-04-09T13:02:38.999Z</time></trkpt><trkpt lat="44.249594405637374" lon="9.56787585446901"><ele>595.5</ele><time>2026-04-09T13:02:39.999Z</time></trkpt><trkpt lat="44.249582791763466" lon="9.567992340210436"><ele>594.3333333333334</ele><time>2026-04-09T13:02:40.999Z</time></trkpt><trkpt lat="44.24957872677094" lon="9.568117808841983"><ele>593.1666666666667</ele><time>2026-04-09T13:02:41.999Z</time></trkpt><trkpt lat="44.249588332495016" lon="9.568254829178347"><ele>592.0</ele><time>2026-04-09T13:02:42.999Z</time></trkpt><trkpt lat="44.24960072561097" lon="9.568396131742555"><ele>592.0</ele><time>2026-04-09T13:02:43.999Z</time></trkpt><trkpt lat="44.24960874967384" lon="9.568541326876055"><ele>592.0</ele><time>2026-04-09T13:02:44.999Z</time></trkpt><trkpt lat="44.249616090975636" lon="9.568666036644155"><ele>592.0</ele><time>2026-04-09T13:02:45.999Z</time></trkpt><trkpt lat="44.24963089706192" lon="9.568841439161845"><ele>592.0</ele><time>2026-04-09T13:02:46.999Z</time></trkpt><trkpt lat="44.24964017122985" lon="9.569013369813096"><ele>592.0</ele><time>2026-04-09T13:02:47.998Z</time></trkpt><trkpt lat="44.24964743780979" lon="9.569181263451382"><ele>592.5</ele><time>2026-04-09T13:02:48.998Z</time></trkpt><trkpt lat="44.24964387827178" lon="9.569355712839183"><ele>593.0</ele><time>2026-04-09T13:02:49.998Z</time></trkpt><trkpt lat="44.24959018872279" lon="9.56951771222197"><ele>593.5</ele><time>2026-04-09T13:02:50.998Z</time></trkpt><trkpt lat="44.24948112784877" lon="9.569675535282201"><ele>594.0</ele><time>2026-04-09T13:02:51.998Z</time></trkpt><trkpt lat="44.24940828675189" lon="9.569835727278127"><ele>598.3333333333334</ele><time>2026-04-09T13:02:52.998Z</time></trkpt><trkpt lat="44.24933956827512" lon="9.570020074452279"><ele>602.6666666666667</ele><time>2026-04-09T13:02:53.998Z</time></trkpt><trkpt lat="44.24926298468397" lon="9.570204400304453"><ele>607.0</ele><time>2026-04-09T13:02:54.998Z</time></trkpt><trkpt lat="44.249166246578426" lon="9.570380308398713"><ele>600.6666666666667</ele><time>2026-04-09T13:02:55.998Z</time></trkpt><trkpt lat="44.2490887182362" lon="9.57057665234815"><ele>594.3333333333334</ele><time>2026-04-09T13:02:56.998Z</time></trkpt><trkpt lat="44.24899404981943" lon="9.570755439450329"><ele>588.0</ele><time>2026-04-09T13:02:57.998Z</time></trkpt><trkpt lat="44.24886311271739" lon="9.570907545732464"><ele>588.0</ele><time>2026-04-09T13:02:58.998Z</time></trkpt><trkpt lat="44.24873058802416" lon="9.571060236974825"><ele>588.0</ele><time>2026-04-09T13:02:59.998Z</time></trkpt><trkpt lat="44.248600610879194" lon="9.571217919875735"><ele>588.0</ele><time>2026-04-09T13:03:00.998Z</time></trkpt><trkpt lat="44.24848100207269" lon="9.571357878270948"><ele>593.25</ele><time>2026-04-09T13:03:01.998Z</time></trkpt><trkpt lat="44.24838745762466" lon="9.57147136453404"><ele>598.5</ele><time>2026-04-09T13:03:03Z</time></trkpt><trkpt lat="44.248323725512805" lon="9.571603736711547"><ele>603.75</ele><time>2026-04-09T13:03:04Z</time></trkpt><trkpt lat="44.24830371315117" lon="9.571766073842657"><ele>609.0</ele><time>2026-04-09T13:03:05Z</time></trkpt><trkpt lat="44.24829053328668" lon="9.571948045034247"><ele>608.0</ele><time>2026-04-09T13:03:06Z</time></trkpt><trkpt lat="44.24828271506167" lon="9.572126215092812"><ele>607.0</ele><time>2026-04-09T13:03:07Z</time></trkpt><trkpt lat="44.24829283987747" lon="9.57231470789488"><ele>606.0</ele><time>2026-04-09T13:03:08Z</time></trkpt><trkpt lat="44.248346909357174" lon="9.572486725698246"><ele>605.0</ele><time>2026-04-09T13:03:09Z</time></trkpt><trkpt lat="44.24844911810614" lon="9.572616268072995"><ele>605.0</ele><time>2026-04-09T13:03:10Z</time></trkpt><trkpt lat="44.2485887883536" lon="9.572702962808245"><ele>605.0</ele><time>2026-04-09T13:03:11Z</time></trkpt><trkpt lat="44.248699175879615" lon="9.572811827780376"><ele>605.0</ele><time>2026-04-09T13:03:12Z</time></trkpt><trkpt lat="44.24877548216915" lon="9.572972047478137"><ele>605.0</ele><time>2026-04-09T13:03:13Z</time></trkpt><trkpt lat="44.2488707831043" lon="9.573125518138351"><ele>602.5</ele><time>2026-04-09T13:03:14Z</time></trkpt><trkpt lat="44.248913640348164" lon="9.573268487890122"><ele>600.0</ele><time>2026-04-09T13:03:15Z</time></trkpt><trkpt lat="44.24895026436088" lon="9.573416326129182"><ele>597.5</ele><time>2026-04-09T13:03:16Z</time></trkpt><trkpt lat="44.24891761419983" lon="9.573586986422177"><ele>595.0</ele><time>2026-04-09T13:03:17Z</time></trkpt><trkpt lat="44.248868680814965" lon="9.573752271937098"><ele>595.0</ele><time>2026-04-09T13:03:18Z</time></trkpt><trkpt lat="44.24883671039076" lon="9.573932620517894"><ele>595.0</ele><time>2026-04-09T13:03:19Z</time></trkpt><trkpt lat="44.24879719368656" lon="9.574117717800991"><ele>595.0</ele><time>2026-04-09T13:03:20Z</time></trkpt><trkpt lat="44.248702324530605" lon="9.574278393276899"><ele>595.0</ele><time>2026-04-09T13:03:21Z</time></trkpt><trkpt lat="44.248571542418695" lon="9.574402082232245"><ele>604.6666666666667</ele><time>2026-04-09T13:03:22Z</time></trkpt><trkpt lat="44.24842650463973" lon="9.574530378374746"><ele>614.3333333333334</ele><time>2026-04-09T13:03:23Z</time></trkpt><trkpt lat="44.24828400873752" lon="9.574669398515955"><ele>624.0</ele><time>2026-04-09T13:03:24Z</time></trkpt><trkpt lat="44.248133923024476" lon="9.574811056738948"><ele>614.0</ele><time>2026-04-09T13:03:25Z</time></trkpt><trkpt lat="44.24797577850394" lon="9.574940713576087"><ele>604.0</ele><time>2026-04-09T13:03:26Z</time></trkpt><trkpt lat="44.24782385973673" lon="9.575098743101615"><ele>594.0</ele><time>2026-04-09T13:03:27Z</time></trkpt><trkpt lat="44.247667543959444" lon="9.575252677283755"><ele>590.3333333333334</ele><time>2026-04-09T13:03:28Z</time></trkpt><trkpt lat="44.24752204217308" lon="9.57539758194275"><ele>586.6666666666667</ele><time>2026-04-09T13:03:29Z</time></trkpt><trkpt lat="44.24738762866377" lon="9.575534799950603"><ele>583.0</ele><time>2026-04-09T13:03:30Z</time></trkpt><trkpt lat="44.24725694728686" lon="9.575660964673716"><ele>583.0</ele><time>2026-04-09T13:03:31Z</time></trkpt><trkpt lat="44.24716166687342" lon="9.575804821192355"><ele>583.0</ele><time>2026-04-09T13:03:32Z</time></trkpt><trkpt lat="44.24711130873043" lon="9.576025991821039"><ele>583.0</ele><time>2026-04-09T13:03:33Z</time></trkpt><trkpt lat="44.24707903530643" lon="9.576228457484943"><ele>590.0</ele><time>2026-04-09T13:03:34Z</time></trkpt><trkpt lat="44.24702742905132" lon="9.576452901414255"><ele>597.0</ele><time>2026-04-09T13:03:35Z</time></trkpt><trkpt lat="44.24696060522353" lon="9.576667906153656"><ele>604.0</ele><time>2026-04-09T13:03:36Z</time></trkpt><trkpt lat="44.2468929371802" lon="9.576860863691627"><ele>604.0</ele><time>2026-04-09T13:03:37Z</time></trkpt><trkpt lat="44.246804007462856" lon="9.57700513369652"><ele>604.0</ele><time>2026-04-09T13:03:38Z</time></trkpt><trkpt lat="44.24668461620342" lon="9.57711380089472"><ele>604.0</ele><time>2026-04-09T13:03:39Z</time></trkpt><trkpt lat="44.24653190682308" lon="9.577164959647261"><ele>604.0</ele><time>2026-04-09T13:03:40Z</time></trkpt><trkpt lat="44.24636948207368" lon="9.577161679656896"><ele>606.6666666666667</ele><time>2026-04-09T13:03:41Z</time></trkpt><trkpt lat="44.24619272289301" lon="9.577141071352814"><ele>609.3333333333334</ele><time>2026-04-09T13:03:42Z</time></trkpt><trkpt lat="44.24603259721392" lon="9.577165346557214"><ele>612.0</ele><time>2026-04-09T13:03:43Z</time></trkpt><trkpt lat="44.24585296923861" lon="9.577207718071243"><ele>612.0</ele><time>2026-04-09T13:03:44Z</time></trkpt><trkpt lat="44.24567425029866" lon="9.577235068162702"><ele>612.0</ele><time>2026-04-09T13:03:45Z</time></trkpt><trkpt lat="44.24551176413631" lon="9.577273239182782"><ele>612.0</ele><time>2026-04-09T13:03:46Z</time></trkpt><trkpt lat="44.24535828527402" lon="9.577359722591686"><ele>605.6666666666666</ele><time>2026-04-09T13:03:47Z</time></trkpt><trkpt lat="44.24520902255521" lon="9.577481163862027"><ele>599.3333333333333</ele><time>2026-04-09T13:03:48Z</time></trkpt><trkpt lat="44.245058549677395" lon="9.577625261297412"><ele>593.0</ele><time>2026-04-09T13:03:49Z</time></trkpt><trkpt lat="44.24491507313729" lon="9.577744933766647"><ele>596.5</ele><time>2026-04-09T13:03:50Z</time></trkpt><trkpt lat="44.244808568262" lon="9.577857373218915"><ele>600.0</ele><time>2026-04-09T13:03:51Z</time></trkpt><trkpt lat="44.24473319086765" lon="9.578018274109214"><ele>603.5</ele><time>2026-04-09T13:03:52Z</time></trkpt><trkpt lat="44.24470626538406" lon="9.578241342211923"><ele>607.0</ele><time>2026-04-09T13:03:53Z</time></trkpt><trkpt lat="44.24468398184506" lon="9.578463147949765"><ele>597.3333333333334</ele><time>2026-04-09T13:03:54Z</time></trkpt><trkpt lat="44.244660078990805" lon="9.57869190398269"><ele>587.6666666666666</ele><time>2026-04-09T13:03:55Z</time></trkpt><trkpt lat="44.24462130796842" lon="9.578907828347695"><ele>578.0</ele><time>2026-04-09T13:03:56Z</time></trkpt><trkpt lat="44.24453628354427" lon="9.579103274533383"><ele>578.0</ele><time>2026-04-09T13:03:57Z</time></trkpt><trkpt lat="44.2444150878021" lon="9.579261443641194"><ele>578.0</ele><time>2026-04-09T13:03:58Z</time></trkpt><trkpt lat="44.24429808596469" lon="9.579404437222623"><ele>578.0</ele><time>2026-04-09T13:03:59Z</time></trkpt><trkpt lat="44.244225876632555" lon="9.579599035011109"><ele>583.3333333333333</ele><time>2026-04-09T13:04:00Z</time></trkpt><trkpt lat="44.24419818616525" lon="9.579818270717894"><ele>588.6666666666666</ele><time>2026-04-09T13:04:01Z</time></trkpt><trkpt lat="44.24422722947809" lon="9.580046694544013"><ele>594.0</ele><time>2026-04-09T13:04:02Z</time></trkpt><trkpt lat="44.244300637184196" lon="9.580246011406585"><ele>593.3333333333334</ele><time>2026-04-09T13:04:02.999Z</time></trkpt><trkpt lat="44.24437910220849" lon="9.580442734869397"><ele>592.6666666666667</ele><time>2026-04-09T13:04:03.999Z</time></trkpt><trkpt lat="44.24445335717815" lon="9.580619905692574"><ele>592.0</ele><time>2026-04-09T13:04:04.999Z</time></trkpt><trkpt lat="44.244519581363214" lon="9.580802716056333"><ele>592.0</ele><time>2026-04-09T13:04:05.999Z</time></trkpt><trkpt lat="44.244570967433674" lon="9.580963301152414"><ele>592.0</ele><time>2026-04-09T13:04:06.999Z</time></trkpt><trkpt lat="44.24460053907609" lon="9.58109117384682"><ele>592.0</ele><time>2026-04-09T13:04:07.999Z</time></trkpt><trkpt lat="44.24460613955625" lon="9.581204858365236"><ele>592.0</ele><time>2026-04-09T13:04:08.999Z</time></trkpt><trkpt lat="44.24458157934073" lon="9.581301350948195"><ele>592.0</ele><time>2026-04-09T13:04:09.999Z</time></trkpt><trkpt lat="44.24451865958" lon="9.58138713405317"><ele>592.0</ele><time>2026-04-09T13:04:10.999Z</time></trkpt><trkpt lat="44.24443267459861" lon="9.581430880533503"><ele>592.0</ele><time>2026-04-09T13:04:11.999Z</time></trkpt><trkpt lat="44.24434233366783" lon="9.581460417423225"><ele>592.0</ele><time>2026-04-09T13:04:12.999Z</time></trkpt><trkpt lat="44.24424961536629" lon="9.581475860827329"><ele>592.0</ele><time>2026-04-09T13:04:13.999Z</time></trkpt><trkpt lat="44.24414838729374" lon="9.581500324217327"><ele>592.0</ele><time>2026-04-09T13:04:14.999Z</time></trkpt><trkpt lat="44.24403568518839" lon="9.581536272372169"><ele>591.5</ele><time>2026-04-09T13:04:15.999Z</time></trkpt><trkpt lat="44.24391696000259" lon="9.581607725384169"><ele>591.0</ele><time>2026-04-09T13:04:16.999Z</time></trkpt><trkpt lat="44.24381018645918" lon="9.58170251587151"><ele>590.5</ele><time>2026-04-09T13:04:17.999Z</time></trkpt><trkpt lat="44.243701746241186" lon="9.581810536243824"><ele>590.0</ele><time>2026-04-09T13:04:18.999Z</time></trkpt><trkpt lat="44.24358177449938" lon="9.581918939945991"><ele>588.0</ele><time>2026-04-09T13:04:19.999Z</time></trkpt><trkpt lat="44.243459286577696" lon="9.582035651850298"><ele>586.0</ele><time>2026-04-09T13:04:20.999Z</time></trkpt><trkpt lat="44.243326928137286" lon="9.582155120623067"><ele>584.0</ele><time>2026-04-09T13:04:21.999Z</time></trkpt><trkpt lat="44.24319591674458" lon="9.582287173230418"><ele>586.75</ele><time>2026-04-09T13:04:22.999Z</time></trkpt><trkpt lat="44.2430988009004" lon="9.582450216391338"><ele>589.5</ele><time>2026-04-09T13:04:23.999Z</time></trkpt><trkpt lat="44.24302149788216" lon="9.582597349759698"><ele>592.25</ele><time>2026-04-09T13:04:24.999Z</time></trkpt><trkpt lat="44.2429123554931" lon="9.582682314331795"><ele>595.0</ele><time>2026-04-09T13:04:25.999Z</time></trkpt><trkpt lat="44.242775244018276" lon="9.5827021162033"><ele>595.0</ele><time>2026-04-09T13:04:26.999Z</time></trkpt><trkpt lat="44.242638550962965" lon="9.58271768425254"><ele>595.0</ele><time>2026-04-09T13:04:27.999Z</time></trkpt><trkpt lat="44.24250313897276" lon="9.582749808519356"><ele>595.0</ele><time>2026-04-09T13:04:28.999Z</time></trkpt><trkpt lat="44.24235740723896" lon="9.582790882252597"><ele>595.0</ele><time>2026-04-09T13:04:29.999Z</time></trkpt><trkpt lat="44.24220649846325" lon="9.582829728635279"><ele>588.3333333333334</ele><time>2026-04-09T13:04:30.999Z</time></trkpt><trkpt lat="44.24205542473556" lon="9.582884671695636"><ele>581.6666666666666</ele><time>2026-04-09T13:04:31.999Z</time></trkpt><trkpt lat="44.241912020571476" lon="9.582987221937044"><ele>575.0</ele><time>2026-04-09T13:04:32.999Z</time></trkpt><trkpt lat="44.24179232468225" lon="9.583090572454669"><ele>575.0</ele><time>2026-04-09T13:04:33.999Z</time></trkpt><trkpt lat="44.2416618448128" lon="9.583135250587128"><ele>575.0</ele><time>2026-04-09T13:04:34.999Z</time></trkpt><trkpt lat="44.24152029367117" lon="9.583140406965608"><ele>575.0</ele><time>2026-04-09T13:04:35.999Z</time></trkpt><trkpt lat="44.24137918915154" lon="9.58308859430245"><ele>575.0</ele><time>2026-04-09T13:04:36.999Z</time></trkpt><trkpt lat="44.24124047404703" lon="9.583005660732594"><ele>576.0</ele><time>2026-04-09T13:04:37.999Z</time></trkpt><trkpt lat="44.24111499113534" lon="9.582892937501148"><ele>577.0</ele><time>2026-04-09T13:04:38.999Z</time></trkpt><trkpt lat="44.240991217211686" lon="9.582764349489102"><ele>578.0</ele><time>2026-04-09T13:04:39.999Z</time></trkpt><trkpt lat="44.24084808200216" lon="9.582672793999325"><ele>580.6666666666666</ele><time>2026-04-09T13:04:40.999Z</time></trkpt><trkpt lat="44.24069128291908" lon="9.582627091980477"><ele>583.3333333333334</ele><time>2026-04-09T13:04:41.999Z</time></trkpt><trkpt lat="44.24054360397025" lon="9.582653259509819"><ele>586.0</ele><time>2026-04-09T13:04:42.999Z</time></trkpt><trkpt lat="44.24040665827017" lon="9.582751131584418"><ele>586.0</ele><time>2026-04-09T13:04:43.999Z</time></trkpt><trkpt lat="44.2403034147827" lon="9.58285714595301"><ele>586.0</ele><time>2026-04-09T13:04:44.999Z</time></trkpt><trkpt lat="44.24019018524029" lon="9.582902837517507"><ele>586.0</ele><time>2026-04-09T13:04:45.999Z</time></trkpt><trkpt lat="44.240066915205425" lon="9.58286410938861"><ele>586.0</ele><time>2026-04-09T13:04:46.999Z</time></trkpt><trkpt lat="44.23995085007929" lon="9.582760284469336"><ele>586.0</ele><time>2026-04-09T13:04:47.999Z</time></trkpt><trkpt lat="44.23988733503697" lon="9.582592699158548"><ele>586.0</ele><time>2026-04-09T13:04:48.999Z</time></trkpt><trkpt lat="44.23986073003236" lon="9.582413785505164"><ele>586.0</ele><time>2026-04-09T13:04:49.999Z</time></trkpt><trkpt lat="44.23984453107675" lon="9.582223446536062"><ele>586.0</ele><time>2026-04-09T13:04:50.999Z</time></trkpt><trkpt lat="44.239831950339024" lon="9.582024254824583"><ele>584.6666666666667</ele><time>2026-04-09T13:04:51.999Z</time></trkpt><trkpt lat="44.23977374708977" lon="9.581831203667596"><ele>583.3333333333334</ele><time>2026-04-09T13:04:52.999Z</time></trkpt><trkpt lat="44.239672255096046" lon="9.581661701727212"><ele>582.0</ele><time>2026-04-09T13:04:53.999Z</time></trkpt><trkpt lat="44.23955275863586" lon="9.581514470984878"><ele>582.0</ele><time>2026-04-09T13:04:54.999Z</time></trkpt><trkpt lat="44.23942820373953" lon="9.581372319497838"><ele>582.0</ele><time>2026-04-09T13:04:55.999Z</time></trkpt><trkpt lat="44.23930563505451" lon="9.581255271938264"><ele>582.0</ele><time>2026-04-09T13:04:56.999Z</time></trkpt><trkpt lat="44.239208770963565" lon="9.58119719221161"><ele>582.0</ele><time>2026-04-09T13:04:57.999Z</time></trkpt><trkpt lat="44.23910913655864" lon="9.581215549686418"><ele>582.0</ele><time>2026-04-09T13:04:58.999Z</time></trkpt><trkpt lat="44.239022046933826" lon="9.581314780616669"><ele>582.0</ele><time>2026-04-09T13:04:59.999Z</time></trkpt><trkpt lat="44.2389435238045" lon="9.581445109516489"><ele>582.0</ele><time>2026-04-09T13:05:00.999Z</time></trkpt><trkpt lat="44.2388335778392" lon="9.581538158997088"><ele>582.0</ele><time>2026-04-09T13:05:01.999Z</time></trkpt><trkpt lat="44.238710269819066" lon="9.581573063708401"><ele>582.25</ele><time>2026-04-09T13:05:02.999Z</time></trkpt><trkpt lat="44.2385776863729" lon="9.58155492556219"><ele>582.5</ele><time>2026-04-09T13:05:03.999Z</time></trkpt><trkpt lat="44.23844765757043" lon="9.581538607150978"><ele>582.75</ele><time>2026-04-09T13:05:04.999Z</time></trkpt><trkpt lat="44.23833983665544" lon="9.581586199129957"><ele>583.0</ele><time>2026-04-09T13:05:05.999Z</time></trkpt><trkpt lat="44.238256471999854" lon="9.581727747720898"><ele>583.0</ele><time>2026-04-09T13:05:06.999Z</time></trkpt><trkpt lat="44.23818538657969" lon="9.581894321514156"><ele>583.0</ele><time>2026-04-09T13:05:07.999Z</time></trkpt><trkpt lat="44.238120935414315" lon="9.582079208543185"><ele>583.0</ele><time>2026-04-09T13:05:09Z</time></trkpt><trkpt lat="44.23804662071082" lon="9.582258542228299"><ele>583.0</ele><time>2026-04-09T13:05:10Z</time></trkpt><trkpt lat="44.23798499020743" lon="9.58249318698792"><ele>583.0</ele><time>2026-04-09T13:05:11Z</time></trkpt><trkpt lat="44.237943217785855" lon="9.582708057027322"><ele>583.0</ele><time>2026-04-09T13:05:12Z</time></trkpt><trkpt lat="44.23789307978228" lon="9.58291324353327"><ele>583.0</ele><time>2026-04-09T13:05:13Z</time></trkpt><trkpt lat="44.23782807963886" lon="9.583085128591335"><ele>579.8</ele><time>2026-04-09T13:05:14Z</time></trkpt><trkpt lat="44.23773625126252" lon="9.583222537527726"><ele>576.5999999999999</ele><time>2026-04-09T13:05:15Z</time></trkpt><trkpt lat="44.237616443465626" lon="9.583290149576802"><ele>573.4000000000001</ele><time>2026-04-09T13:05:16Z</time></trkpt><trkpt lat="44.237517136375445" lon="9.583287687021818"><ele>570.2</ele><time>2026-04-09T13:05:17Z</time></trkpt><trkpt lat="44.23744298311569" lon="9.583229824756309"><ele>567.0</ele><time>2026-04-09T13:05:18Z</time></trkpt><trkpt lat="44.23740876368775" lon="9.583124306299172"><ele>567.0</ele><time>2026-04-09T13:05:19Z</time></trkpt><trkpt lat="44.237325710324896" lon="9.583010967843585"><ele>567.0</ele><time>2026-04-09T13:05:20Z</time></trkpt><trkpt lat="44.23725643783753" lon="9.582900390749314"><ele>567.0</ele><time>2026-04-09T13:05:21Z</time></trkpt><trkpt lat="44.2371414561985" lon="9.582876060685896"><ele>567.0</ele><time>2026-04-09T13:05:22Z</time></trkpt><trkpt lat="44.23702580210308" lon="9.582942501858303"><ele>568.75</ele><time>2026-04-09T13:05:23Z</time></trkpt><trkpt lat="44.23692847037879" lon="9.583059645887754"><ele>570.5</ele><time>2026-04-09T13:05:24Z</time></trkpt><trkpt lat="44.236838574819075" lon="9.583203336664242"><ele>572.25</ele><time>2026-04-09T13:05:25Z</time></trkpt><trkpt lat="44.236740363983884" lon="9.58333085336068"><ele>574.0</ele><time>2026-04-09T13:05:26Z</time></trkpt><trkpt lat="44.23663673194648" lon="9.583446190730765"><ele>574.0</ele><time>2026-04-09T13:05:27Z</time></trkpt><trkpt lat="44.23652038556957" lon="9.583487807632272"><ele>574.0</ele><time>2026-04-09T13:05:28Z</time></trkpt><trkpt lat="44.23639776861419" lon="9.583466458047916"><ele>574.0</ele><time>2026-04-09T13:05:29Z</time></trkpt><trkpt lat="44.236256456329905" lon="9.583485003097131"><ele>574.0</ele><time>2026-04-09T13:05:30Z</time></trkpt><trkpt lat="44.236110398902696" lon="9.58346488964331"><ele>572.6666666666667</ele><time>2026-04-09T13:05:31Z</time></trkpt><trkpt lat="44.23597837324203" lon="9.583358507597342"><ele>571.3333333333334</ele><time>2026-04-09T13:05:32Z</time></trkpt><trkpt lat="44.23584530648858" lon="9.583248996413232"><ele>570.0</ele><time>2026-04-09T13:05:33Z</time></trkpt><trkpt lat="44.235696528974955" lon="9.58316520572796"><ele>569.3333333333334</ele><time>2026-04-09T13:05:34Z</time></trkpt><trkpt lat="44.23553727270546" lon="9.583108966176463"><ele>568.6666666666667</ele><time>2026-04-09T13:05:35Z</time></trkpt><trkpt lat="44.23536769279934" lon="9.583095335912079"><ele>568.0</ele><time>2026-04-09T13:05:36Z</time></trkpt><trkpt lat="44.235212980922874" lon="9.583098316642348"><ele>568.0</ele><time>2026-04-09T13:05:37Z</time></trkpt><trkpt lat="44.23506966285882" lon="9.583162533834289"><ele>568.0</ele><time>2026-04-09T13:05:38Z</time></trkpt><trkpt lat="44.23494602661259" lon="9.583290656205989"><ele>568.0</ele><time>2026-04-09T13:05:39Z</time></trkpt><trkpt lat="44.23482657120386" lon="9.583430267991499"><ele>570.6666666666667</ele><time>2026-04-09T13:05:40Z</time></trkpt><trkpt lat="44.23469516822282" lon="9.583549423216759"><ele>573.3333333333334</ele><time>2026-04-09T13:05:41Z</time></trkpt><trkpt lat="44.23457254920856" lon="9.583674858773582"><ele>576.0</ele><time>2026-04-09T13:05:42Z</time></trkpt><trkpt lat="44.23446611289587" lon="9.58383074006213"><ele>579.25</ele><time>2026-04-09T13:05:43Z</time></trkpt><trkpt lat="44.234373288064084" lon="9.58398986143127"><ele>582.5</ele><time>2026-04-09T13:05:44Z</time></trkpt><trkpt lat="44.23429141705808" lon="9.584145418737297"><ele>585.75</ele><time>2026-04-09T13:05:45Z</time></trkpt><trkpt lat="44.234216241133055" lon="9.584279425624494"><ele>589.0</ele><time>2026-04-09T13:05:46Z</time></trkpt><trkpt lat="44.23415252175735" lon="9.584410489035003"><ele>589.75</ele><time>2026-04-09T13:05:47Z</time></trkpt><trkpt lat="44.23413345790606" lon="9.584574079146858"><ele>590.5</ele><time>2026-04-09T13:05:48Z</time></trkpt><trkpt lat="44.23417144435571" lon="9.584758707777066"><ele>591.25</ele><time>2026-04-09T13:05:49Z</time></trkpt><trkpt lat="44.23423025969853" lon="9.58492076432852"><ele>592.0</ele><time>2026-04-09T13:05:50Z</time></trkpt><trkpt lat="44.234310981663924" lon="9.585071264751852"><ele>592.0</ele><time>2026-04-09T13:05:51Z</time></trkpt><trkpt lat="44.234375391308575" lon="9.585214514255808"><ele>592.0</ele><time>2026-04-09T13:05:52Z</time></trkpt><trkpt lat="44.23443107330184" lon="9.585360141718738"><ele>592.0</ele><time>2026-04-09T13:05:53Z</time></trkpt><trkpt lat="44.23446294262834" lon="9.585484656759675"><ele>592.0</ele><time>2026-04-09T13:05:54Z</time></trkpt><trkpt lat="44.23444073843797" lon="9.58560598743218"><ele>592.0</ele><time>2026-04-09T13:05:55Z</time></trkpt><trkpt lat="44.234355103788694" lon="9.5856635360382"><ele>594.0</ele><time>2026-04-09T13:05:56Z</time></trkpt><trkpt lat="44.23426580259852" lon="9.585697602008382"><ele>596.0</ele><time>2026-04-09T13:05:57Z</time></trkpt><trkpt lat="44.23416690225492" lon="9.585742506176645"><ele>598.0</ele><time>2026-04-09T13:05:58Z</time></trkpt><trkpt lat="44.234071534192516" lon="9.585821768232874"><ele>600.0</ele><time>2026-04-09T13:05:59Z</time></trkpt><trkpt lat="44.233978169077716" lon="9.58590285011674"><ele>602.0</ele><time>2026-04-09T13:06:00Z</time></trkpt><trkpt lat="44.2338768638253" lon="9.585981097495925"><ele>602.0</ele><time>2026-04-09T13:06:01Z</time></trkpt><trkpt lat="44.23378069218826" lon="9.586091600217163"><ele>602.0</ele><time>2026-04-09T13:06:02Z</time></trkpt><trkpt lat="44.2337021516037" lon="9.586224677922148"><ele>602.0</ele><time>2026-04-09T13:06:03Z</time></trkpt><trkpt lat="44.233612904522026" lon="9.586310881924446"><ele>602.0</ele><time>2026-04-09T13:06:04Z</time></trkpt><trkpt lat="44.233513577261334" lon="9.586351389405676"><ele>602.4</ele><time>2026-04-09T13:06:05Z</time></trkpt><trkpt lat="44.23340917609009" lon="9.586337036021433"><ele>602.8000000000001</ele><time>2026-04-09T13:06:06Z</time></trkpt><trkpt lat="44.23331597824264" lon="9.586266268555095"><ele>603.2</ele><time>2026-04-09T13:06:07Z</time></trkpt><trkpt lat="44.23322292424238" lon="9.586193280605098"><ele>603.6</ele><time>2026-04-09T13:06:08Z</time></trkpt><trkpt lat="44.23313031796148" lon="9.586128083416183"><ele>604.0</ele><time>2026-04-09T13:06:09Z</time></trkpt><trkpt lat="44.23301977129326" lon="9.586090758316157"><ele>604.0</ele><time>2026-04-09T13:06:10Z</time></trkpt><trkpt lat="44.23290471244705" lon="9.58606526479566"><ele>604.0</ele><time>2026-04-09T13:06:11Z</time></trkpt><trkpt lat="44.23278188959372" lon="9.58604007489654"><ele>604.0</ele><time>2026-04-09T13:06:12Z</time></trkpt><trkpt lat="44.23265873074985" lon="9.586007471236366"><ele>604.0</ele><time>2026-04-09T13:06:13Z</time></trkpt><trkpt lat="44.23253790181641" lon="9.585979698852952"><ele>604.0</ele><time>2026-04-09T13:06:14Z</time></trkpt><trkpt lat="44.23240757422429" lon="9.586016526824032"><ele>604.0</ele><time>2026-04-09T13:06:15Z</time></trkpt><trkpt lat="44.23227735654073" lon="9.586133067279304"><ele>604.0</ele><time>2026-04-09T13:06:16Z</time></trkpt><trkpt lat="44.23216613984872" lon="9.586266986120496"><ele>604.0</ele><time>2026-04-09T13:06:16.999Z</time></trkpt><trkpt lat="44.23203679532479" lon="9.586370305121703"><ele>600.5</ele><time>2026-04-09T13:06:17.999Z</time></trkpt><trkpt lat="44.23188595211452" lon="9.586431265566937"><ele>597.0</ele><time>2026-04-09T13:06:18.999Z</time></trkpt><trkpt lat="44.23175022471585" lon="9.586483981708888"><ele>593.5</ele><time>2026-04-09T13:06:19.999Z</time></trkpt><trkpt lat="44.2316502248858" lon="9.586522130423951"><ele>590.0</ele><time>2026-04-09T13:06:20.999Z</time></trkpt><trkpt lat="44.231563808777814" lon="9.586512663687405"><ele>586.8</ele><time>2026-04-09T13:06:21.999Z</time></trkpt><trkpt lat="44.23146953978125" lon="9.586465674668958"><ele>583.6</ele><time>2026-04-09T13:06:22.999Z</time></trkpt><trkpt lat="44.23137005867877" lon="9.586444692662502"><ele>580.4</ele><time>2026-04-09T13:06:23.999Z</time></trkpt><trkpt lat="44.23126201511826" lon="9.586467828458355"><ele>577.2</ele><time>2026-04-09T13:06:24.999Z</time></trkpt><trkpt lat="44.2311717712749" lon="9.586552975077764"><ele>574.0</ele><time>2026-04-09T13:06:25.999Z</time></trkpt><trkpt lat="44.23106616859779" lon="9.58667122075675"><ele>574.0</ele><time>2026-04-09T13:06:26.999Z</time></trkpt><trkpt lat="44.23098551729833" lon="9.586828492594284"><ele>574.0</ele><time>2026-04-09T13:06:27.999Z</time></trkpt><trkpt lat="44.23090078972333" lon="9.58698380888319"><ele>574.0</ele><time>2026-04-09T13:06:28.999Z</time></trkpt><trkpt lat="44.23080958827575" lon="9.587146385970014"><ele>574.0</ele><time>2026-04-09T13:06:29.999Z</time></trkpt><trkpt lat="44.2307139158332" lon="9.587308960867224"><ele>572.0</ele><time>2026-04-09T13:06:30.999Z</time></trkpt><trkpt lat="44.2306293346651" lon="9.587482698066204"><ele>570.0</ele><time>2026-04-09T13:06:31.999Z</time></trkpt><trkpt lat="44.230555285055786" lon="9.587653415950513"><ele>568.0</ele><time>2026-04-09T13:06:32.999Z</time></trkpt><trkpt lat="44.2304798572839" lon="9.587806555826996"><ele>566.0</ele><time>2026-04-09T13:06:33.999Z</time></trkpt><trkpt lat="44.2303946042573" lon="9.587971887211395"><ele>570.75</ele><time>2026-04-09T13:06:34.999Z</time></trkpt><trkpt lat="44.23030773703379" lon="9.588128014287028"><ele>575.5</ele><time>2026-04-09T13:06:35.999Z</time></trkpt><trkpt lat="44.23021273329155" lon="9.588266137397637"><ele>580.25</ele><time>2026-04-09T13:06:36.999Z</time></trkpt><trkpt lat="44.23012468719281" lon="9.58838214351026"><ele>585.0</ele><time>2026-04-09T13:06:37.999Z</time></trkpt><trkpt lat="44.23003415408009" lon="9.588513671573374"><ele>585.0</ele><time>2026-04-09T13:06:38.999Z</time></trkpt><trkpt lat="44.229943836688754" lon="9.58863718978927"><ele>585.0</ele><time>2026-04-09T13:06:39.999Z</time></trkpt><trkpt lat="44.2298647632384" lon="9.588733135184814"><ele>585.0</ele><time>2026-04-09T13:06:40.999Z</time></trkpt><trkpt lat="44.229781392455656" lon="9.588814399084649"><ele>585.0</ele><time>2026-04-09T13:06:41.999Z</time></trkpt><trkpt lat="44.229685264676974" lon="9.588917401600888"><ele>583.75</ele><time>2026-04-09T13:06:42.999Z</time></trkpt><trkpt lat="44.22959159193728" lon="9.589047565256239"><ele>582.5</ele><time>2026-04-09T13:06:43.999Z</time></trkpt><trkpt lat="44.22951086602933" lon="9.589205513086387"><ele>581.25</ele><time>2026-04-09T13:06:44.999Z</time></trkpt><trkpt lat="44.22943070069944" lon="9.589377152322186"><ele>580.0</ele><time>2026-04-09T13:06:45.999Z</time></trkpt><trkpt lat="44.229348385095776" lon="9.589540283200527"><ele>587.0</ele><time>2026-04-09T13:06:46.999Z</time></trkpt><trkpt lat="44.229266963964164" lon="9.589688116227423"><ele>594.0</ele><time>2026-04-09T13:06:47.999Z</time></trkpt><trkpt lat="44.229161907157255" lon="9.58975073539048"><ele>601.0</ele><time>2026-04-09T13:06:48.999Z</time></trkpt><trkpt lat="44.22907686710936" lon="9.589826693758406"><ele>608.0</ele><time>2026-04-09T13:06:49.999Z</time></trkpt><trkpt lat="44.22897227860186" lon="9.58984599761501"><ele>608.5</ele><time>2026-04-09T13:06:50.999Z</time></trkpt><trkpt lat="44.228871024416584" lon="9.58981968973877"><ele>609.0</ele><time>2026-04-09T13:06:51.999Z</time></trkpt><trkpt lat="44.22878676418658" lon="9.5897374547823"><ele>609.5</ele><time>2026-04-09T13:06:52.999Z</time></trkpt><trkpt lat="44.22867732676459" lon="9.589667974518223"><ele>610.0</ele><time>2026-04-09T13:06:53.999Z</time></trkpt><trkpt lat="44.228573280023035" lon="9.58956263953574"><ele>605.0</ele><time>2026-04-09T13:06:54.999Z</time></trkpt><trkpt lat="44.22846743095617" lon="9.58945329316489"><ele>600.0</ele><time>2026-04-09T13:06:55.999Z</time></trkpt><trkpt lat="44.22834909751609" lon="9.589352480316093"><ele>595.0</ele><time>2026-04-09T13:06:56.999Z</time></trkpt><trkpt lat="44.228248719499106" lon="9.58926475287697"><ele>590.0</ele><time>2026-04-09T13:06:57.999Z</time></trkpt><trkpt lat="44.228152172873145" lon="9.589187681921137"><ele>591.0</ele><time>2026-04-09T13:06:58.999Z</time></trkpt><trkpt lat="44.228056769483665" lon="9.589112373513107"><ele>592.0</ele><time>2026-04-09T13:06:59.999Z</time></trkpt><trkpt lat="44.228011081073234" lon="9.588958520647752"><ele>593.0</ele><time>2026-04-09T13:07:00.999Z</time></trkpt><trkpt lat="44.22796440182923" lon="9.588792414182182"><ele>594.0</ele><time>2026-04-09T13:07:01.999Z</time></trkpt><trkpt lat="44.22792494233303" lon="9.588632501600062"><ele>591.4</ele><time>2026-04-09T13:07:02.999Z</time></trkpt><trkpt lat="44.22787342375551" lon="9.588487994426464"><ele>588.8</ele><time>2026-04-09T13:07:03.999Z</time></trkpt><trkpt lat="44.22780822332678" lon="9.588387209786593"><ele>586.2</ele><time>2026-04-09T13:07:04.999Z</time></trkpt><trkpt lat="44.22772493503122" lon="9.58835084681659"><ele>583.6</ele><time>2026-04-09T13:07:05.999Z</time></trkpt><trkpt lat="44.22762428973801" lon="9.588380404489214"><ele>581.0</ele><time>2026-04-09T13:07:06.999Z</time></trkpt><trkpt lat="44.22753465836244" lon="9.588456386258748"><ele>581.0</ele><time>2026-04-09T13:07:07.999Z</time></trkpt><trkpt lat="44.22747285210681" lon="9.58859780662347"><ele>581.0</ele><time>2026-04-09T13:07:08.999Z</time></trkpt><trkpt lat="44.227455671463964" lon="9.588758919308065"><ele>581.0</ele><time>2026-04-09T13:07:09.999Z</time></trkpt><trkpt lat="44.22746809494493" lon="9.588946291004847"><ele>581.0</ele><time>2026-04-09T13:07:10.999Z</time></trkpt><trkpt lat="44.227455781582876" lon="9.58912016567286"><ele>579.75</ele><time>2026-04-09T13:07:11.999Z</time></trkpt><trkpt lat="44.22737921520896" lon="9.589235487286343"><ele>578.5</ele><time>2026-04-09T13:07:12.999Z</time></trkpt><trkpt lat="44.227300484838175" lon="9.589401620027589"><ele>577.25</ele><time>2026-04-09T13:07:13.999Z</time></trkpt><trkpt lat="44.227237735295255" lon="9.589579627215922"><ele>576.0</ele><time>2026-04-09T13:07:15Z</time></trkpt><trkpt lat="44.22722176031446" lon="9.589754968631766"><ele>579.8</ele><time>2026-04-09T13:07:16Z</time></trkpt><trkpt lat="44.22720356206335" lon="9.589891596400513"><ele>583.6</ele><time>2026-04-09T13:07:17Z</time></trkpt><trkpt lat="44.22713394364337" lon="9.589979267003919"><ele>587.4</ele><time>2026-04-09T13:07:18Z</time></trkpt><trkpt lat="44.22701073418037" lon="9.589973018819567"><ele>591.2</ele><time>2026-04-09T13:07:19Z</time></trkpt><trkpt lat="44.226888517142655" lon="9.590008950971363"><ele>595.0</ele><time>2026-04-09T13:07:20Z</time></trkpt><trkpt lat="44.22676210251166" lon="9.590056704736039"><ele>595.0</ele><time>2026-04-09T13:07:21Z</time></trkpt><trkpt lat="44.226631685445206" lon="9.59010401375111"><ele>595.0</ele><time>2026-04-09T13:07:22Z</time></trkpt><trkpt lat="44.226493815133104" lon="9.590144090162402"><ele>595.0</ele><time>2026-04-09T13:07:23Z</time></trkpt><trkpt lat="44.22634947590984" lon="9.590098288582897"><ele>595.0</ele><time>2026-04-09T13:07:24Z</time></trkpt><trkpt lat="44.22620172976314" lon="9.590059067708305"><ele>594.0</ele><time>2026-04-09T13:07:25Z</time></trkpt><trkpt lat="44.22606444454007" lon="9.59001256681654"><ele>593.0</ele><time>2026-04-09T13:07:26Z</time></trkpt><trkpt lat="44.22591240227722" lon="9.590030219068039"><ele>592.0</ele><time>2026-04-09T13:07:27Z</time></trkpt><trkpt lat="44.225754590092514" lon="9.59010313459218"><ele>591.6666666666667</ele><time>2026-04-09T13:07:28Z</time></trkpt><trkpt lat="44.22559082080401" lon="9.590141710537234"><ele>591.3333333333334</ele><time>2026-04-09T13:07:29Z</time></trkpt><trkpt lat="44.22542219833376" lon="9.590131004212486"><ele>591.0</ele><time>2026-04-09T13:07:30Z</time></trkpt><trkpt lat="44.225248405090454" lon="9.590120388822067"><ele>591.0</ele><time>2026-04-09T13:07:31Z</time></trkpt><trkpt lat="44.225101993472215" lon="9.5901458196965"><ele>591.0</ele><time>2026-04-09T13:07:32Z</time></trkpt><trkpt lat="44.22497668390666" lon="9.590195110816493"><ele>591.0</ele><time>2026-04-09T13:07:33Z</time></trkpt><trkpt lat="44.22486526288061" lon="9.590292583238428"><ele>591.0</ele><time>2026-04-09T13:07:34Z</time></trkpt><trkpt lat="44.2247455845618" lon="9.590406406144725"><ele>591.75</ele><time>2026-04-09T13:07:35Z</time></trkpt><trkpt lat="44.22463893879054" lon="9.590555725418794"><ele>592.5</ele><time>2026-04-09T13:07:36Z</time></trkpt><trkpt lat="44.22456059874744" lon="9.590693443740795"><ele>593.25</ele><time>2026-04-09T13:07:37Z</time></trkpt><trkpt lat="44.22445646924292" lon="9.590767340627218"><ele>594.0</ele><time>2026-04-09T13:07:38Z</time></trkpt><trkpt lat="44.22432268699227" lon="9.590827298864713"><ele>594.0</ele><time>2026-04-09T13:07:39Z</time></trkpt><trkpt lat="44.224184165708834" lon="9.590867066848654"><ele>594.0</ele><time>2026-04-09T13:07:40Z</time></trkpt><trkpt lat="44.22404726171892" lon="9.590936756869224"><ele>594.0</ele><time>2026-04-09T13:07:41Z</time></trkpt><trkpt lat="44.22391148431094" lon="9.591033789862472"><ele>594.0</ele><time>2026-04-09T13:07:42Z</time></trkpt><trkpt lat="44.22377280250551" lon="9.591130148749334"><ele>594.25</ele><time>2026-04-09T13:07:43Z</time></trkpt><trkpt lat="44.223640382790784" lon="9.591225336295203"><ele>594.5</ele><time>2026-04-09T13:07:44Z</time></trkpt><trkpt lat="44.2235162216386" lon="9.591311295960224"><ele>594.75</ele><time>2026-04-09T13:07:45Z</time></trkpt><trkpt lat="44.22338564472488" lon="9.591357101629699"><ele>595.0</ele><time>2026-04-09T13:07:46Z</time></trkpt><trkpt lat="44.22324593555886" lon="9.59137025389146"><ele>595.5</ele><time>2026-04-09T13:07:47Z</time></trkpt><trkpt lat="44.22311073723937" lon="9.591329060471667"><ele>596.0</ele><time>2026-04-09T13:07:48Z</time></trkpt><trkpt lat="44.22297470112304" lon="9.591293252566045"><ele>596.5</ele><time>2026-04-09T13:07:49Z</time></trkpt><trkpt lat="44.22285041701128" lon="9.59121697188649"><ele>597.0</ele><time>2026-04-09T13:07:50Z</time></trkpt><trkpt lat="44.22272414539968" lon="9.591162710997285"><ele>597.0</ele><time>2026-04-09T13:07:51Z</time></trkpt><trkpt lat="44.22259405706507" lon="9.591150606865352"><ele>597.0</ele><time>2026-04-09T13:07:52Z</time></trkpt><trkpt lat="44.222483157952475" lon="9.59119732827124"><ele>597.0</ele><time>2026-04-09T13:07:53Z</time></trkpt><trkpt lat="44.222383831426775" lon="9.59120219546805"><ele>597.0</ele><time>2026-04-09T13:07:54Z</time></trkpt><trkpt lat="44.22230030309616" lon="9.591122887504923"><ele>597.0</ele><time>2026-04-09T13:07:55Z</time></trkpt><trkpt lat="44.22224988410513" lon="9.59098840815687"><ele>601.0</ele><time>2026-04-09T13:07:56Z</time></trkpt><trkpt lat="44.222271066930745" lon="9.5908220819859"><ele>605.0</ele><time>2026-04-09T13:07:57Z</time></trkpt><trkpt lat="44.22227081038254" lon="9.590666047164227"><ele>609.0</ele><time>2026-04-09T13:07:58Z</time></trkpt><trkpt lat="44.22225295027138" lon="9.590508704828846"><ele>613.0</ele><time>2026-04-09T13:07:59Z</time></trkpt><trkpt lat="44.22220705347293" lon="9.590348529591296"><ele>611.5</ele><time>2026-04-09T13:08:00Z</time></trkpt><trkpt lat="44.222127170397734" lon="9.59020114369682"><ele>610.0</ele><time>2026-04-09T13:08:01Z</time></trkpt><trkpt lat="44.22202862009263" lon="9.590066762104716"><ele>608.5</ele><time>2026-04-09T13:08:02Z</time></trkpt><trkpt lat="44.22192120196547" lon="9.58993343052499"><ele>607.0</ele><time>2026-04-09T13:08:03Z</time></trkpt><trkpt lat="44.22181581639985" lon="9.589785808613637"><ele>607.0</ele><time>2026-04-09T13:08:04Z</time></trkpt><trkpt lat="44.221711374760716" lon="9.589633776609812"><ele>607.0</ele><time>2026-04-09T13:08:05Z</time></trkpt><trkpt lat="44.2215985752415" lon="9.589481468188504"><ele>607.0</ele><time>2026-04-09T13:08:06Z</time></trkpt><trkpt lat="44.221477569323184" lon="9.589335922282064"><ele>611.0</ele><time>2026-04-09T13:08:07Z</time></trkpt><trkpt lat="44.22138498137495" lon="9.589149310640172"><ele>615.0</ele><time>2026-04-09T13:08:08Z</time></trkpt><trkpt lat="44.22130903729222" lon="9.58895319334394"><ele>619.0</ele><time>2026-04-09T13:08:09Z</time></trkpt><trkpt lat="44.221220106703726" lon="9.58874870384926"><ele>613.5</ele><time>2026-04-09T13:08:10Z</time></trkpt><trkpt lat="44.221146335336535" lon="9.588558667767321"><ele>608.0</ele><time>2026-04-09T13:08:11Z</time></trkpt><trkpt lat="44.22106472140916" lon="9.58842089038394"><ele>602.5</ele><time>2026-04-09T13:08:12Z</time></trkpt><trkpt lat="44.220953119392945" lon="9.588335924419919"><ele>597.0</ele><time>2026-04-09T13:08:13Z</time></trkpt><trkpt lat="44.22082290335407" lon="9.588298231242604"><ele>597.0</ele><time>2026-04-09T13:08:14Z</time></trkpt><trkpt lat="44.22068062049045" lon="9.588296453837026"><ele>597.0</ele><time>2026-04-09T13:08:15Z</time></trkpt><trkpt lat="44.220540693063334" lon="9.58828034794871"><ele>597.0</ele><time>2026-04-09T13:08:16Z</time></trkpt><trkpt lat="44.22040174728122" lon="9.588256814843536"><ele>597.0</ele><time>2026-04-09T13:08:17Z</time></trkpt><trkpt lat="44.220259343351515" lon="9.588236139085051"><ele>599.0</ele><time>2026-04-09T13:08:18Z</time></trkpt><trkpt lat="44.22011369781751" lon="9.588214653495873"><ele>601.0</ele><time>2026-04-09T13:08:18.999Z</time></trkpt><trkpt lat="44.21996714926847" lon="9.588190433684957"><ele>603.0</ele><time>2026-04-09T13:08:19.999Z</time></trkpt><trkpt lat="44.219813937971665" lon="9.588213818114099"><ele>605.0</ele><time>2026-04-09T13:08:20.999Z</time></trkpt><trkpt lat="44.21966953588375" lon="9.588192705301296"><ele>607.75</ele><time>2026-04-09T13:08:21.999Z</time></trkpt><trkpt lat="44.21956021468848" lon="9.588077120504519"><ele>610.5</ele><time>2026-04-09T13:08:22.999Z</time></trkpt><trkpt lat="44.219457574712315" lon="9.587945849272563"><ele>613.25</ele><time>2026-04-09T13:08:23.999Z</time></trkpt><trkpt lat="44.21936117394707" lon="9.587825135272668"><ele>616.0</ele><time>2026-04-09T13:08:24.999Z</time></trkpt><trkpt lat="44.21925829947197" lon="9.587722814650384"><ele>608.75</ele><time>2026-04-09T13:08:25.999Z</time></trkpt><trkpt lat="44.219136668806925" lon="9.587675051621003"><ele>601.5</ele><time>2026-04-09T13:08:26.999Z</time></trkpt><trkpt lat="44.21900609136065" lon="9.587665574741571"><ele>594.25</ele><time>2026-04-09T13:08:27.999Z</time></trkpt><trkpt lat="44.218874800199494" lon="9.58766370047999"><ele>587.0</ele><time>2026-04-09T13:08:28.999Z</time></trkpt><trkpt lat="44.218746236901495" lon="9.587709514066994"><ele>587.0</ele><time>2026-04-09T13:08:29.999Z</time></trkpt><trkpt lat="44.21862546989028" lon="9.587796674613228"><ele>587.0</ele><time>2026-04-09T13:08:30.999Z</time></trkpt><trkpt lat="44.21851344144066" lon="9.587913230402128"><ele>587.0</ele><time>2026-04-09T13:08:31.999Z</time></trkpt><trkpt lat="44.21839353775913" lon="9.588009817757714"><ele>587.0</ele><time>2026-04-09T13:08:32.999Z</time></trkpt><trkpt lat="44.21825728330367" lon="9.588062124149285"><ele>597.0</ele><time>2026-04-09T13:08:33.999Z</time></trkpt><trkpt lat="44.218115684266245" lon="9.58809788983579"><ele>607.0</ele><time>2026-04-09T13:08:34.999Z</time></trkpt><trkpt lat="44.21797919055641" lon="9.588109110869537"><ele>617.0</ele><time>2026-04-09T13:08:35.999Z</time></trkpt><trkpt lat="44.21786366213473" lon="9.588119072775564"><ele>627.0</ele><time>2026-04-09T13:08:36.999Z</time></trkpt><trkpt lat="44.217778681598816" lon="9.588114424877004"><ele>627.0</ele><time>2026-04-09T13:08:37.999Z</time></trkpt><trkpt lat="44.21770925741198" lon="9.588041163176484"><ele>627.0</ele><time>2026-04-09T13:08:38.999Z</time></trkpt><trkpt lat="44.2176796313224" lon="9.587916862189788"><ele>627.0</ele><time>2026-04-09T13:08:39.999Z</time></trkpt><trkpt lat="44.21772773606643" lon="9.587790176260338"><ele>627.0</ele><time>2026-04-09T13:08:40.999Z</time></trkpt><trkpt lat="44.21774459200143" lon="9.587649924945996"><ele>627.0</ele><time>2026-04-09T13:08:41.999Z</time></trkpt><trkpt lat="44.217789161782775" lon="9.587507000456636"><ele>626.75</ele><time>2026-04-09T13:08:42.999Z</time></trkpt><trkpt lat="44.21782300531503" lon="9.587344337907302"><ele>626.5</ele><time>2026-04-09T13:08:43.999Z</time></trkpt><trkpt lat="44.21785277759211" lon="9.587168781502386"><ele>626.25</ele><time>2026-04-09T13:08:44.999Z</time></trkpt><trkpt lat="44.21787705769705" lon="9.586977501320801"><ele>626.0</ele><time>2026-04-09T13:08:45.999Z</time></trkpt><trkpt lat="44.2178685384706" lon="9.586772170362474"><ele>623.6666666666666</ele><time>2026-04-09T13:08:46.999Z</time></trkpt><trkpt lat="44.21781182676321" lon="9.58656921162086"><ele>621.3333333333334</ele><time>2026-04-09T13:08:47.999Z</time></trkpt><trkpt lat="44.217722270437086" lon="9.58637938131908"><ele>619.0</ele><time>2026-04-09T13:08:48.999Z</time></trkpt><trkpt lat="44.217633186699594" lon="9.586184947075203"><ele>613.3333333333334</ele><time>2026-04-09T13:08:49.999Z</time></trkpt><trkpt lat="44.217561516367674" lon="9.585976558978032"><ele>607.6666666666666</ele><time>2026-04-09T13:08:50.999Z</time></trkpt><trkpt lat="44.21750757845919" lon="9.585760509060366"><ele>602.0</ele><time>2026-04-09T13:08:51.999Z</time></trkpt><trkpt lat="44.21747318481006" lon="9.585595272475706"><ele>602.0</ele><time>2026-04-09T13:08:52.999Z</time></trkpt><trkpt lat="44.21741829546824" lon="9.58548309749811"><ele>602.0</ele><time>2026-04-09T13:08:53.999Z</time></trkpt><trkpt lat="44.21731422259683" lon="9.585421906167083"><ele>602.0</ele><time>2026-04-09T13:08:54.999Z</time></trkpt><trkpt lat="44.217187127912176" lon="9.58541083718415"><ele>602.0</ele><time>2026-04-09T13:08:55.999Z</time></trkpt><trkpt lat="44.21706066689203" lon="9.585416928534594"><ele>600.0</ele><time>2026-04-09T13:08:56.999Z</time></trkpt><trkpt lat="44.21693920917876" lon="9.585381841290483"><ele>598.0</ele><time>2026-04-09T13:08:57.999Z</time></trkpt><trkpt lat="44.21682217492272" lon="9.58531095260074"><ele>596.0</ele><time>2026-04-09T13:08:58.999Z</time></trkpt><trkpt lat="44.216702803233574" lon="9.585242936161388"><ele>594.0</ele><time>2026-04-09T13:08:59.999Z</time></trkpt><trkpt lat="44.21657605275201" lon="9.585215750913816"><ele>596.25</ele><time>2026-04-09T13:09:00.999Z</time></trkpt><trkpt lat="44.216442884022825" lon="9.58524604371335"><ele>598.5</ele><time>2026-04-09T13:09:01.999Z</time></trkpt><trkpt lat="44.21631253957512" lon="9.585302171213847"><ele>600.75</ele><time>2026-04-09T13:09:02.999Z</time></trkpt><trkpt lat="44.21618425222755" lon="9.585353440759638"><ele>603.0</ele><time>2026-04-09T13:09:03.999Z</time></trkpt><trkpt lat="44.21607104797648" lon="9.585408052859938"><ele>603.0</ele><time>2026-04-09T13:09:04.999Z</time></trkpt><trkpt lat="44.215969093408404" lon="9.585466839478121"><ele>603.0</ele><time>2026-04-09T13:09:05.999Z</time></trkpt><trkpt lat="44.21588741718345" lon="9.585507811298077"><ele>603.0</ele><time>2026-04-09T13:09:06.999Z</time></trkpt><trkpt lat="44.21582288662942" lon="9.58550019488251"><ele>603.0</ele><time>2026-04-09T13:09:07.999Z</time></trkpt><trkpt lat="44.21574770816483" lon="9.585398178773666"><ele>603.0</ele><time>2026-04-09T13:09:09.999Z</time></trkpt><trkpt lat="44.21573068031451" lon="9.58530134984295"><ele>603.0</ele><time>2026-04-09T13:09:11.999Z</time></trkpt><trkpt lat="44.215804464672665" lon="9.585477096142995"><ele>603.0</ele><time>2026-04-09T13:09:37Z</time></trkpt><trkpt lat="44.21574667053432" lon="9.58543132875314"><ele>603.0</ele><time>2026-04-09T13:10:06Z</time></trkpt><trkpt lat="44.21573733156915" lon="9.585340102504215"><ele>603.0</ele><time>2026-04-09T13:10:11Z</time></trkpt><trkpt lat="44.21566931917603" lon="9.58522852624931"><ele>603.0</ele><time>2026-04-09T13:10:44.999Z</time></trkpt><trkpt lat="44.21560241221619" lon="9.58507776444964"><ele>603.0</ele><time>2026-04-09T13:10:46.999Z</time></trkpt><trkpt lat="44.215545368627005" lon="9.584977425220314"><ele>604.4</ele><time>2026-04-09T13:10:47.999Z</time></trkpt><trkpt lat="44.21548720092687" lon="9.584865637402627"><ele>605.8</ele><time>2026-04-09T13:10:48.999Z</time></trkpt><trkpt lat="44.215449160987816" lon="9.58472275830447"><ele>607.2</ele><time>2026-04-09T13:10:49.999Z</time></trkpt><trkpt lat="44.215420830739184" lon="9.584568491038752"><ele>608.6</ele><time>2026-04-09T13:10:50.999Z</time></trkpt><trkpt lat="44.2153881351881" lon="9.584414350346087"><ele>610.0</ele><time>2026-04-09T13:10:51.999Z</time></trkpt><trkpt lat="44.215313543088996" lon="9.584290193320253"><ele>610.0</ele><time>2026-04-09T13:10:52.999Z</time></trkpt><trkpt lat="44.21520445508871" lon="9.584208101201549"><ele>610.0</ele><time>2026-04-09T13:10:53.999Z</time></trkpt><trkpt lat="44.215080705040684" lon="9.584154045402839"><ele>610.0</ele><time>2026-04-09T13:10:54.999Z</time></trkpt><trkpt lat="44.21495097354098" lon="9.584099636172184"><ele>610.0</ele><time>2026-04-09T13:10:55.999Z</time></trkpt><trkpt lat="44.214819414454965" lon="9.584022698467798"><ele>616.0</ele><time>2026-04-09T13:10:56.999Z</time></trkpt><trkpt lat="44.21467857315274" lon="9.583941904945087"><ele>622.0</ele><time>2026-04-09T13:10:57.999Z</time></trkpt><trkpt lat="44.21453411522146" lon="9.583860427989611"><ele>628.0</ele><time>2026-04-09T13:10:58.999Z</time></trkpt><trkpt lat="44.21439261889209" lon="9.583767736510822"><ele>621.25</ele><time>2026-04-09T13:10:59.999Z</time></trkpt><trkpt lat="44.214249250020494" lon="9.583675567813449"><ele>614.5</ele><time>2026-04-09T13:11:00.999Z</time></trkpt><trkpt lat="44.21410872498726" lon="9.583609566539907"><ele>607.75</ele><time>2026-04-09T13:11:01.999Z</time></trkpt><trkpt lat="44.214000170797085" lon="9.583561700285472"><ele>601.0</ele><time>2026-04-09T13:11:02.999Z</time></trkpt><trkpt lat="44.21390426377065" lon="9.583538962098007"><ele>600.75</ele><time>2026-04-09T13:11:03.999Z</time></trkpt><trkpt lat="44.21380298349526" lon="9.583584177226957"><ele>600.5</ele><time>2026-04-09T13:11:04.999Z</time></trkpt><trkpt lat="44.21370338368348" lon="9.58368908835959"><ele>600.25</ele><time>2026-04-09T13:11:05.999Z</time></trkpt><trkpt lat="44.213608474778816" lon="9.583789285570267"><ele>600.0</ele><time>2026-04-09T13:11:06.999Z</time></trkpt><trkpt lat="44.21350563635548" lon="9.58390037491279"><ele>604.0</ele><time>2026-04-09T13:11:07.999Z</time></trkpt><trkpt lat="44.2134108466271" lon="9.584033702520408"><ele>608.0</ele><time>2026-04-09T13:11:08.999Z</time></trkpt><trkpt lat="44.213321678981735" lon="9.584182562226378"><ele>612.0</ele><time>2026-04-09T13:11:09.999Z</time></trkpt><trkpt lat="44.213249486369975" lon="9.584330858907329"><ele>616.0</ele><time>2026-04-09T13:11:10.999Z</time></trkpt><trkpt lat="44.21317517600242" lon="9.584443846429046"><ele>614.2</ele><time>2026-04-09T13:11:11.999Z</time></trkpt><trkpt lat="44.21310755593915" lon="9.584498694512552"><ele>612.4000000000001</ele><time>2026-04-09T13:11:12.999Z</time></trkpt><trkpt lat="44.213030317484524" lon="9.584480803512545"><ele>610.6</ele><time>2026-04-09T13:11:13.999Z</time></trkpt><trkpt lat="44.21295427914391" lon="9.584405519360908"><ele>608.8000000000001</ele><time>2026-04-09T13:11:14.999Z</time></trkpt><trkpt lat="44.21290815756762" lon="9.5842572205652"><ele>607.0</ele><time>2026-04-09T13:11:15.999Z</time></trkpt><trkpt lat="44.212848410603435" lon="9.584170050588872"><ele>607.0</ele><time>2026-04-09T13:11:16.999Z</time></trkpt><trkpt lat="44.21274903901172" lon="9.58418832139507"><ele>607.0</ele><time>2026-04-09T13:11:17.999Z</time></trkpt><trkpt lat="44.21265021204716" lon="9.584278698725637"><ele>607.0</ele><time>2026-04-09T13:11:18.999Z</time></trkpt><trkpt lat="44.21257847323777" lon="9.584419503215061"><ele>607.0</ele><time>2026-04-09T13:11:19.999Z</time></trkpt><trkpt lat="44.21250860547309" lon="9.584569647919233"><ele>606.75</ele><time>2026-04-09T13:11:20.999Z</time></trkpt><trkpt lat="44.21242774769426" lon="9.584710238936085"><ele>606.5</ele><time>2026-04-09T13:11:21.999Z</time></trkpt><trkpt lat="44.21234027752717" lon="9.584853318841093"><ele>606.25</ele><time>2026-04-09T13:11:22.999Z</time></trkpt><trkpt lat="44.21226487316687" lon="9.585003579987035"><ele>606.0</ele><time>2026-04-09T13:11:23.999Z</time></trkpt><trkpt lat="44.21219257228198" lon="9.585167358398053"><ele>606.0</ele><time>2026-04-09T13:11:24.999Z</time></trkpt><trkpt lat="44.212120550153834" lon="9.585345054091308"><ele>606.0</ele><time>2026-04-09T13:11:25.999Z</time></trkpt><trkpt lat="44.21204831973362" lon="9.585527922035725"><ele>606.0</ele><time>2026-04-09T13:11:26.998Z</time></trkpt><trkpt lat="44.21196706704906" lon="9.585707864303705"><ele>606.0</ele><time>2026-04-09T13:11:27.998Z</time></trkpt><trkpt lat="44.21188697821639" lon="9.58589106314975"><ele>608.5</ele><time>2026-04-09T13:11:28.998Z</time></trkpt><trkpt lat="44.21181806738407" lon="9.586057304780466"><ele>611.0</ele><time>2026-04-09T13:11:29.998Z</time></trkpt><trkpt lat="44.211757461698724" lon="9.586195726690597"><ele>613.5</ele><time>2026-04-09T13:11:30.998Z</time></trkpt><trkpt lat="44.21172832850395" lon="9.58631470364631"><ele>616.0</ele><time>2026-04-09T13:11:31.998Z</time></trkpt><trkpt lat="44.21175970934351" lon="9.58646163550324"><ele>616.0</ele><time>2026-04-09T13:11:32.999Z</time></trkpt><trkpt lat="44.211859231514794" lon="9.586581388503578"><ele>616.0</ele><time>2026-04-09T13:11:33.999Z</time></trkpt><trkpt lat="44.2119088893286" lon="9.586719046764717"><ele>616.0</ele><time>2026-04-09T13:11:34.999Z</time></trkpt><trkpt lat="44.211976536310466" lon="9.586876266335546"><ele>616.0</ele><time>2026-04-09T13:11:35.999Z</time></trkpt><trkpt lat="44.21204529861216" lon="9.587029329296945"><ele>616.2</ele><time>2026-04-09T13:11:36.999Z</time></trkpt><trkpt lat="44.212097018947304" lon="9.587179358304144"><ele>616.4000000000001</ele><time>2026-04-09T13:11:37.999Z</time></trkpt><trkpt lat="44.21213910137052" lon="9.587292399193734"><ele>616.6</ele><time>2026-04-09T13:11:38.999Z</time></trkpt><trkpt lat="44.21211944515918" lon="9.58740246977417"><ele>616.8000000000001</ele><time>2026-04-09T13:11:39.999Z</time></trkpt><trkpt lat="44.21205541240976" lon="9.587483027353407"><ele>617.0</ele><time>2026-04-09T13:11:40.999Z</time></trkpt><trkpt lat="44.21195578732248" lon="9.587500523993832"><ele>617.0</ele><time>2026-04-09T13:11:41.999Z</time></trkpt><trkpt lat="44.211846847131454" lon="9.587473353792163"><ele>617.0</ele><time>2026-04-09T13:11:42.999Z</time></trkpt><trkpt lat="44.211749369272084" lon="9.587543700317584"><ele>617.0</ele><time>2026-04-09T13:11:43.999Z</time></trkpt><trkpt lat="44.2116654401755" lon="9.587688179512481"><ele>617.0</ele><time>2026-04-09T13:11:44.999Z</time></trkpt><trkpt lat="44.21159754962817" lon="9.58784055607952"><ele>618.0</ele><time>2026-04-09T13:11:45.999Z</time></trkpt><trkpt lat="44.21145887204945" lon="9.58790339382435"><ele>619.0</ele><time>2026-04-09T13:11:46.999Z</time></trkpt><trkpt lat="44.2113113348399" lon="9.587926643928682"><ele>620.0</ele><time>2026-04-09T13:11:47.999Z</time></trkpt><trkpt lat="44.211162081273336" lon="9.587934742021112"><ele>621.0</ele><time>2026-04-09T13:11:48.999Z</time></trkpt><trkpt lat="44.211004386402" lon="9.587937859853142"><ele>621.0</ele><time>2026-04-09T13:11:49.999Z</time></trkpt><trkpt lat="44.21084597797408" lon="9.587890674729643"><ele>621.0</ele><time>2026-04-09T13:11:50.999Z</time></trkpt><trkpt lat="44.21071227575763" lon="9.5877998468406"><ele>621.0</ele><time>2026-04-09T13:11:51.999Z</time></trkpt><trkpt lat="44.21061322685615" lon="9.587681456862887"><ele>621.0</ele><time>2026-04-09T13:11:52.999Z</time></trkpt><trkpt lat="44.210555803913984" lon="9.587526173676826"><ele>619.3333333333334</ele><time>2026-04-09T13:11:53.999Z</time></trkpt><trkpt lat="44.21051737688427" lon="9.587422438685707"><ele>617.6666666666666</ele><time>2026-04-09T13:11:54.999Z</time></trkpt><trkpt lat="44.21046087255313" lon="9.58737120720531"><ele>616.0</ele><time>2026-04-09T13:11:55.999Z</time></trkpt><trkpt lat="44.210378711523084" lon="9.587373640057837"><ele>614.3333333333333</ele><time>2026-04-09T13:11:56.999Z</time></trkpt><trkpt lat="44.21027998365902" lon="9.587435750695755"><ele>612.6666666666666</ele><time>2026-04-09T13:11:57.999Z</time></trkpt><trkpt lat="44.210187356420384" lon="9.587512620511115"><ele>611.0</ele><time>2026-04-09T13:11:58.999Z</time></trkpt><trkpt lat="44.21008679361184" lon="9.5875927205576"><ele>611.0</ele><time>2026-04-09T13:11:59.999Z</time></trkpt><trkpt lat="44.20998071481116" lon="9.587681214905922"><ele>611.0</ele><time>2026-04-09T13:12:00.999Z</time></trkpt><trkpt lat="44.20987599269896" lon="9.587793685296356"><ele>611.0</ele><time>2026-04-09T13:12:01.999Z</time></trkpt><trkpt lat="44.20979185435735" lon="9.587954631998198"><ele>611.0</ele><time>2026-04-09T13:12:02.999Z</time></trkpt><trkpt lat="44.20974293324048" lon="9.588161610999922"><ele>609.0</ele><time>2026-04-09T13:12:03.999Z</time></trkpt><trkpt lat="44.2097026617606" lon="9.58835815790631"><ele>607.0</ele><time>2026-04-09T13:12:04.999Z</time></trkpt><trkpt lat="44.20966800006373" lon="9.588511300417306"><ele>605.0</ele><time>2026-04-09T13:12:05.999Z</time></trkpt><trkpt lat="44.20962114742584" lon="9.588593855359125"><ele>603.0</ele><time>2026-04-09T13:12:06.999Z</time></trkpt><trkpt lat="44.20953830038875" lon="9.588615986729632"><ele>601.0</ele><time>2026-04-09T13:12:07.999Z</time></trkpt><trkpt lat="44.20944424195426" lon="9.588536297834226"><ele>601.0</ele><time>2026-04-09T13:12:08.999Z</time></trkpt><trkpt lat="44.20934492082496" lon="9.588482057037087"><ele>601.0</ele><time>2026-04-09T13:12:09.999Z</time></trkpt><trkpt lat="44.209240774797536" lon="9.588402247410682"><ele>601.0</ele><time>2026-04-09T13:12:10.999Z</time></trkpt><trkpt lat="44.20913262040043" lon="9.588373769036615"><ele>601.0</ele><time>2026-04-09T13:12:11.999Z</time></trkpt><trkpt lat="44.20904253591399" lon="9.588427695949704"><ele>601.0</ele><time>2026-04-09T13:12:12.999Z</time></trkpt><trkpt lat="44.20898684516981" lon="9.588557135241771"><ele>600.25</ele><time>2026-04-09T13:12:13.999Z</time></trkpt><trkpt lat="44.20897500425851" lon="9.588727620934844"><ele>599.5</ele><time>2026-04-09T13:12:14.999Z</time></trkpt><trkpt lat="44.208990688852445" lon="9.588912422989653"><ele>598.75</ele><time>2026-04-09T13:12:15.999Z</time></trkpt><trkpt lat="44.20902409143119" lon="9.589074433545722"><ele>598.0</ele><time>2026-04-09T13:12:16.999Z</time></trkpt><trkpt lat="44.20911822608443" lon="9.589205833453745"><ele>598.0</ele><time>2026-04-09T13:12:17.999Z</time></trkpt><trkpt lat="44.20924764488856" lon="9.589312087091427"><ele>598.0</ele><time>2026-04-09T13:12:18.999Z</time></trkpt><trkpt lat="44.209351049638514" lon="9.589435959354269"><ele>598.0</ele><time>2026-04-09T13:12:19.999Z</time></trkpt><trkpt lat="44.20938314831336" lon="9.589627901629845"><ele>598.0</ele><time>2026-04-09T13:12:20.999Z</time></trkpt><trkpt lat="44.20944508155901" lon="9.58982700529808"><ele>594.3333333333334</ele><time>2026-04-09T13:12:21.999Z</time></trkpt><trkpt lat="44.20948420619394" lon="9.590032546293601"><ele>590.6666666666666</ele><time>2026-04-09T13:12:22.999Z</time></trkpt><trkpt lat="44.20954295369079" lon="9.590218143190278"><ele>587.0</ele><time>2026-04-09T13:12:23.999Z</time></trkpt><trkpt lat="44.20964853396112" lon="9.59037241491519"><ele>586.6</ele><time>2026-04-09T13:12:24.999Z</time></trkpt><trkpt lat="44.20975814737784" lon="9.590506845951948"><ele>586.2</ele><time>2026-04-09T13:12:25.999Z</time></trkpt><trkpt lat="44.20984286393745" lon="9.590628055948065"><ele>585.8</ele><time>2026-04-09T13:12:26.999Z</time></trkpt><trkpt lat="44.209896626155874" lon="9.590727959017356"><ele>585.4</ele><time>2026-04-09T13:12:27.999Z</time></trkpt><trkpt lat="44.20991974442896" lon="9.590811776119548"><ele>585.0</ele><time>2026-04-09T13:12:28.999Z</time></trkpt><trkpt lat="44.20991749854166" lon="9.590925964761741"><ele>585.0</ele><time>2026-04-09T13:12:30.999Z</time></trkpt><trkpt lat="44.209805454433955" lon="9.590944566110663"><ele>585.0</ele><time>2026-04-09T13:12:32.999Z</time></trkpt><trkpt lat="44.209705892360006" lon="9.590820686118725"><ele>585.0</ele><time>2026-04-09T13:12:34.999Z</time></trkpt><trkpt lat="44.20961668159113" lon="9.590745986631932"><ele>585.0</ele><time>2026-04-09T13:12:35.999Z</time></trkpt><trkpt lat="44.2095320496451" lon="9.590682525875604"><ele>585.0</ele><time>2026-04-09T13:12:36.999Z</time></trkpt><trkpt lat="44.20944768696017" lon="9.590695918706787"><ele>585.0</ele><time>2026-04-09T13:12:37.999Z</time></trkpt><trkpt lat="44.20936886457985" lon="9.590799927210549"><ele>585.0</ele><time>2026-04-09T13:12:38.999Z</time></trkpt><trkpt lat="44.209346868708515" lon="9.590964707475461"><ele>585.0</ele><time>2026-04-09T13:12:39.999Z</time></trkpt><trkpt lat="44.209355195289675" lon="9.591131670850993"><ele>585.0</ele><time>2026-04-09T13:12:40.999Z</time></trkpt><trkpt lat="44.20931331495716" lon="9.59124953042727"><ele>585.0</ele><time>2026-04-09T13:12:41.999Z</time></trkpt><trkpt lat="44.209214372678545" lon="9.591310254073827"><ele>586.0</ele><time>2026-04-09T13:12:42.999Z</time></trkpt><trkpt lat="44.20909681558671" lon="9.591316815307879"><ele>587.0</ele><time>2026-04-09T13:12:43.999Z</time></trkpt><trkpt lat="44.20898884748352" lon="9.591358663695706"><ele>588.0</ele><time>2026-04-09T13:12:44.999Z</time></trkpt><trkpt lat="44.208919031889884" lon="9.591484179723219"><ele>589.0</ele><time>2026-04-09T13:12:45.999Z</time></trkpt><trkpt lat="44.208918379876906" lon="9.591657734978298"><ele>589.0</ele><time>2026-04-09T13:12:46.999Z</time></trkpt><trkpt lat="44.20897807966244" lon="9.591806247338813"><ele>589.0</ele><time>2026-04-09T13:12:47.999Z</time></trkpt><trkpt lat="44.20903749916054" lon="9.59190422503269"><ele>589.0</ele><time>2026-04-09T13:12:48.999Z</time></trkpt><trkpt lat="44.20897164435459" lon="9.592031341456075"><ele>589.0</ele><time>2026-04-09T13:12:50.999Z</time></trkpt><trkpt lat="44.20887344022701" lon="9.592030583759259"><ele>589.0</ele><time>2026-04-09T13:12:51.999Z</time></trkpt><trkpt lat="44.20877642391294" lon="9.592030693930559"><ele>589.0</ele><time>2026-04-09T13:12:52.999Z</time></trkpt><trkpt lat="44.20866595082455" lon="9.591985124390682"><ele>589.0</ele><time>2026-04-09T13:12:53.999Z</time></trkpt><trkpt lat="44.20856460381244" lon="9.591888224124135"><ele>589.0</ele><time>2026-04-09T13:12:54.999Z</time></trkpt><trkpt lat="44.20849601771939" lon="9.591771373230513"><ele>589.0</ele><time>2026-04-09T13:12:55.999Z</time></trkpt><trkpt lat="44.208479293082405" lon="9.591591984023585"><ele>589.0</ele><time>2026-04-09T13:12:56.999Z</time></trkpt><trkpt lat="44.2084348975319" lon="9.591428070611366"><ele>589.0</ele><time>2026-04-09T13:12:57.999Z</time></trkpt><trkpt lat="44.208360335713444" lon="9.591286442797534"><ele>589.0</ele><time>2026-04-09T13:12:58.999Z</time></trkpt><trkpt lat="44.20823032847758" lon="9.591195505180535"><ele>589.0</ele><time>2026-04-09T13:12:59.999Z</time></trkpt><trkpt lat="44.208097221966135" lon="9.59109237416284"><ele>585.6666666666667</ele><time>2026-04-09T13:13:00.999Z</time></trkpt><trkpt lat="44.20795465641843" lon="9.591014653832307"><ele>582.3333333333334</ele><time>2026-04-09T13:13:01.999Z</time></trkpt><trkpt lat="44.20781016129753" lon="9.59094990774157"><ele>579.0</ele><time>2026-04-09T13:13:02.999Z</time></trkpt><trkpt lat="44.207668757560725" lon="9.590886085569371"><ele>579.0</ele><time>2026-04-09T13:13:03.999Z</time></trkpt><trkpt lat="44.207500251838496" lon="9.590918314784048"><ele>579.0</ele><time>2026-04-09T13:13:04.999Z</time></trkpt><trkpt lat="44.20731795151023" lon="9.590982534127319"><ele>579.0</ele><time>2026-04-09T13:13:05.999Z</time></trkpt><trkpt lat="44.207146024995055" lon="9.591036373470827"><ele>577.0</ele><time>2026-04-09T13:13:06.999Z</time></trkpt><trkpt lat="44.206971374600144" lon="9.591030474447312"><ele>575.0</ele><time>2026-04-09T13:13:07.999Z</time></trkpt><trkpt lat="44.206791032456" lon="9.590971607034083"><ele>573.0</ele><time>2026-04-09T13:13:08.999Z</time></trkpt><trkpt lat="44.20663186235491" lon="9.59088501730972"><ele>570.0</ele><time>2026-04-09T13:13:09.999Z</time></trkpt><trkpt lat="44.206494008593474" lon="9.590831698836736"><ele>567.0</ele><time>2026-04-09T13:13:10.999Z</time></trkpt><trkpt lat="44.20635144652505" lon="9.590810080320335"><ele>564.0</ele><time>2026-04-09T13:13:11.999Z</time></trkpt><trkpt lat="44.206225054946934" lon="9.590830078870432"><ele>561.0</ele><time>2026-04-09T13:13:12.999Z</time></trkpt><trkpt lat="44.20611583870729" lon="9.590892787293168"><ele>561.0</ele><time>2026-04-09T13:13:13.999Z</time></trkpt><trkpt lat="44.20600362255235" lon="9.590984696026359"><ele>561.0</ele><time>2026-04-09T13:13:14.999Z</time></trkpt><trkpt lat="44.20590465715541" lon="9.59108301462004"><ele>561.0</ele><time>2026-04-09T13:13:15.998Z</time></trkpt><trkpt lat="44.20581118834936" lon="9.591211007746113"><ele>561.0</ele><time>2026-04-09T13:13:16.998Z</time></trkpt><trkpt lat="44.20572909666069" lon="9.591367285187633"><ele>559.5</ele><time>2026-04-09T13:13:17.998Z</time></trkpt><trkpt lat="44.20565919843609" lon="9.591540433996489"><ele>558.0</ele><time>2026-04-09T13:13:18.998Z</time></trkpt><trkpt lat="44.205610086747804" lon="9.591723410235991"><ele>556.5</ele><time>2026-04-09T13:13:19.998Z</time></trkpt><trkpt lat="44.20558883592712" lon="9.591889127841084"><ele>555.0</ele><time>2026-04-09T13:13:20.998Z</time></trkpt><trkpt lat="44.2055992287856" lon="9.592020425083588"><ele>555.0</ele><time>2026-04-09T13:13:21.998Z</time></trkpt><trkpt lat="44.205603878772756" lon="9.592113723316714"><ele>555.0</ele><time>2026-04-09T13:13:22.998Z</time></trkpt><trkpt lat="44.20552862931289" lon="9.592151081697452"><ele>555.0</ele><time>2026-04-09T13:13:24.998Z</time></trkpt><trkpt lat="44.205473996804685" lon="9.592089724111224"><ele>555.0</ele><time>2026-04-09T13:13:25.998Z</time></trkpt><trkpt lat="44.20545650100813" lon="9.591975796833212"><ele>555.0</ele><time>2026-04-09T13:13:26.998Z</time></trkpt><trkpt lat="44.205464555951075" lon="9.591853235294408"><ele>555.0</ele><time>2026-04-09T13:13:27.998Z</time></trkpt><trkpt lat="44.20544714784274" lon="9.591722805610017"><ele>554.4</ele><time>2026-04-09T13:13:28.998Z</time></trkpt><trkpt lat="44.205424349554136" lon="9.591582372561627"><ele>553.8</ele><time>2026-04-09T13:13:29.998Z</time></trkpt><trkpt lat="44.20542133633518" lon="9.59143092044866"><ele>553.2</ele><time>2026-04-09T13:13:30.998Z</time></trkpt><trkpt lat="44.20545147810121" lon="9.591277269110096"><ele>552.6</ele><time>2026-04-09T13:13:31.998Z</time></trkpt><trkpt lat="44.205497123798196" lon="9.59113857669119"><ele>552.0</ele><time>2026-04-09T13:13:33Z</time></trkpt><trkpt lat="44.20553215879074" lon="9.591022202376543"><ele>550.8000000000001</ele><time>2026-04-09T13:13:34Z</time></trkpt><trkpt lat="44.20554188706764" lon="9.590917024514448"><ele>549.6</ele><time>2026-04-09T13:13:35Z</time></trkpt><trkpt lat="44.20548980205627" lon="9.590840447237984"><ele>548.4000000000001</ele><time>2026-04-09T13:13:36Z</time></trkpt><trkpt lat="44.205395360405134" lon="9.590847006587275"><ele>547.2</ele><time>2026-04-09T13:13:37Z</time></trkpt><trkpt lat="44.205303946656485" lon="9.590956512810035"><ele>546.0</ele><time>2026-04-09T13:13:38Z</time></trkpt><trkpt lat="44.205249150999194" lon="9.591101543415755"><ele>547.5</ele><time>2026-04-09T13:13:39Z</time></trkpt><trkpt lat="44.20515391718006" lon="9.59120153882373"><ele>549.0</ele><time>2026-04-09T13:13:40Z</time></trkpt><trkpt lat="44.20500614199562" lon="9.591236805370148"><ele>550.5</ele><time>2026-04-09T13:13:41Z</time></trkpt><trkpt lat="44.20487592803455" lon="9.591218549711856"><ele>552.0</ele><time>2026-04-09T13:13:42Z</time></trkpt><trkpt lat="44.20475318521568" lon="9.591250805157857"><ele>547.75</ele><time>2026-04-09T13:13:43Z</time></trkpt><trkpt lat="44.204645481012555" lon="9.591377442209087"><ele>543.5</ele><time>2026-04-09T13:13:44Z</time></trkpt><trkpt lat="44.204557615655936" lon="9.591543514050473"><ele>539.25</ele><time>2026-04-09T13:13:45Z</time></trkpt><trkpt lat="44.204515895667704" lon="9.591706810957081"><ele>535.0</ele><time>2026-04-09T13:13:46Z</time></trkpt><trkpt lat="44.204527042301116" lon="9.591870001868681"><ele>537.0</ele><time>2026-04-09T13:13:47Z</time></trkpt><trkpt lat="44.20460277800562" lon="9.592015493129995"><ele>539.0</ele><time>2026-04-09T13:13:48Z</time></trkpt><trkpt lat="44.20464778187996" lon="9.592119732325548"><ele>541.0</ele><time>2026-04-09T13:13:49Z</time></trkpt><trkpt lat="44.20463712248551" lon="9.592216015237575"><ele>543.0</ele><time>2026-04-09T13:13:50Z</time></trkpt><trkpt lat="44.204563522955205" lon="9.592287134334017"><ele>545.0</ele><time>2026-04-09T13:13:51Z</time></trkpt><trkpt lat="44.20446718757534" lon="9.592294488976394"><ele>545.0</ele><time>2026-04-09T13:13:52Z</time></trkpt><trkpt lat="44.20436704118111" lon="9.592206385876615"><ele>545.0</ele><time>2026-04-09T13:13:53Z</time></trkpt><trkpt lat="44.204247092604156" lon="9.592127229822253"><ele>545.0</ele><time>2026-04-09T13:13:54Z</time></trkpt><trkpt lat="44.20411664275022" lon="9.592144337520455"><ele>545.0</ele><time>2026-04-09T13:13:55Z</time></trkpt><trkpt lat="44.20398277147917" lon="9.592231135842528"><ele>539.5</ele><time>2026-04-09T13:13:56Z</time></trkpt><trkpt lat="44.20387053123486" lon="9.592378994968843"><ele>534.0</ele><time>2026-04-09T13:13:57Z</time></trkpt><trkpt lat="44.20377731332505" lon="9.592526980184585"><ele>528.5</ele><time>2026-04-09T13:13:58Z</time></trkpt><trkpt lat="44.203691868974055" lon="9.592614551710524"><ele>523.0</ele><time>2026-04-09T13:13:59Z</time></trkpt><trkpt lat="44.20362801533962" lon="9.592698831274793"><ele>522.5</ele><time>2026-04-09T13:14:00Z</time></trkpt><trkpt lat="44.20361956292536" lon="9.592843981351391"><ele>522.0</ele><time>2026-04-09T13:14:01Z</time></trkpt><trkpt lat="44.20365266931836" lon="9.59300697557842"><ele>521.5</ele><time>2026-04-09T13:14:02Z</time></trkpt><trkpt lat="44.20373842105149" lon="9.593130161379005"><ele>521.0</ele><time>2026-04-09T13:14:03Z</time></trkpt><trkpt lat="44.203862102402" lon="9.593203093381888"><ele>521.0</ele><time>2026-04-09T13:14:04Z</time></trkpt><trkpt lat="44.20396972637049" lon="9.593277693643962"><ele>521.0</ele><time>2026-04-09T13:14:05Z</time></trkpt><trkpt lat="44.20404468963304" lon="9.593349068457329"><ele>521.0</ele><time>2026-04-09T13:14:06Z</time></trkpt><trkpt lat="44.20408374364189" lon="9.593473489874855"><ele>521.0</ele><time>2026-04-09T13:14:08Z</time></trkpt><trkpt lat="44.20403422047872" lon="9.593561870691149"><ele>521.0</ele><time>2026-04-09T13:14:09Z</time></trkpt><trkpt lat="44.20395682942146" lon="9.59361547708604"><ele>521.0</ele><time>2026-04-09T13:14:10Z</time></trkpt><trkpt lat="44.203864791434505" lon="9.593647069391844"><ele>521.0</ele><time>2026-04-09T13:14:11Z</time></trkpt><trkpt lat="44.203763076565245" lon="9.59367320041567"><ele>521.0</ele><time>2026-04-09T13:14:12Z</time></trkpt><trkpt lat="44.20365085699632" lon="9.593741037872134"><ele>521.0</ele><time>2026-04-09T13:14:13Z</time></trkpt><trkpt lat="44.203523789487036" lon="9.593768966973455"><ele>521.0</ele><time>2026-04-09T13:14:14Z</time></trkpt><trkpt lat="44.20341116827906" lon="9.593811259363578"><ele>520.6</ele><time>2026-04-09T13:14:15Z</time></trkpt><trkpt lat="44.203323374428315" lon="9.59384929855313"><ele>520.2</ele><time>2026-04-09T13:14:16Z</time></trkpt><trkpt lat="44.20326554547962" lon="9.593906050869776"><ele>519.8</ele><time>2026-04-09T13:14:17Z</time></trkpt><trkpt lat="44.20326087384708" lon="9.594018602272275"><ele>519.4</ele><time>2026-04-09T13:14:18Z</time></trkpt><trkpt lat="44.20333208115042" lon="9.594167143104295"><ele>519.0</ele><time>2026-04-09T13:14:19Z</time></trkpt><trkpt lat="44.20341337006637" lon="9.5942779873697"><ele>519.0</ele><time>2026-04-09T13:14:20Z</time></trkpt><trkpt lat="44.20350044108401" lon="9.594397184377247"><ele>519.0</ele><time>2026-04-09T13:14:21Z</time></trkpt><trkpt lat="44.20358583226731" lon="9.594531070929326"><ele>519.0</ele><time>2026-04-09T13:14:22Z</time></trkpt><trkpt lat="44.20365245927132" lon="9.594657103238905"><ele>519.0</ele><time>2026-04-09T13:14:23Z</time></trkpt><trkpt lat="44.20370405080719" lon="9.594746412439127"><ele>519.0</ele><time>2026-04-09T13:14:24Z</time></trkpt><trkpt lat="44.20361110840222" lon="9.594813504582888"><ele>522.4</ele><time>2026-04-09T13:14:26Z</time></trkpt><trkpt lat="44.20354714582493" lon="9.594812619744772"><ele>525.8</ele><time>2026-04-09T13:14:27Z</time></trkpt><trkpt lat="44.20346394546495" lon="9.5947571508508"><ele>529.2</ele><time>2026-04-09T13:14:28Z</time></trkpt><trkpt lat="44.20337372615337" lon="9.594686132511887"><ele>532.6</ele><time>2026-04-09T13:14:29Z</time></trkpt><trkpt lat="44.203295857341594" lon="9.594589579682099"><ele>536.0</ele><time>2026-04-09T13:14:30Z</time></trkpt><trkpt lat="44.20317841974761" lon="9.594537866545215"><ele>534.0</ele><time>2026-04-09T13:14:31Z</time></trkpt><trkpt lat="44.20304651274396" lon="9.594537488348587"><ele>532.0</ele><time>2026-04-09T13:14:32Z</time></trkpt><trkpt lat="44.202900722429966" lon="9.594542252497895"><ele>530.0</ele><time>2026-04-09T13:14:33Z</time></trkpt><trkpt lat="44.2027785044442" lon="9.594512860062478"><ele>528.0</ele><time>2026-04-09T13:14:33.999Z</time></trkpt><trkpt lat="44.20268254994815" lon="9.594480155026863"><ele>528.0</ele><time>2026-04-09T13:14:34.999Z</time></trkpt><trkpt lat="44.20256372858192" lon="9.594630839339505"><ele>528.0</ele><time>2026-04-09T13:14:36.999Z</time></trkpt><trkpt lat="44.20254472967519" lon="9.594791222810493"><ele>528.0</ele><time>2026-04-09T13:14:37.999Z</time></trkpt><trkpt lat="44.20251939567484" lon="9.59489107300396"><ele>528.0</ele><time>2026-04-09T13:14:38.999Z</time></trkpt><trkpt lat="44.202413516914156" lon="9.594845139737718"><ele>528.0</ele><time>2026-04-09T13:14:40.999Z</time></trkpt><trkpt lat="44.20243338813724" lon="9.594736856348238"><ele>528.0</ele><time>2026-04-09T13:14:41.999Z</time></trkpt><trkpt lat="44.20240885877738" lon="9.594625147719649"><ele>528.0</ele><time>2026-04-09T13:14:42.999Z</time></trkpt><trkpt lat="44.20235786891236" lon="9.59446647717902"><ele>528.0</ele><time>2026-04-09T13:14:43.999Z</time></trkpt><trkpt lat="44.20230633362509" lon="9.594323170636855"><ele>528.0</ele><time>2026-04-09T13:14:44.999Z</time></trkpt><trkpt lat="44.20226438036127" lon="9.59416003954559"><ele>525.5</ele><time>2026-04-09T13:14:45.999Z</time></trkpt><trkpt lat="44.20223424708053" lon="9.593988111484821"><ele>523.0</ele><time>2026-04-09T13:14:46.999Z</time></trkpt><trkpt lat="44.202210761428056" lon="9.59386501991863"><ele>520.5</ele><time>2026-04-09T13:14:47.999Z</time></trkpt><trkpt lat="44.20208165694128" lon="9.593786967580693"><ele>518.0</ele><time>2026-04-09T13:14:49.999Z</time></trkpt><trkpt lat="44.20197879719814" lon="9.593832586181124"><ele>518.0</ele><time>2026-04-09T13:14:50.999Z</time></trkpt><trkpt lat="44.20191330540869" lon="9.593858596993625"><ele>518.0</ele><time>2026-04-09T13:14:51.999Z</time></trkpt><trkpt lat="44.20186002185437" lon="9.593754134299589"><ele>518.0</ele><time>2026-04-09T13:14:52.999Z</time></trkpt><trkpt lat="44.201845317434895" lon="9.593590422685066"><ele>518.0</ele><time>2026-04-09T13:14:53.999Z</time></trkpt><trkpt lat="44.201854459629836" lon="9.593421787188904"><ele>518.0</ele><time>2026-04-09T13:14:54.999Z</time></trkpt><trkpt lat="44.201856938634556" lon="9.593244788211836"><ele>514.75</ele><time>2026-04-09T13:14:55.999Z</time></trkpt><trkpt lat="44.20185572924872" lon="9.59307468445276"><ele>511.5</ele><time>2026-04-09T13:14:56.999Z</time></trkpt><trkpt lat="44.20181345343215" lon="9.592921176085625"><ele>508.25</ele><time>2026-04-09T13:14:57.999Z</time></trkpt><trkpt lat="44.201727122853086" lon="9.592771175168043"><ele>505.0</ele><time>2026-04-09T13:14:58.999Z</time></trkpt><trkpt lat="44.20164842412192" lon="9.592608094732679"><ele>503.0</ele><time>2026-04-09T13:14:59.999Z</time></trkpt><trkpt lat="44.20156235182015" lon="9.59243727295752"><ele>501.0</ele><time>2026-04-09T13:15:00.999Z</time></trkpt><trkpt lat="44.201486835094535" lon="9.592262082326911"><ele>499.0</ele><time>2026-04-09T13:15:01.999Z</time></trkpt><trkpt lat="44.20141182634505" lon="9.592101707355724"><ele>497.0</ele><time>2026-04-09T13:15:02.999Z</time></trkpt><trkpt lat="44.201352137624816" lon="9.591975588045981"><ele>497.0</ele><time>2026-04-09T13:15:03.999Z</time></trkpt><trkpt lat="44.20128861016675" lon="9.59189215116937"><ele>497.0</ele><time>2026-04-09T13:15:04.999Z</time></trkpt><trkpt lat="44.20118765377641" lon="9.591867030752375"><ele>497.0</ele><time>2026-04-09T13:15:05.999Z</time></trkpt><trkpt lat="44.20106453446193" lon="9.591929995871476"><ele>497.0</ele><time>2026-04-09T13:15:06.999Z</time></trkpt><trkpt lat="44.2009395281254" lon="9.592018694251903"><ele>497.0</ele><time>2026-04-09T13:15:07.999Z</time></trkpt><trkpt lat="44.20080631516967" lon="9.592075570894474"><ele>497.0</ele><time>2026-04-09T13:15:08.999Z</time></trkpt><trkpt lat="44.20066934830735" lon="9.59207715768866"><ele>497.0</ele><time>2026-04-09T13:15:09.999Z</time></trkpt><trkpt lat="44.20053416433473" lon="9.592043491869486"><ele>497.0</ele><time>2026-04-09T13:15:10.999Z</time></trkpt><trkpt lat="44.2004074658608" lon="9.591940191754091"><ele>491.66666666666663</ele><time>2026-04-09T13:15:11.999Z</time></trkpt><trkpt lat="44.20028797081686" lon="9.59180107371245"><ele>486.33333333333337</ele><time>2026-04-09T13:15:12.999Z</time></trkpt><trkpt lat="44.20016009107734" lon="9.591703723778444"><ele>481.0</ele><time>2026-04-09T13:15:13.999Z</time></trkpt><trkpt lat="44.200043678642956" lon="9.59157361166127"><ele>481.0</ele><time>2026-04-09T13:15:14.999Z</time></trkpt><trkpt lat="44.199970965724106" lon="9.59136296315316"><ele>481.0</ele><time>2026-04-09T13:15:15.999Z</time></trkpt><trkpt lat="44.1998850978771" lon="9.591157351355573"><ele>481.0</ele><time>2026-04-09T13:15:16.999Z</time></trkpt><trkpt lat="44.19976420953253" lon="9.590973668757252"><ele>479.33333333333337</ele><time>2026-04-09T13:15:17.999Z</time></trkpt><trkpt lat="44.19963410414304" lon="9.590787513290012"><ele>477.66666666666663</ele><time>2026-04-09T13:15:18.999Z</time></trkpt><trkpt lat="44.19952405200384" lon="9.590566791280532"><ele>476.0</ele><time>2026-04-09T13:15:19.999Z</time></trkpt><trkpt lat="44.199420281786765" lon="9.590345368320653"><ele>469.5</ele><time>2026-04-09T13:15:20.999Z</time></trkpt><trkpt lat="44.199334826902906" lon="9.590164061659904"><ele>463.0</ele><time>2026-04-09T13:15:21.999Z</time></trkpt><trkpt lat="44.19927211530558" lon="9.589992453153307"><ele>456.5</ele><time>2026-04-09T13:15:22.999Z</time></trkpt><trkpt lat="44.19922147003162" lon="9.589852175825941"><ele>450.0</ele><time>2026-04-09T13:15:23.999Z</time></trkpt><trkpt lat="44.19916490591852" lon="9.589742990132944"><ele>450.0</ele><time>2026-04-09T13:15:24.999Z</time></trkpt><trkpt lat="44.199058911844325" lon="9.589692273636548"><ele>450.0</ele><time>2026-04-09T13:15:25.999Z</time></trkpt><trkpt lat="44.19893404856276" lon="9.5897250139205"><ele>450.0</ele><time>2026-04-09T13:15:26.999Z</time></trkpt><trkpt lat="44.19881463645731" lon="9.58982795954276"><ele>450.0</ele><time>2026-04-09T13:15:27.999Z</time></trkpt><trkpt lat="44.198700853216316" lon="9.58996743063024"><ele>452.66666666666663</ele><time>2026-04-09T13:15:28.999Z</time></trkpt><trkpt lat="44.1985910199419" lon="9.590111117086467"><ele>455.3333333333333</ele><time>2026-04-09T13:15:29.999Z</time></trkpt><trkpt lat="44.198487774036046" lon="9.590266127819364"><ele>458.0</ele><time>2026-04-09T13:15:30.999Z</time></trkpt><trkpt lat="44.198395370580855" lon="9.590444552546488"><ele>458.0</ele><time>2026-04-09T13:15:31.999Z</time></trkpt><trkpt lat="44.19830673911422" lon="9.590619372203843"><ele>458.0</ele><time>2026-04-09T13:15:32.999Z</time></trkpt><trkpt lat="44.19823227775348" lon="9.590763362738965"><ele>458.0</ele><time>2026-04-09T13:15:33.999Z</time></trkpt><trkpt lat="44.19817349446869" lon="9.590874769865074"><ele>458.0</ele><time>2026-04-09T13:15:34.999Z</time></trkpt><trkpt lat="44.19810096709595" lon="9.59095635572876"><ele>452.0</ele><time>2026-04-09T13:15:35.999Z</time></trkpt><trkpt lat="44.19799965318924" lon="9.590966372534623"><ele>446.0</ele><time>2026-04-09T13:15:36.999Z</time></trkpt><trkpt lat="44.1978623756701" lon="9.590882232900299"><ele>440.0</ele><time>2026-04-09T13:15:37.999Z</time></trkpt><trkpt lat="44.197740472097955" lon="9.590833051365374"><ele>434.0</ele><time>2026-04-09T13:15:39.001Z</time></trkpt><trkpt lat="44.19756876319044" lon="9.59086556347531"><ele>434.0</ele><time>2026-04-09T13:15:40.001Z</time></trkpt><trkpt lat="44.19745581037732" lon="9.590933863893891"><ele>434.0</ele><time>2026-04-09T13:15:41.001Z</time></trkpt><trkpt lat="44.19734552603231" lon="9.591020243418527"><ele>434.0</ele><time>2026-04-09T13:15:42.001Z</time></trkpt><trkpt lat="44.19724924783283" lon="9.591141473806246"><ele>434.0</ele><time>2026-04-09T13:15:43.001Z</time></trkpt><trkpt lat="44.19718252083536" lon="9.591296792947603"><ele>434.25</ele><time>2026-04-09T13:15:44Z</time></trkpt><trkpt lat="44.19712894917648" lon="9.591461138072559"><ele>434.5</ele><time>2026-04-09T13:15:45Z</time></trkpt><trkpt lat="44.19702731954382" lon="9.591567833013228"><ele>434.75</ele><time>2026-04-09T13:15:46Z</time></trkpt><trkpt lat="44.196887939007304" lon="9.591596306229045"><ele>435.0</ele><time>2026-04-09T13:15:47Z</time></trkpt><trkpt lat="44.196728241214586" lon="9.591604737779997"><ele>435.0</ele><time>2026-04-09T13:15:48Z</time></trkpt><trkpt lat="44.19657132225414" lon="9.591567034139267"><ele>435.0</ele><time>2026-04-09T13:15:49Z</time></trkpt><trkpt lat="44.19642926236133" lon="9.59153190913547"><ele>435.0</ele><time>2026-04-09T13:15:50Z</time></trkpt><trkpt lat="44.196289608507044" lon="9.591561250028334"><ele>435.0</ele><time>2026-04-09T13:15:51Z</time></trkpt><trkpt lat="44.196161343458606" lon="9.591649118558797"><ele>435.75</ele><time>2026-04-09T13:15:52Z</time></trkpt><trkpt lat="44.196049055236" lon="9.591745577133487"><ele>436.5</ele><time>2026-04-09T13:15:53Z</time></trkpt><trkpt lat="44.19595646172445" lon="9.591870129119092"><ele>437.25</ele><time>2026-04-09T13:15:54Z</time></trkpt><trkpt lat="44.195885604843966" lon="9.59203113347803"><ele>438.0</ele><time>2026-04-09T13:15:55Z</time></trkpt><trkpt lat="44.195816899703104" lon="9.592172341756333"><ele>438.0</ele><time>2026-04-09T13:15:56Z</time></trkpt><trkpt lat="44.19572579004971" lon="9.592276453039068"><ele>437.99999999999994</ele><time>2026-04-09T13:15:57Z</time></trkpt><trkpt lat="44.19564332033527" lon="9.592328104161554"><ele>437.99999999999994</ele><time>2026-04-09T13:15:58Z</time></trkpt><trkpt lat="44.19557371522424" lon="9.59234736615182"><ele>438.0</ele><time>2026-04-09T13:15:59Z</time></trkpt><trkpt lat="44.19547246722548" lon="9.592235214485063"><ele>438.0</ele><time>2026-04-09T13:16:01Z</time></trkpt><trkpt lat="44.19544223504325" lon="9.592096470438461"><ele>432.0</ele><time>2026-04-09T13:16:02Z</time></trkpt><trkpt lat="44.19541596747063" lon="9.591951218010006"><ele>426.0</ele><time>2026-04-09T13:16:03Z</time></trkpt><trkpt lat="44.195352282548235" lon="9.591816066930258"><ele>420.0</ele><time>2026-04-09T13:16:04Z</time></trkpt><trkpt lat="44.195253804582876" lon="9.591755423471058"><ele>414.0</ele><time>2026-04-09T13:16:05Z</time></trkpt><trkpt lat="44.1951346080407" lon="9.591733060293004"><ele>414.0</ele><time>2026-04-09T13:16:06Z</time></trkpt><trkpt lat="44.19497201147086" lon="9.591732114258573"><ele>414.0</ele><time>2026-04-09T13:16:07Z</time></trkpt><trkpt lat="44.194829471918084" lon="9.591639130185769"><ele>414.0</ele><time>2026-04-09T13:16:08Z</time></trkpt><trkpt lat="44.1946844059735" lon="9.591551780138957"><ele>416.33333333333337</ele><time>2026-04-09T13:16:09Z</time></trkpt><trkpt lat="44.19450791256602" lon="9.591514266635572"><ele>418.6666666666667</ele><time>2026-04-09T13:16:10Z</time></trkpt><trkpt lat="44.19432952135614" lon="9.591477404507389"><ele>421.0</ele><time>2026-04-09T13:16:11Z</time></trkpt><trkpt lat="44.19415311088478" lon="9.59139440341984"><ele>418.0</ele><time>2026-04-09T13:16:12Z</time></trkpt><trkpt lat="44.193961999613286" lon="9.591335081614178"><ele>415.0</ele><time>2026-04-09T13:16:13Z</time></trkpt><trkpt lat="44.19378713633957" lon="9.591326421622462"><ele>412.0</ele><time>2026-04-09T13:16:14Z</time></trkpt><trkpt lat="44.19364073148247" lon="9.5913297095298"><ele>412.0</ele><time>2026-04-09T13:16:15Z</time></trkpt><trkpt lat="44.19350473440255" lon="9.591280211247073"><ele>412.0</ele><time>2026-04-09T13:16:16Z</time></trkpt><trkpt lat="44.193400940363105" lon="9.591175648590719"><ele>412.0</ele><time>2026-04-09T13:16:17Z</time></trkpt><trkpt lat="44.193331178248464" lon="9.591079015498918"><ele>412.0</ele><time>2026-04-09T13:16:18Z</time></trkpt><trkpt lat="44.19324125095265" lon="9.591075403930796"><ele>404.75</ele><time>2026-04-09T13:16:19Z</time></trkpt><trkpt lat="44.19313684940773" lon="9.591138509181903"><ele>397.5</ele><time>2026-04-09T13:16:20Z</time></trkpt><trkpt lat="44.19304089129127" lon="9.591271609155022"><ele>390.25</ele><time>2026-04-09T13:16:21Z</time></trkpt><trkpt lat="44.19294393500587" lon="9.591419332124545"><ele>383.0</ele><time>2026-04-09T13:16:22Z</time></trkpt><trkpt lat="44.19281629818067" lon="9.591490833419304"><ele>383.0</ele><time>2026-04-09T13:16:23Z</time></trkpt><trkpt lat="44.192687475648384" lon="9.591572806497197"><ele>383.0</ele><time>2026-04-09T13:16:24Z</time></trkpt><trkpt lat="44.192559385408465" lon="9.591631312487204"><ele>383.0</ele><time>2026-04-09T13:16:25Z</time></trkpt><trkpt lat="44.19245177105096" lon="9.591775246726874"><ele>383.0</ele><time>2026-04-09T13:16:26Z</time></trkpt><trkpt lat="44.192361236374985" lon="9.591973005558506"><ele>379.0</ele><time>2026-04-09T13:16:27Z</time></trkpt><trkpt lat="44.19225231568463" lon="9.59214708884675"><ele>375.0</ele><time>2026-04-09T13:16:28Z</time></trkpt><trkpt lat="44.1921405850117" lon="9.592302908650003"><ele>371.0</ele><time>2026-04-09T13:16:29Z</time></trkpt><trkpt lat="44.192029355232144" lon="9.592450062062932"><ele>371.0</ele><time>2026-04-09T13:16:30Z</time></trkpt><trkpt lat="44.19188884586429" lon="9.592527016240728"><ele>371.0</ele><time>2026-04-09T13:16:31Z</time></trkpt><trkpt lat="44.191775767194294" lon="9.592602942946966"><ele>371.0</ele><time>2026-04-09T13:16:32Z</time></trkpt><trkpt lat="44.19167874713542" lon="9.592650582377363"><ele>371.0</ele><time>2026-04-09T13:16:33Z</time></trkpt><trkpt lat="44.19161107647448" lon="9.59273038731784"><ele>371.75</ele><time>2026-04-09T13:16:34Z</time></trkpt><trkpt lat="44.19159254344866" lon="9.592870073148568"><ele>372.5</ele><time>2026-04-09T13:16:35Z</time></trkpt><trkpt lat="44.191637006861235" lon="9.593033922012099"><ele>373.25</ele><time>2026-04-09T13:16:36Z</time></trkpt><trkpt lat="44.19170192743002" lon="9.593201319437794"><ele>374.0</ele><time>2026-04-09T13:16:37Z</time></trkpt><trkpt lat="44.191733694820776" lon="9.5933733098826"><ele>374.0</ele><time>2026-04-09T13:16:38Z</time></trkpt><trkpt lat="44.191786759161715" lon="9.593551151943236"><ele>374.0</ele><time>2026-04-09T13:16:39Z</time></trkpt><trkpt lat="44.19179225705671" lon="9.593747565174743"><ele>374.0</ele><time>2026-04-09T13:16:40Z</time></trkpt><trkpt lat="44.19179318548056" lon="9.593927920387335"><ele>374.0</ele><time>2026-04-09T13:16:41Z</time></trkpt><trkpt lat="44.191810003620816" lon="9.594079811942223"><ele>370.5</ele><time>2026-04-09T13:16:42Z</time></trkpt><trkpt lat="44.191827791012855" lon="9.59421841989526"><ele>367.0</ele><time>2026-04-09T13:16:43Z</time></trkpt><trkpt lat="44.191898665200824" lon="9.594324209481378"><ele>363.5</ele><time>2026-04-09T13:16:44Z</time></trkpt><trkpt lat="44.192005248228334" lon="9.594413144725797"><ele>360.0</ele><time>2026-04-09T13:16:45Z</time></trkpt><trkpt lat="44.19211422017783" lon="9.594501292690195"><ele>358.0</ele><time>2026-04-09T13:16:46Z</time></trkpt><trkpt lat="44.1922495994337" lon="9.594577398716888"><ele>356.0</ele><time>2026-04-09T13:16:47Z</time></trkpt><trkpt lat="44.192399634926396" lon="9.594621722517713"><ele>354.0</ele><time>2026-04-09T13:16:48Z</time></trkpt><trkpt lat="44.19255390701923" lon="9.594668133667447"><ele>354.0</ele><time>2026-04-09T13:16:49Z</time></trkpt><trkpt lat="44.192715895917914" lon="9.59475179529958"><ele>354.0</ele><time>2026-04-09T13:16:50Z</time></trkpt><trkpt lat="44.192849741483585" lon="9.594851175088221"><ele>354.0</ele><time>2026-04-09T13:16:51Z</time></trkpt><trkpt lat="44.19295524457905" lon="9.594964651247995"><ele>354.0</ele><time>2026-04-09T13:16:52Z</time></trkpt><trkpt lat="44.193068482378706" lon="9.595063059869316"><ele>354.0</ele><time>2026-04-09T13:16:53Z</time></trkpt><trkpt lat="44.193213479866664" lon="9.595106850827408"><ele>354.0</ele><time>2026-04-09T13:16:54Z</time></trkpt><trkpt lat="44.19333905559964" lon="9.595114696997511"><ele>354.0</ele><time>2026-04-09T13:16:55Z</time></trkpt><trkpt lat="44.193440846127366" lon="9.595098394580345"><ele>357.0</ele><time>2026-04-09T13:16:56Z</time></trkpt><trkpt lat="44.19351943632752" lon="9.595197088618288"><ele>360.0</ele><time>2026-04-09T13:16:58Z</time></trkpt><trkpt lat="44.193497756912784" lon="9.59530362555369"><ele>363.0</ele><time>2026-04-09T13:16:59Z</time></trkpt><trkpt lat="44.19341200471787" lon="9.595388741726474"><ele>366.0</ele><time>2026-04-09T13:16:59.999Z</time></trkpt><trkpt lat="44.19333490950193" lon="9.595488933732883"><ele>369.0</ele><time>2026-04-09T13:17:00.999Z</time></trkpt><trkpt lat="44.193243266482575" lon="9.595585930527793"><ele>362.75</ele><time>2026-04-09T13:17:01.999Z</time></trkpt><trkpt lat="44.193171064247245" lon="9.595708848901296"><ele>356.5</ele><time>2026-04-09T13:17:02.999Z</time></trkpt><trkpt lat="44.19310662417999" lon="9.595857173907056"><ele>350.25</ele><time>2026-04-09T13:17:03.999Z</time></trkpt><trkpt lat="44.193023263787" lon="9.595980326802684"><ele>344.0</ele><time>2026-04-09T13:17:04.999Z</time></trkpt><trkpt lat="44.19288800362318" lon="9.595992795772547"><ele>344.0</ele><time>2026-04-09T13:17:05.999Z</time></trkpt><trkpt lat="44.19275288428483" lon="9.596030227572008"><ele>344.0</ele><time>2026-04-09T13:17:06.999Z</time></trkpt><trkpt lat="44.19261560475471" lon="9.596126861280922"><ele>344.0</ele><time>2026-04-09T13:17:07.999Z</time></trkpt><trkpt lat="44.192492525334046" lon="9.59626171566889"><ele>344.0</ele><time>2026-04-09T13:17:08.999Z</time></trkpt><trkpt lat="44.19238236436363" lon="9.596402832824792"><ele>342.0</ele><time>2026-04-09T13:17:09.999Z</time></trkpt><trkpt lat="44.192284987748046" lon="9.59653544596672"><ele>340.0</ele><time>2026-04-09T13:17:10.999Z</time></trkpt><trkpt lat="44.19221886800247" lon="9.596632152282186"><ele>338.0</ele><time>2026-04-09T13:17:11.999Z</time></trkpt><trkpt lat="44.19214213548965" lon="9.59655405345455"><ele>336.0</ele><time>2026-04-09T13:17:15.999Z</time></trkpt><trkpt lat="44.19224974793506" lon="9.596433073034069"><ele>336.0</ele><time>2026-04-09T13:17:17.999Z</time></trkpt><trkpt lat="44.192308497410046" lon="9.596339870873528"><ele>336.0</ele><time>2026-04-09T13:17:18.999Z</time></trkpt><trkpt lat="44.19238953925951" lon="9.596233533850059"><ele>336.0</ele><time>2026-04-09T13:17:19.999Z</time></trkpt><trkpt lat="44.192468001303524" lon="9.596116022550147"><ele>336.0</ele><time>2026-04-09T13:17:20.999Z</time></trkpt><trkpt lat="44.19253067671073" lon="9.596030800048757"><ele>336.0</ele><time>2026-04-09T13:17:21.999Z</time></trkpt><trkpt lat="44.192524055215365" lon="9.59588385684724"><ele>336.0</ele><time>2026-04-09T13:17:23.999Z</time></trkpt><trkpt lat="44.19245485085741" lon="9.595861054540764"><ele>336.0</ele><time>2026-04-09T13:17:24.999Z</time></trkpt><trkpt lat="44.192358068155734" lon="9.595910467327043"><ele>336.0</ele><time>2026-04-09T13:17:25.999Z</time></trkpt><trkpt lat="44.19229079274187" lon="9.596039700046012"><ele>336.0</ele><time>2026-04-09T13:17:26.999Z</time></trkpt><trkpt lat="44.19220016449007" lon="9.596140747860083"><ele>336.0</ele><time>2026-04-09T13:17:27.999Z</time></trkpt><trkpt lat="44.19207085123628" lon="9.596176241038213"><ele>336.0</ele><time>2026-04-09T13:17:28.999Z</time></trkpt><trkpt lat="44.191927701184596" lon="9.596182779443472"><ele>336.0</ele><time>2026-04-09T13:17:29.999Z</time></trkpt><trkpt lat="44.19179165661624" lon="9.596242962493251"><ele>336.0</ele><time>2026-04-09T13:17:30.999Z</time></trkpt><trkpt lat="44.19166018906631" lon="9.59629968776772"><ele>336.0</ele><time>2026-04-09T13:17:31.999Z</time></trkpt><trkpt lat="44.191556596651374" lon="9.596343703834679"><ele>336.0</ele><time>2026-04-09T13:17:32.999Z</time></trkpt><trkpt lat="44.19146622541063" lon="9.596400612771337"><ele>336.0</ele><time>2026-04-09T13:17:33.999Z</time></trkpt><trkpt lat="44.19141363103794" lon="9.596503630314391"><ele>336.0</ele><time>2026-04-09T13:17:34.999Z</time></trkpt><trkpt lat="44.1914088862737" lon="9.596641288928137"><ele>336.0</ele><time>2026-04-09T13:17:35.999Z</time></trkpt><trkpt lat="44.1914677183208" lon="9.59678701178742"><ele>336.0</ele><time>2026-04-09T13:17:36.999Z</time></trkpt><trkpt lat="44.19156866325855" lon="9.596902406655628"><ele>337.0</ele><time>2026-04-09T13:17:37.999Z</time></trkpt><trkpt lat="44.19167980790219" lon="9.597029189561209"><ele>338.0</ele><time>2026-04-09T13:17:38.999Z</time></trkpt><trkpt lat="44.19175619621735" lon="9.597161391825829"><ele>339.0</ele><time>2026-04-09T13:17:39.999Z</time></trkpt><trkpt lat="44.191806328217886" lon="9.597259896585097"><ele>340.0</ele><time>2026-04-09T13:17:40.999Z</time></trkpt><trkpt lat="44.19177491155276" lon="9.597412798852815"><ele>340.0</ele><time>2026-04-09T13:17:42.999Z</time></trkpt><trkpt lat="44.19168202416064" lon="9.597455805530595"><ele>340.0</ele><time>2026-04-09T13:17:43.999Z</time></trkpt><trkpt lat="44.19155693315258" lon="9.597435243566096"><ele>340.0</ele><time>2026-04-09T13:17:45.001Z</time></trkpt><trkpt lat="44.191440327215325" lon="9.597362485797062"><ele>340.0</ele><time>2026-04-09T13:17:46.001Z</time></trkpt><trkpt lat="44.191332280035795" lon="9.597278189478978"><ele>341.25</ele><time>2026-04-09T13:17:47.001Z</time></trkpt><trkpt lat="44.191203337670906" lon="9.597215494808347"><ele>342.5</ele><time>2026-04-09T13:17:48.001Z</time></trkpt><trkpt lat="44.191048339979574" lon="9.59716303718396"><ele>343.75</ele><time>2026-04-09T13:17:49.001Z</time></trkpt><trkpt lat="44.19089844851384" lon="9.597137724458115"><ele>345.0</ele><time>2026-04-09T13:17:50.001Z</time></trkpt><trkpt lat="44.19077839148306" lon="9.59712923208174"><ele>345.0</ele><time>2026-04-09T13:17:51.001Z</time></trkpt><trkpt lat="44.190681434292856" lon="9.597003863129714"><ele>345.0</ele><time>2026-04-09T13:17:52.001Z</time></trkpt><trkpt lat="44.19059790814883" lon="9.596856268528045"><ele>345.0</ele><time>2026-04-09T13:17:53.001Z</time></trkpt><trkpt lat="44.19053769610385" lon="9.596677563285462"><ele>345.0</ele><time>2026-04-09T13:17:54.001Z</time></trkpt><trkpt lat="44.19045775434994" lon="9.596503880720396"><ele>341.25</ele><time>2026-04-09T13:17:55.001Z</time></trkpt><trkpt lat="44.19039439608494" lon="9.596317994133708"><ele>337.5</ele><time>2026-04-09T13:17:56.001Z</time></trkpt><trkpt lat="44.19031509813754" lon="9.596173169485088"><ele>333.75</ele><time>2026-04-09T13:17:57.001Z</time></trkpt><trkpt lat="44.19024446564992" lon="9.596065049166743"><ele>330.0</ele><time>2026-04-09T13:17:58.001Z</time></trkpt><trkpt lat="44.190141909852315" lon="9.595989417149479"><ele>324.25</ele><time>2026-04-09T13:17:59.001Z</time></trkpt><trkpt lat="44.19000908611113" lon="9.595965990864027"><ele>318.5</ele><time>2026-04-09T13:18:00Z</time></trkpt><trkpt lat="44.18986317546286" lon="9.595992509599489"><ele>312.75</ele><time>2026-04-09T13:18:01Z</time></trkpt><trkpt lat="44.189712959084616" lon="9.596052783174017"><ele>307.0</ele><time>2026-04-09T13:18:02Z</time></trkpt><trkpt lat="44.18956146094646" lon="9.596145257151992"><ele>308.75</ele><time>2026-04-09T13:18:03Z</time></trkpt><trkpt lat="44.18941800268034" lon="9.596207702014146"><ele>310.5</ele><time>2026-04-09T13:18:04Z</time></trkpt><trkpt lat="44.18928973990088" lon="9.596221499046093"><ele>312.25</ele><time>2026-04-09T13:18:05Z</time></trkpt><trkpt lat="44.18918965427239" lon="9.596252713691445"><ele>314.0</ele><time>2026-04-09T13:18:06Z</time></trkpt><trkpt lat="44.18907764799922" lon="9.59633163362123"><ele>314.0</ele><time>2026-04-09T13:18:07Z</time></trkpt><trkpt lat="44.18898037395315" lon="9.596465759187891"><ele>314.0</ele><time>2026-04-09T13:18:08Z</time></trkpt><trkpt lat="44.18888899989974" lon="9.596629823277496"><ele>314.0</ele><time>2026-04-09T13:18:09Z</time></trkpt><trkpt lat="44.188810384196394" lon="9.596798639129094"><ele>314.0</ele><time>2026-04-09T13:18:10Z</time></trkpt><trkpt lat="44.18874704453012" lon="9.596901089918186"><ele>314.0</ele><time>2026-04-09T13:18:11Z</time></trkpt><trkpt lat="44.18868751826552" lon="9.596949132571657"><ele>314.0</ele><time>2026-04-09T13:18:12Z</time></trkpt><trkpt lat="44.18861636579185" lon="9.596938321104519"><ele>314.0</ele><time>2026-04-09T13:18:13Z</time></trkpt><trkpt lat="44.18855679764996" lon="9.596823598711795"><ele>314.0</ele><time>2026-04-09T13:18:14Z</time></trkpt><trkpt lat="44.188548329608395" lon="9.596668717989752"><ele>314.0</ele><time>2026-04-09T13:18:15Z</time></trkpt><trkpt lat="44.188528142433526" lon="9.596493414777681"><ele>314.0</ele><time>2026-04-09T13:18:16Z</time></trkpt><trkpt lat="44.18849080279714" lon="9.596300147110968"><ele>314.0</ele><time>2026-04-09T13:18:17Z</time></trkpt><trkpt lat="44.188451563906675" lon="9.596098889148672"><ele>314.0</ele><time>2026-04-09T13:18:18Z</time></trkpt><trkpt lat="44.18841665831233" lon="9.595896668053271"><ele>314.0</ele><time>2026-04-09T13:18:19Z</time></trkpt><trkpt lat="44.1883611840491" lon="9.59572698971778"><ele>315.0</ele><time>2026-04-09T13:18:20Z</time></trkpt><trkpt lat="44.18829070227383" lon="9.595617028951757"><ele>316.0</ele><time>2026-04-09T13:18:21Z</time></trkpt><trkpt lat="44.1881948789062" lon="9.59553876995788"><ele>317.0</ele><time>2026-04-09T13:18:22Z</time></trkpt><trkpt lat="44.18807295119301" lon="9.59550565484654"><ele>318.0</ele><time>2026-04-09T13:18:23Z</time></trkpt><trkpt lat="44.18796498775493" lon="9.595503373080158"><ele>319.0</ele><time>2026-04-09T13:18:24Z</time></trkpt><trkpt lat="44.187890690675864" lon="9.595461644055838"><ele>315.0</ele><time>2026-04-09T13:18:25Z</time></trkpt><trkpt lat="44.187855746173405" lon="9.595336521783661"><ele>311.0</ele><time>2026-04-09T13:18:26Z</time></trkpt><trkpt lat="44.187919188481516" lon="9.595156062810318"><ele>307.0</ele><time>2026-04-09T13:18:27Z</time></trkpt><trkpt lat="44.18790011330701" lon="9.594976763428498"><ele>303.0</ele><time>2026-04-09T13:18:28Z</time></trkpt><trkpt lat="44.18784683675439" lon="9.594800503692667"><ele>303.0</ele><time>2026-04-09T13:18:29Z</time></trkpt><trkpt lat="44.18777609876429" lon="9.59460504054991"><ele>303.0</ele><time>2026-04-09T13:18:30Z</time></trkpt><trkpt lat="44.18768194505029" lon="9.594423429955171"><ele>303.0</ele><time>2026-04-09T13:18:31Z</time></trkpt><trkpt lat="44.18754200336794" lon="9.594259056941958"><ele>300.0</ele><time>2026-04-09T13:18:32Z</time></trkpt><trkpt lat="44.18738742208404" lon="9.594133292020068"><ele>297.0</ele><time>2026-04-09T13:18:33Z</time></trkpt><trkpt lat="44.187239977674814" lon="9.594005175281161"><ele>294.0</ele><time>2026-04-09T13:18:34Z</time></trkpt><trkpt lat="44.18711570392273" lon="9.593892369524484"><ele>294.0</ele><time>2026-04-09T13:18:35Z</time></trkpt><trkpt lat="44.18704449986783" lon="9.593705056403387"><ele>294.0</ele><time>2026-04-09T13:18:36Z</time></trkpt><trkpt lat="44.18695351863065" lon="9.593539806844815"><ele>294.0</ele><time>2026-04-09T13:18:37Z</time></trkpt><trkpt lat="44.18688394755086" lon="9.593411599613443"><ele>294.0</ele><time>2026-04-09T13:18:38Z</time></trkpt><trkpt lat="44.18679621960381" lon="9.593336092030494"><ele>288.59999999999997</ele><time>2026-04-09T13:18:39Z</time></trkpt><trkpt lat="44.18671017919436" lon="9.593304802969772"><ele>283.2</ele><time>2026-04-09T13:18:40Z</time></trkpt><trkpt lat="44.18661820881466" lon="9.593320269465254"><ele>277.79999999999995</ele><time>2026-04-09T13:18:41Z</time></trkpt><trkpt lat="44.186526850591505" lon="9.593371867252928"><ele>272.4</ele><time>2026-04-09T13:18:42Z</time></trkpt><trkpt lat="44.186420027258976" lon="9.593435326125626"><ele>267.0</ele><time>2026-04-09T13:18:43Z</time></trkpt><trkpt lat="44.18632932910687" lon="9.593576775921596"><ele>272.6</ele><time>2026-04-09T13:18:44Z</time></trkpt><trkpt lat="44.18622241458471" lon="9.59369571872001"><ele>278.2</ele><time>2026-04-09T13:18:45Z</time></trkpt><trkpt lat="44.18612925421116" lon="9.593789457138683"><ele>283.8</ele><time>2026-04-09T13:18:46Z</time></trkpt><trkpt lat="44.18605563783058" lon="9.593832343553638"><ele>289.4</ele><time>2026-04-09T13:18:47Z</time></trkpt><trkpt lat="44.18598772467575" lon="9.593832463940617"><ele>295.0</ele><time>2026-04-09T13:18:48Z</time></trkpt><trkpt lat="44.185932977821246" lon="9.593733285066763"><ele>290.25</ele><time>2026-04-09T13:18:49Z</time></trkpt><trkpt lat="44.185861098364974" lon="9.593611049167983"><ele>285.5</ele><time>2026-04-09T13:18:50Z</time></trkpt><trkpt lat="44.18576848824917" lon="9.593499578933963"><ele>280.75</ele><time>2026-04-09T13:18:51Z</time></trkpt><trkpt lat="44.18565918018737" lon="9.593395003126965"><ele>276.0</ele><time>2026-04-09T13:18:52Z</time></trkpt><trkpt lat="44.18562645803783" lon="9.59325388152441"><ele>276.0</ele><time>2026-04-09T13:18:53Z</time></trkpt><trkpt lat="44.185591472566884" lon="9.593145484788376"><ele>276.0</ele><time>2026-04-09T13:18:54Z</time></trkpt><trkpt lat="44.18549353292173" lon="9.593083249120262"><ele>276.0</ele><time>2026-04-09T13:18:55Z</time></trkpt><trkpt lat="44.18536696031878" lon="9.59312304016499"><ele>276.0</ele><time>2026-04-09T13:18:56Z</time></trkpt><trkpt lat="44.185250916159205" lon="9.593229057040322"><ele>276.0</ele><time>2026-04-09T13:18:57Z</time></trkpt><trkpt lat="44.18516178393904" lon="9.593284881641555"><ele>276.0</ele><time>2026-04-09T13:18:58Z</time></trkpt><trkpt lat="44.18506897800838" lon="9.593213706522896"><ele>276.0</ele><time>2026-04-09T13:18:59Z</time></trkpt><trkpt lat="44.184999719782276" lon="9.593081933970707"><ele>276.0</ele><time>2026-04-09T13:18:59.999Z</time></trkpt><trkpt lat="44.184911088653045" lon="9.59294864433377"><ele>279.3333333333333</ele><time>2026-04-09T13:19:00.999Z</time></trkpt><trkpt lat="44.18481756463902" lon="9.592759906253022"><ele>282.66666666666663</ele><time>2026-04-09T13:19:01.999Z</time></trkpt><trkpt lat="44.18471093376697" lon="9.592582211737898"><ele>286.0</ele><time>2026-04-09T13:19:02.999Z</time></trkpt><trkpt lat="44.1845978751162" lon="9.592391227056524"><ele>286.0</ele><time>2026-04-09T13:19:03.999Z</time></trkpt><trkpt lat="44.18446978143986" lon="9.592203909492062"><ele>286.0</ele><time>2026-04-09T13:19:04.999Z</time></trkpt><trkpt lat="44.184336801297206" lon="9.59202732113082"><ele>286.0</ele><time>2026-04-09T13:19:05.999Z</time></trkpt><trkpt lat="44.184237730575596" lon="9.591834848643199"><ele>278.3333333333333</ele><time>2026-04-09T13:19:06.999Z</time></trkpt><trkpt lat="44.184185192795795" lon="9.591610984103113"><ele>270.6666666666667</ele><time>2026-04-09T13:19:07.999Z</time></trkpt><trkpt lat="44.18411858158675" lon="9.591371118212713"><ele>263.0</ele><time>2026-04-09T13:19:08.999Z</time></trkpt><trkpt lat="44.18404843794445" lon="9.59112223737974"><ele>255.0</ele><time>2026-04-09T13:19:09.999Z</time></trkpt><trkpt lat="44.18394126202212" lon="9.590929504801233"><ele>247.0</ele><time>2026-04-09T13:19:10.999Z</time></trkpt><trkpt lat="44.18384883761915" lon="9.59077412896028"><ele>239.0</ele><time>2026-04-09T13:19:11.999Z</time></trkpt><trkpt lat="44.18375438721158" lon="9.59068137866037"><ele>231.0</ele><time>2026-04-09T13:19:12.999Z</time></trkpt><trkpt lat="44.183656299772615" lon="9.59061017839336"><ele>231.0</ele><time>2026-04-09T13:19:13.999Z</time></trkpt><trkpt lat="44.18355348750584" lon="9.590593956796107"><ele>231.0</ele><time>2026-04-09T13:19:14.999Z</time></trkpt><trkpt lat="44.18343259811883" lon="9.590654087248756"><ele>231.0</ele><time>2026-04-09T13:19:15.999Z</time></trkpt><trkpt lat="44.18332312728126" lon="9.590782610310871"><ele>231.0</ele><time>2026-04-09T13:19:16.999Z</time></trkpt><trkpt lat="44.18325811362247" lon="9.59096566173921"><ele>231.0</ele><time>2026-04-09T13:19:17.999Z</time></trkpt><trkpt lat="44.18321502913572" lon="9.591163474262004"><ele>231.0</ele><time>2026-04-09T13:19:18.999Z</time></trkpt><trkpt lat="44.18315033916425" lon="9.591361270247381"><ele>231.0</ele><time>2026-04-09T13:19:19.999Z</time></trkpt><trkpt lat="44.18306099817604" lon="9.591555279155848"><ele>228.33333333333331</ele><time>2026-04-09T13:19:20.999Z</time></trkpt><trkpt lat="44.18295595586131" lon="9.591715368112293"><ele>225.66666666666666</ele><time>2026-04-09T13:19:21.999Z</time></trkpt><trkpt lat="44.18283866117696" lon="9.591824788431508"><ele>223.0</ele><time>2026-04-09T13:19:22.999Z</time></trkpt><trkpt lat="44.18268183836808" lon="9.591852178584132"><ele>223.0</ele><time>2026-04-09T13:19:23.999Z</time></trkpt><trkpt lat="44.182535111023114" lon="9.591860647666419"><ele>223.0</ele><time>2026-04-09T13:19:24.999Z</time></trkpt><trkpt lat="44.182419573889554" lon="9.591874620164278"><ele>223.0</ele><time>2026-04-09T13:19:25.999Z</time></trkpt><trkpt lat="44.18231732752948" lon="9.59192174053463"><ele>223.0</ele><time>2026-04-09T13:19:26.999Z</time></trkpt><trkpt lat="44.18223426057695" lon="9.59198977890269"><ele>222.60000000000002</ele><time>2026-04-09T13:19:27.999Z</time></trkpt><trkpt lat="44.18217118425339" lon="9.59208942870225"><ele>222.20000000000002</ele><time>2026-04-09T13:19:28.999Z</time></trkpt><trkpt lat="44.182126701411555" lon="9.592197403793344"><ele>221.8</ele><time>2026-04-09T13:19:29.999Z</time></trkpt><trkpt lat="44.18208445369732" lon="9.592305251274096"><ele>221.4</ele><time>2026-04-09T13:19:30.999Z</time></trkpt><trkpt lat="44.18204661712671" lon="9.592413025659631"><ele>221.0</ele><time>2026-04-09T13:19:31.999Z</time></trkpt><trkpt lat="44.18200012316279" lon="9.592524846798465"><ele>221.00000000000003</ele><time>2026-04-09T13:19:32.999Z</time></trkpt><trkpt lat="44.18195860106651" lon="9.592629532192326"><ele>221.0</ele><time>2026-04-09T13:19:33.999Z</time></trkpt><trkpt lat="44.1818985926424" lon="9.592696632151062"><ele>221.0</ele><time>2026-04-09T13:19:34.999Z</time></trkpt><trkpt lat="44.18182083041314" lon="9.59271549166058"><ele>221.0</ele><time>2026-04-09T13:19:35.999Z</time></trkpt><trkpt lat="44.181728719984164" lon="9.592689144830347"><ele>221.00000000000003</ele><time>2026-04-09T13:19:36.999Z</time></trkpt><trkpt lat="44.18163176808171" lon="9.592644779981889"><ele>221.0</ele><time>2026-04-09T13:19:37.999Z</time></trkpt><trkpt lat="44.18154071414648" lon="9.592633668988984"><ele>216.20000000000002</ele><time>2026-04-09T13:19:38.999Z</time></trkpt><trkpt lat="44.181440493909285" lon="9.592636113778319"><ele>211.40000000000003</ele><time>2026-04-09T13:19:39.999Z</time></trkpt><trkpt lat="44.18134185109343" lon="9.592627115999939"><ele>206.6</ele><time>2026-04-09T13:19:40.999Z</time></trkpt><trkpt lat="44.18125338745847" lon="9.592636742457051"><ele>201.8</ele><time>2026-04-09T13:19:41.999Z</time></trkpt><trkpt lat="44.18117071877772" lon="9.592667742398154"><ele>197.0</ele><time>2026-04-09T13:19:42.999Z</time></trkpt><trkpt lat="44.18110432553493" lon="9.592750750590756"><ele>202.5</ele><time>2026-04-09T13:19:43.999Z</time></trkpt><trkpt lat="44.18104224381783" lon="9.592897222960799"><ele>208.0</ele><time>2026-04-09T13:19:44.999Z</time></trkpt><trkpt lat="44.18096063178921" lon="9.593041765247213"><ele>213.5</ele><time>2026-04-09T13:19:45.999Z</time></trkpt><trkpt lat="44.18086720536741" lon="9.59321824905041"><ele>219.0</ele><time>2026-04-09T13:19:46.999Z</time></trkpt><trkpt lat="44.18077859920606" lon="9.593410607553077"><ele>214.66666666666669</ele><time>2026-04-09T13:19:47.999Z</time></trkpt><trkpt lat="44.18066311340227" lon="9.593602025030401"><ele>210.33333333333334</ele><time>2026-04-09T13:19:48.999Z</time></trkpt><trkpt lat="44.1805568183489" lon="9.593790521031249"><ele>206.0</ele><time>2026-04-09T13:19:49.999Z</time></trkpt><trkpt lat="44.180449669452216" lon="9.593954042750697"><ele>206.0</ele><time>2026-04-09T13:19:51.001Z</time></trkpt><trkpt lat="44.18032746322012" lon="9.594086497592519"><ele>206.0</ele><time>2026-04-09T13:19:52.001Z</time></trkpt><trkpt lat="44.18020028849788" lon="9.594205864118882"><ele>206.0</ele><time>2026-04-09T13:19:53.001Z</time></trkpt><trkpt lat="44.18007720146396" lon="9.594319016604153"><ele>206.0</ele><time>2026-04-09T13:19:54.001Z</time></trkpt><trkpt lat="44.17995352755121" lon="9.59440600464157"><ele>206.0</ele><time>2026-04-09T13:19:55.001Z</time></trkpt><trkpt lat="44.17983623777209" lon="9.594467843027846"><ele>206.0</ele><time>2026-04-09T13:19:56.001Z</time></trkpt><trkpt lat="44.17974779505877" lon="9.594525232509433"><ele>206.0</ele><time>2026-04-09T13:19:57.001Z</time></trkpt><trkpt lat="44.17969104799102" lon="9.594620789323415"><ele>200.75</ele><time>2026-04-09T13:19:58.001Z</time></trkpt><trkpt lat="44.17967290180965" lon="9.594785472855806"><ele>195.5</ele><time>2026-04-09T13:19:59Z</time></trkpt><trkpt lat="44.17968052199" lon="9.594978698472742"><ele>190.25</ele><time>2026-04-09T13:20:00Z</time></trkpt><trkpt lat="44.17967223592931" lon="9.59518348372145"><ele>185.0</ele><time>2026-04-09T13:20:01Z</time></trkpt><trkpt lat="44.179663064613955" lon="9.595406347753553"><ele>185.0</ele><time>2026-04-09T13:20:02Z</time></trkpt><trkpt lat="44.17965528349919" lon="9.595633979362239"><ele>185.0</ele><time>2026-04-09T13:20:03Z</time></trkpt><trkpt lat="44.179662816679176" lon="9.59582843743225"><ele>185.0</ele><time>2026-04-09T13:20:04Z</time></trkpt><trkpt lat="44.179673272908005" lon="9.595960268728193"><ele>185.0</ele><time>2026-04-09T13:20:05Z</time></trkpt><trkpt lat="44.17965483368239" lon="9.596087658302785"><ele>186.0</ele><time>2026-04-09T13:20:06Z</time></trkpt><trkpt lat="44.17958300471358" lon="9.596209372061331"><ele>187.0</ele><time>2026-04-09T13:20:07Z</time></trkpt><trkpt lat="44.17947743829814" lon="9.596324701434021"><ele>188.0</ele><time>2026-04-09T13:20:08Z</time></trkpt><trkpt lat="44.17935079985008" lon="9.596397233090855"><ele>189.0</ele><time>2026-04-09T13:20:09Z</time></trkpt><trkpt lat="44.17921673259591" lon="9.596461166508771"><ele>189.0</ele><time>2026-04-09T13:20:10Z</time></trkpt><trkpt lat="44.17909319555384" lon="9.59659420048237"><ele>189.0</ele><time>2026-04-09T13:20:11Z</time></trkpt><trkpt lat="44.17897620619007" lon="9.596723743577202"><ele>189.0</ele><time>2026-04-09T13:20:12Z</time></trkpt><trkpt lat="44.17888816069621" lon="9.596846441344937"><ele>189.0</ele><time>2026-04-09T13:20:13Z</time></trkpt><trkpt lat="44.17881845251062" lon="9.597014024870301"><ele>184.33333333333334</ele><time>2026-04-09T13:20:14Z</time></trkpt><trkpt lat="44.178780403487124" lon="9.59722678927781"><ele>179.66666666666669</ele><time>2026-04-09T13:20:15Z</time></trkpt><trkpt lat="44.17871822227046" lon="9.597404310414175"><ele>175.0</ele><time>2026-04-09T13:20:16Z</time></trkpt><trkpt lat="44.17861082322068" lon="9.597564911398543"><ele>175.0</ele><time>2026-04-09T13:20:17Z</time></trkpt><trkpt lat="44.17846721013101" lon="9.597694601258585"><ele>175.0</ele><time>2026-04-09T13:20:18Z</time></trkpt><trkpt lat="44.178294083194466" lon="9.597774257598477"><ele>175.0</ele><time>2026-04-09T13:20:19Z</time></trkpt><trkpt lat="44.17810830778123" lon="9.59781206790775"><ele>172.33333333333334</ele><time>2026-04-09T13:20:20Z</time></trkpt><trkpt lat="44.177920717041346" lon="9.597840237836206"><ele>169.66666666666666</ele><time>2026-04-09T13:20:21Z</time></trkpt><trkpt lat="44.177739584372816" lon="9.597924110837276"><ele>167.0</ele><time>2026-04-09T13:20:22Z</time></trkpt><trkpt lat="44.17756800651944" lon="9.59803760800456"><ele>167.0</ele><time>2026-04-09T13:20:23Z</time></trkpt><trkpt lat="44.17743809176522" lon="9.598138912895289"><ele>167.0</ele><time>2026-04-09T13:20:24Z</time></trkpt><trkpt lat="44.17732635593619" lon="9.59822131418834"><ele>167.0</ele><time>2026-04-09T13:20:25Z</time></trkpt><trkpt lat="44.17723768090332" lon="9.598292001598491"><ele>167.0</ele><time>2026-04-09T13:20:26Z</time></trkpt><trkpt lat="44.17718381342607" lon="9.598395323606733"><ele>162.75</ele><time>2026-04-09T13:20:27Z</time></trkpt><trkpt lat="44.17718502419019" lon="9.598519810298098"><ele>158.5</ele><time>2026-04-09T13:20:28Z</time></trkpt><trkpt lat="44.177242813953946" lon="9.598659463666149"><ele>154.25</ele><time>2026-04-09T13:20:29Z</time></trkpt><trkpt lat="44.17734544717852" lon="9.598762812815622"><ele>150.0</ele><time>2026-04-09T13:20:30Z</time></trkpt><trkpt lat="44.17747024631967" lon="9.598856088786748"><ele>150.0</ele><time>2026-04-09T13:20:31Z</time></trkpt><trkpt lat="44.17761549986511" lon="9.598919947818064"><ele>150.0</ele><time>2026-04-09T13:20:32Z</time></trkpt><trkpt lat="44.17778552649327" lon="9.598902933771802"><ele>150.0</ele><time>2026-04-09T13:20:33Z</time></trkpt><trkpt lat="44.1779564046813" lon="9.598859174246694"><ele>150.0</ele><time>2026-04-09T13:20:34Z</time></trkpt><trkpt lat="44.17813610506951" lon="9.59884003024879"><ele>150.0</ele><time>2026-04-09T13:20:35Z</time></trkpt><trkpt lat="44.178323935068526" lon="9.598793320785603"><ele>150.0</ele><time>2026-04-09T13:20:36Z</time></trkpt><trkpt lat="44.1784733009894" lon="9.598741923269161"><ele>149.5</ele><time>2026-04-09T13:20:37Z</time></trkpt><trkpt lat="44.17859101365281" lon="9.598715323481324"><ele>149.0</ele><time>2026-04-09T13:20:38Z</time></trkpt><trkpt lat="44.17871248530801" lon="9.598755261686007"><ele>148.5</ele><time>2026-04-09T13:20:39Z</time></trkpt><trkpt lat="44.178822442345485" lon="9.598848333900813"><ele>148.0</ele><time>2026-04-09T13:20:40Z</time></trkpt><trkpt lat="44.17892094142312" lon="9.598948806713848"><ele>148.0</ele><time>2026-04-09T13:20:41Z</time></trkpt><trkpt lat="44.17898908927975" lon="9.599103362589291"><ele>148.0</ele><time>2026-04-09T13:20:42Z</time></trkpt><trkpt lat="44.17902189346251" lon="9.599294581845676"><ele>148.0</ele><time>2026-04-09T13:20:43Z</time></trkpt><trkpt lat="44.17904867302432" lon="9.59944193112843"><ele>148.0</ele><time>2026-04-09T13:20:44Z</time></trkpt><trkpt lat="44.179045058602355" lon="9.599570279827779"><ele>144.25</ele><time>2026-04-09T13:20:45Z</time></trkpt><trkpt lat="44.17897387689761" lon="9.599685160217911"><ele>140.5</ele><time>2026-04-09T13:20:46Z</time></trkpt><trkpt lat="44.17886743094708" lon="9.599768345513201"><ele>136.75</ele><time>2026-04-09T13:20:47Z</time></trkpt><trkpt lat="44.17875482082286" lon="9.599876320429704"><ele>133.0</ele><time>2026-04-09T13:20:48Z</time></trkpt><trkpt lat="44.17863996125741" lon="9.600007461639812"><ele>133.0</ele><time>2026-04-09T13:20:49Z</time></trkpt><trkpt lat="44.17853046557789" lon="9.6001331410404"><ele>133.0</ele><time>2026-04-09T13:20:50Z</time></trkpt><trkpt lat="44.17844804137765" lon="9.600300217316816"><ele>133.0</ele><time>2026-04-09T13:20:51Z</time></trkpt><trkpt lat="44.1783922767018" lon="9.600504260746465"><ele>133.0</ele><time>2026-04-09T13:20:52Z</time></trkpt><trkpt lat="44.17835985083934" lon="9.600680666292279"><ele>133.25</ele><time>2026-04-09T13:20:53Z</time></trkpt><trkpt lat="44.17835837628753" lon="9.600851478899354"><ele>133.5</ele><time>2026-04-09T13:20:54Z</time></trkpt><trkpt lat="44.178410194885124" lon="9.601023312484754"><ele>133.75</ele><time>2026-04-09T13:20:54.999Z</time></trkpt><trkpt lat="44.17846611735508" lon="9.6011611079421"><ele>134.0</ele><time>2026-04-09T13:20:55.999Z</time></trkpt><trkpt lat="44.178460388487565" lon="9.601318611330882"><ele>134.0</ele><time>2026-04-09T13:20:56.999Z</time></trkpt><trkpt lat="44.17840886817877" lon="9.601480883554702"><ele>134.0</ele><time>2026-04-09T13:20:57.999Z</time></trkpt><trkpt lat="44.17833685677232" lon="9.60162479507047"><ele>134.0</ele><time>2026-04-09T13:20:58.999Z</time></trkpt><trkpt lat="44.178333867911434" lon="9.601800102311186"><ele>134.0</ele><time>2026-04-09T13:20:59.999Z</time></trkpt><trkpt lat="44.17837704085212" lon="9.601987731669277"><ele>134.0</ele><time>2026-04-09T13:21:00.999Z</time></trkpt><trkpt lat="44.1783997915967" lon="9.602174428856312"><ele>134.0</ele><time>2026-04-09T13:21:01.999Z</time></trkpt><trkpt lat="44.17834477467489" lon="9.602372933045249"><ele>134.0</ele><time>2026-04-09T13:21:02.999Z</time></trkpt><trkpt lat="44.1783077749823" lon="9.602600763709377"><ele>133.0</ele><time>2026-04-09T13:21:03.999Z</time></trkpt><trkpt lat="44.178279222333664" lon="9.602845237740135"><ele>132.0</ele><time>2026-04-09T13:21:04.999Z</time></trkpt><trkpt lat="44.17825145696447" lon="9.603102095177311"><ele>131.0</ele><time>2026-04-09T13:21:05.999Z</time></trkpt><trkpt lat="44.17818448688119" lon="9.60335224267331"><ele>120.33333333333333</ele><time>2026-04-09T13:21:06.999Z</time></trkpt><trkpt lat="44.17812647714288" lon="9.603610676952817"><ele>109.66666666666666</ele><time>2026-04-09T13:21:07.999Z</time></trkpt><trkpt lat="44.17810128526124" lon="9.60386366142593"><ele>99.0</ele><time>2026-04-09T13:21:08.999Z</time></trkpt><trkpt lat="44.17810909906767" lon="9.604140318296638"><ele>99.66666666666666</ele><time>2026-04-09T13:21:09.999Z</time></trkpt><trkpt lat="44.17814514072717" lon="9.604415023287567"><ele>100.33333333333333</ele><time>2026-04-09T13:21:10.999Z</time></trkpt><trkpt lat="44.178173738395344" lon="9.604684791056677"><ele>101.0</ele><time>2026-04-09T13:21:11.999Z</time></trkpt><trkpt lat="44.17819422980262" lon="9.604902778110773"><ele>105.75</ele><time>2026-04-09T13:21:12.999Z</time></trkpt><trkpt lat="44.17822011845324" lon="9.605070610617366"><ele>110.5</ele><time>2026-04-09T13:21:13.999Z</time></trkpt><trkpt lat="44.178288941183766" lon="9.605211221869094"><ele>115.25</ele><time>2026-04-09T13:21:14.999Z</time></trkpt><trkpt lat="44.17840386383023" lon="9.60529004385997"><ele>120.0</ele><time>2026-04-09T13:21:15.999Z</time></trkpt><trkpt lat="44.17849910197849" lon="9.605344798765419"><ele>121.2</ele><time>2026-04-09T13:21:16.999Z</time></trkpt><trkpt lat="44.17854933296549" lon="9.605417167468614"><ele>122.4</ele><time>2026-04-09T13:21:17.999Z</time></trkpt><trkpt lat="44.17853845583174" lon="9.60552769554723"><ele>123.6</ele><time>2026-04-09T13:21:18.999Z</time></trkpt><trkpt lat="44.1784666631653" lon="9.60560040453278"><ele>124.8</ele><time>2026-04-09T13:21:19.999Z</time></trkpt><trkpt lat="44.17833290907787" lon="9.605641467554301"><ele>126.0</ele><time>2026-04-09T13:21:20.999Z</time></trkpt><trkpt lat="44.17819538039023" lon="9.605657845386736"><ele>127.0</ele><time>2026-04-09T13:21:21.999Z</time></trkpt><trkpt lat="44.17805045066561" lon="9.605631575719983"><ele>128.0</ele><time>2026-04-09T13:21:22.999Z</time></trkpt><trkpt lat="44.17790223930787" lon="9.605548809892387"><ele>129.0</ele><time>2026-04-09T13:21:23.999Z</time></trkpt><trkpt lat="44.177742740322046" lon="9.605454930084404"><ele>129.0</ele><time>2026-04-09T13:21:24.999Z</time></trkpt><trkpt lat="44.17757142115731" lon="9.60534454609694"><ele>129.0</ele><time>2026-04-09T13:21:25.999Z</time></trkpt><trkpt lat="44.17742377060527" lon="9.605194217872839"><ele>129.0</ele><time>2026-04-09T13:21:26.999Z</time></trkpt><trkpt lat="44.17726639396081" lon="9.605051126811102"><ele>119.66666666666666</ele><time>2026-04-09T13:21:27.999Z</time></trkpt><trkpt lat="44.17711343855172" lon="9.604904676436389"><ele>110.33333333333333</ele><time>2026-04-09T13:21:28.999Z</time></trkpt><trkpt lat="44.17694271893786" lon="9.604823829596313"><ele>101.0</ele><time>2026-04-09T13:21:29.999Z</time></trkpt><trkpt lat="44.17674409428284" lon="9.604782821919732"><ele>101.0</ele><time>2026-04-09T13:21:30.999Z</time></trkpt><trkpt lat="44.176542230025" lon="9.604749041232246"><ele>101.0</ele><time>2026-04-09T13:21:31.999Z</time></trkpt><trkpt lat="44.17633916628062" lon="9.604737078533995"><ele>101.0</ele><time>2026-04-09T13:21:32.999Z</time></trkpt><trkpt lat="44.17613090953341" lon="9.604752498750889"><ele>97.33333333333333</ele><time>2026-04-09T13:21:33.999Z</time></trkpt><trkpt lat="44.175911848920016" lon="9.604808152607243"><ele>93.66666666666666</ele><time>2026-04-09T13:21:34.999Z</time></trkpt><trkpt lat="44.17569735483787" lon="9.60486885170864"><ele>90.0</ele><time>2026-04-09T13:21:35.999Z</time></trkpt><trkpt lat="44.17548148681408" lon="9.604951236300355"><ele>85.33333333333333</ele><time>2026-04-09T13:21:36.999Z</time></trkpt><trkpt lat="44.175280431560566" lon="9.605032701726554"><ele>80.66666666666666</ele><time>2026-04-09T13:21:37.999Z</time></trkpt><trkpt lat="44.17507325293096" lon="9.605149015983612"><ele>76.0</ele><time>2026-04-09T13:21:38.999Z</time></trkpt><trkpt lat="44.17488493652217" lon="9.60527975596054"><ele>78.33333333333333</ele><time>2026-04-09T13:21:39.999Z</time></trkpt><trkpt lat="44.17470270904567" lon="9.605392726280023"><ele>80.66666666666667</ele><time>2026-04-09T13:21:40.999Z</time></trkpt><trkpt lat="44.17453741026734" lon="9.605472027082158"><ele>83.0</ele><time>2026-04-09T13:21:41.999Z</time></trkpt><trkpt lat="44.174362061715954" lon="9.605497045950962"><ele>83.0</ele><time>2026-04-09T13:21:42.999Z</time></trkpt><trkpt lat="44.17419564616807" lon="9.605515267425103"><ele>83.0</ele><time>2026-04-09T13:21:43.999Z</time></trkpt><trkpt lat="44.174040476382906" lon="9.605524480687373"><ele>83.0</ele><time>2026-04-09T13:21:44.999Z</time></trkpt><trkpt lat="44.17389278366892" lon="9.605507835849147"><ele>77.75</ele><time>2026-04-09T13:21:45.999Z</time></trkpt><trkpt lat="44.173758201033365" lon="9.605508959563082"><ele>72.5</ele><time>2026-04-09T13:21:46.999Z</time></trkpt><trkpt lat="44.173637105530396" lon="9.605522619863738"><ele>67.25</ele><time>2026-04-09T13:21:47.999Z</time></trkpt><trkpt lat="44.17352183827409" lon="9.605567328710933"><ele>62.0</ele><time>2026-04-09T13:21:48.999Z</time></trkpt><trkpt lat="44.17341058646755" lon="9.605619651422646"><ele>62.0</ele><time>2026-04-09T13:21:49.999Z</time></trkpt><trkpt lat="44.173321052716894" lon="9.605683399451834"><ele>62.0</ele><time>2026-04-09T13:21:50.999Z</time></trkpt><trkpt lat="44.1732436155562" lon="9.605778091842222"><ele>62.0</ele><time>2026-04-09T13:21:51.999Z</time></trkpt><trkpt lat="44.17319616648066" lon="9.60589443825538"><ele>62.0</ele><time>2026-04-09T13:21:52.999Z</time></trkpt><trkpt lat="44.17316021847729" lon="9.606008828084148"><ele>62.0</ele><time>2026-04-09T13:21:53.999Z</time></trkpt><trkpt lat="44.173114762433855" lon="9.60611562124309"><ele>56.66666666666667</ele><time>2026-04-09T13:21:54.999Z</time></trkpt><trkpt lat="44.173074172355015" lon="9.60622204642693"><ele>51.333333333333336</ele><time>2026-04-09T13:21:55.999Z</time></trkpt><trkpt lat="44.17303164648642" lon="9.606322452504878"><ele>46.0</ele><time>2026-04-09T13:21:57Z</time></trkpt><trkpt lat="44.172993188651745" lon="9.606416539359302"><ele>40.66666666666667</ele><time>2026-04-09T13:21:58Z</time></trkpt><trkpt lat="44.17296043910236" lon="9.606511711808773"><ele>35.333333333333336</ele><time>2026-04-09T13:21:59Z</time></trkpt><trkpt lat="44.17292180832884" lon="9.606599896494673"><ele>30.0</ele><time>2026-04-09T13:22:00Z</time></trkpt><trkpt lat="44.17288836878186" lon="9.60669141423058"><ele>30.0</ele><time>2026-04-09T13:22:01Z</time></trkpt><trkpt lat="44.17285172873512" lon="9.606794905832318"><ele>30.0</ele><time>2026-04-09T13:22:02Z</time></trkpt><trkpt lat="44.172830034167035" lon="9.606911963174763"><ele>30.0</ele><time>2026-04-09T13:22:03Z</time></trkpt><trkpt lat="44.17282472158316" lon="9.607035491020516"><ele>30.0</ele><time>2026-04-09T13:22:04Z</time></trkpt><trkpt lat="44.17282850787045" lon="9.607160535446646"><ele>30.0</ele><time>2026-04-09T13:22:05Z</time></trkpt><trkpt lat="44.17283145501511" lon="9.607271381797831"><ele>30.0</ele><time>2026-04-09T13:22:06Z</time></trkpt><trkpt lat="44.172834997479804" lon="9.607383836969854"><ele>29.666666666666668</ele><time>2026-04-09T13:22:07Z</time></trkpt><trkpt lat="44.17283367403367" lon="9.60749663872404"><ele>29.333333333333336</ele><time>2026-04-09T13:22:08Z</time></trkpt><trkpt lat="44.17283820853922" lon="9.607610320145204"><ele>29.0</ele><time>2026-04-09T13:22:09Z</time></trkpt><trkpt lat="44.17284003012154" lon="9.607723659869581"><ele>28.666666666666668</ele><time>2026-04-09T13:22:10Z</time></trkpt><trkpt lat="44.17283845799939" lon="9.607839347957528"><ele>28.333333333333336</ele><time>2026-04-09T13:22:11Z</time></trkpt><trkpt lat="44.17283990290803" lon="9.607954830898759"><ele>28.0</ele><time>2026-04-09T13:22:12Z</time></trkpt><trkpt lat="44.172842146796754" lon="9.60807158641655"><ele>28.000000000000004</ele><time>2026-04-09T13:22:13Z</time></trkpt><trkpt lat="44.17284892908769" lon="9.608186658744591"><ele>28.0</ele><time>2026-04-09T13:22:14Z</time></trkpt><trkpt lat="44.17284739567296" lon="9.608305970959929"><ele>28.0</ele><time>2026-04-09T13:22:15Z</time></trkpt><trkpt lat="44.17289423892562" lon="9.608409631124816"><ele>28.0</ele><time>2026-04-09T13:22:16Z</time></trkpt><trkpt lat="44.172913525357835" lon="9.608522703750603"><ele>28.000000000000004</ele><time>2026-04-09T13:22:17Z</time></trkpt><trkpt lat="44.17294761237215" lon="9.608629488628502"><ele>28.0</ele><time>2026-04-09T13:22:18Z</time></trkpt><trkpt lat="44.172980519571425" lon="9.608732577617502"><ele>27.000000000000004</ele><time>2026-04-09T13:22:19Z</time></trkpt><trkpt lat="44.17301514278209" lon="9.608839677679613"><ele>26.0</ele><time>2026-04-09T13:22:20Z</time></trkpt><trkpt lat="44.17305793977786" lon="9.608935436128563"><ele>25.0</ele><time>2026-04-09T13:22:21Z</time></trkpt><trkpt lat="44.17308848157997" lon="9.609040288084524"><ele>24.0</ele><time>2026-04-09T13:22:22Z</time></trkpt><trkpt lat="44.173117692659794" lon="9.609148268539819"><ele>23.0</ele><time>2026-04-09T13:22:23Z</time></trkpt><trkpt lat="44.17314962175824" lon="9.60924946712591"><ele>22.0</ele><time>2026-04-09T13:22:24Z</time></trkpt><trkpt lat="44.17318123834085" lon="9.609351669920384"><ele>27.5</ele><time>2026-04-09T13:22:25Z</time></trkpt><trkpt lat="44.17320932898225" lon="9.60945392449004"><ele>33.0</ele><time>2026-04-09T13:22:26Z</time></trkpt><trkpt lat="44.17323227768073" lon="9.609559403002029"><ele>38.5</ele><time>2026-04-09T13:22:27Z</time></trkpt><trkpt lat="44.173249668454005" lon="9.609665761144594"><ele>44.0</ele><time>2026-04-09T13:22:28Z</time></trkpt><trkpt lat="44.173265770950984" lon="9.609778358791194"><ele>49.49999999999999</ele><time>2026-04-09T13:22:29Z</time></trkpt><trkpt lat="44.17327546220144" lon="9.609897639684753"><ele>55.0</ele><time>2026-04-09T13:22:30Z</time></trkpt><trkpt lat="44.1732708429072" lon="9.610015073326398"><ele>54.99999999999999</ele><time>2026-04-09T13:22:31Z</time></trkpt><trkpt lat="44.17326407409778" lon="9.610125682337499"><ele>55.0</ele><time>2026-04-09T13:22:32Z</time></trkpt><trkpt lat="44.17325274370917" lon="9.610220933887675"><ele>55.0</ele><time>2026-04-09T13:22:33Z</time></trkpt><trkpt lat="44.17324173663491" lon="9.61031603391431"><ele>55.0</ele><time>2026-04-09T13:22:34Z</time></trkpt><trkpt lat="44.173229889655026" lon="9.61040664504463"><ele>54.99999999999999</ele><time>2026-04-09T13:22:35Z</time></trkpt><trkpt lat="44.173214157359055" lon="9.61056579516996"><ele>55.0</ele><time>2026-04-09T13:22:37Z</time></trkpt><trkpt lat="44.17318494917777" lon="9.610740963695683"><ele>53.99999999999999</ele><time>2026-04-09T13:22:39Z</time></trkpt><trkpt lat="44.17317504876834" lon="9.61083060080598"><ele>53.0</ele><time>2026-04-09T13:22:40Z</time></trkpt><trkpt lat="44.17317632790498" lon="9.610919501768922"><ele>52.0</ele><time>2026-04-09T13:22:41Z</time></trkpt><trkpt lat="44.173189355332404" lon="9.611009533047007"><ele>51.0</ele><time>2026-04-09T13:22:42Z</time></trkpt><trkpt lat="44.1732433834561" lon="9.611152953683622"><ele>49.99999999999999</ele><time>2026-04-09T13:22:44Z</time></trkpt><trkpt lat="44.17331769502118" lon="9.611292625342797"><ele>49.0</ele><time>2026-04-09T13:22:46Z</time></trkpt><trkpt lat="44.17335057098466" lon="9.611369936282445"><ele>46.49999999999999</ele><time>2026-04-09T13:22:47Z</time></trkpt><trkpt lat="44.17339400945837" lon="9.611453486346361"><ele>44.0</ele><time>2026-04-09T13:22:48Z</time></trkpt><trkpt lat="44.17344266620093" lon="9.611530714246582"><ele>41.5</ele><time>2026-04-09T13:22:49Z</time></trkpt><trkpt lat="44.17348932552916" lon="9.611600424481841"><ele>39.0</ele><time>2026-04-09T13:22:50Z</time></trkpt><trkpt lat="44.173537971001785" lon="9.611670397156885"><ele>36.5</ele><time>2026-04-09T13:22:51Z</time></trkpt><trkpt lat="44.173587114753914" lon="9.611738652555257"><ele>34.0</ele><time>2026-04-09T13:22:51.999Z</time></trkpt><trkpt lat="44.173670449985025" lon="9.611853614262328"><ele>34.0</ele><time>2026-04-09T13:22:53.999Z</time></trkpt><trkpt lat="44.173719580064294" lon="9.611949122840509"><ele>34.0</ele><time>2026-04-09T13:22:55.999Z</time></trkpt><trkpt lat="44.17366993602001" lon="9.612017771011946"><ele>34.0</ele><time>2026-04-09T13:22:59.999Z</time></trkpt><trkpt lat="44.17358581526079" lon="9.61192564560505"><ele>34.0</ele><time>2026-04-09T13:23:01.999Z</time></trkpt><trkpt lat="44.17350717540378" lon="9.611803759469018"><ele>34.0</ele><time>2026-04-09T13:23:03.999Z</time></trkpt><trkpt lat="44.17345160607714" lon="9.611745560793157"><ele>34.0</ele><time>2026-04-09T13:23:04.999Z</time></trkpt><trkpt lat="44.17339507094569" lon="9.611679393849432"><ele>34.0</ele><time>2026-04-09T13:23:05.999Z</time></trkpt><trkpt lat="44.17333696108361" lon="9.61159005870681"><ele>34.0</ele><time>2026-04-09T13:23:06.999Z</time></trkpt><trkpt lat="44.17327385390079" lon="9.61150652468273"><ele>34.0</ele><time>2026-04-09T13:23:07.999Z</time></trkpt><trkpt lat="44.173203997452426" lon="9.611422873064988"><ele>34.0</ele><time>2026-04-09T13:23:08.999Z</time></trkpt><trkpt lat="44.17313404946781" lon="9.611319271905224"><ele>34.0</ele><time>2026-04-09T13:23:09.999Z</time></trkpt><trkpt lat="44.17306656725589" lon="9.611236763233576"><ele>31.333333333333336</ele><time>2026-04-09T13:23:10.999Z</time></trkpt><trkpt lat="44.17300238899474" lon="9.611147683718738"><ele>28.666666666666668</ele><time>2026-04-09T13:23:11.999Z</time></trkpt><trkpt lat="44.17295742300347" lon="9.611046493425402"><ele>26.0</ele><time>2026-04-09T13:23:12.999Z</time></trkpt><trkpt lat="44.17290408722015" lon="9.61097044168906"><ele>23.333333333333336</ele><time>2026-04-09T13:23:13.999Z</time></trkpt><trkpt lat="44.17282652662888" lon="9.610881336020283"><ele>20.666666666666668</ele><time>2026-04-09T13:23:15.999Z</time></trkpt><trkpt lat="44.17275159274116" lon="9.61095900210706"><ele>18.0</ele><time>2026-04-09T13:23:18.999Z</time></trkpt><trkpt lat="44.172737480800315" lon="9.611086743847292"><ele>18.0</ele><time>2026-04-09T13:23:20.999Z</time></trkpt><trkpt lat="44.17279624100333" lon="9.611143917516927"><ele>18.0</ele><time>2026-04-09T13:23:21.999Z</time></trkpt><trkpt lat="44.172850322771694" lon="9.61128855957479"><ele>18.0</ele><time>2026-04-09T13:23:23.999Z</time></trkpt><trkpt lat="44.172890465408784" lon="9.611364983450416"><ele>18.0</ele><time>2026-04-09T13:23:24.999Z</time></trkpt><trkpt lat="44.17293341818611" lon="9.611446265133548"><ele>18.0</ele><time>2026-04-09T13:23:25.999Z</time></trkpt><trkpt lat="44.17298260998918" lon="9.611539353230471"><ele>18.0</ele><time>2026-04-09T13:23:26.999Z</time></trkpt><trkpt lat="44.17303118709758" lon="9.61163127813137"><ele>17.5</ele><time>2026-04-09T13:23:27.999Z</time></trkpt><trkpt lat="44.17307963967272" lon="9.611722967420711"><ele>17.0</ele><time>2026-04-09T13:23:28.999Z</time></trkpt><trkpt lat="44.17312695383849" lon="9.61181588114471"><ele>16.5</ele><time>2026-04-09T13:23:29.999Z</time></trkpt><trkpt lat="44.173187393597296" lon="9.611907174431764"><ele>16.0</ele><time>2026-04-09T13:23:30.999Z</time></trkpt><trkpt lat="44.17322598394824" lon="9.612013047645236"><ele>15.5</ele><time>2026-04-09T13:23:31.999Z</time></trkpt><trkpt lat="44.17327152928086" lon="9.612104752019308"><ele>15.0</ele><time>2026-04-09T13:23:32.999Z</time></trkpt><trkpt lat="44.17330969799606" lon="9.612185950513275"><ele>15.0</ele><time>2026-04-09T13:23:33.999Z</time></trkpt><trkpt lat="44.17336509209683" lon="9.612283468542811"><ele>15.0</ele><time>2026-04-09T13:23:35.999Z</time></trkpt><trkpt lat="44.17328809971667" lon="9.6123019121446"><ele>15.0</ele><time>2026-04-09T13:23:38.999Z</time></trkpt><trkpt lat="44.173210401139144" lon="9.612204441377601"><ele>15.0</ele><time>2026-04-09T13:23:40.999Z</time></trkpt><trkpt lat="44.17314057772306" lon="9.612103019418655"><ele>15.0</ele><time>2026-04-09T13:23:42.999Z</time></trkpt><trkpt lat="44.173070912490864" lon="9.611984364742334"><ele>15.0</ele><time>2026-04-09T13:23:44.999Z</time></trkpt><trkpt lat="44.173019210174694" lon="9.611919656350889"><ele>15.0</ele><time>2026-04-09T13:23:45.999Z</time></trkpt><trkpt lat="44.17293367268043" lon="9.611809417594857"><ele>15.0</ele><time>2026-04-09T13:23:47.999Z</time></trkpt><trkpt lat="44.17283914383692" lon="9.611684315278989"><ele>15.0</ele><time>2026-04-09T13:23:49.999Z</time></trkpt><trkpt lat="44.17277409284885" lon="9.61161405170308"><ele>15.0</ele><time>2026-04-09T13:23:50.999Z</time></trkpt><trkpt lat="44.172720288811" lon="9.61153877400671"><ele>15.0</ele><time>2026-04-09T13:23:51.999Z</time></trkpt><trkpt lat="44.17266246809667" lon="9.611464246834538"><ele>15.0</ele><time>2026-04-09T13:23:52.999Z</time></trkpt><trkpt lat="44.17260453466946" lon="9.611388147126462"><ele>15.0</ele><time>2026-04-09T13:23:53.999Z</time></trkpt><trkpt lat="44.17254789536824" lon="9.611315050120364"><ele>15.0</ele><time>2026-04-09T13:23:54.999Z</time></trkpt><trkpt lat="44.172497731638" lon="9.611243227727902"><ele>15.0</ele><time>2026-04-09T13:23:55.999Z</time></trkpt><trkpt lat="44.1724351727801" lon="9.611169884289035"><ele>15.0</ele><time>2026-04-09T13:23:56.999Z</time></trkpt><trkpt lat="44.17237865609322" lon="9.611102144670115"><ele>15.5</ele><time>2026-04-09T13:23:57.999Z</time></trkpt><trkpt lat="44.172348104519585" lon="9.610991973290732"><ele>16.0</ele><time>2026-04-09T13:23:58.999Z</time></trkpt><trkpt lat="44.17232947315621" lon="9.610879568647134"><ele>16.5</ele><time>2026-04-09T13:23:59.998Z</time></trkpt><trkpt lat="44.172325055444624" lon="9.610773284411835"><ele>17.0</ele><time>2026-04-09T13:24:00.998Z</time></trkpt><trkpt lat="44.17234872179068" lon="9.61067673367465"><ele>17.5</ele><time>2026-04-09T13:24:01.998Z</time></trkpt><trkpt lat="44.17239040763213" lon="9.610589784824262"><ele>18.0</ele><time>2026-04-09T13:24:03Z</time></trkpt><trkpt lat="44.172437035307155" lon="9.61050555910807"><ele>18.0</ele><time>2026-04-09T13:24:04Z</time></trkpt><trkpt lat="44.17246448325731" lon="9.610399582160813"><ele>18.0</ele><time>2026-04-09T13:24:05Z</time></trkpt><trkpt lat="44.17247071423012" lon="9.61027966905738"><ele>18.0</ele><time>2026-04-09T13:24:06Z</time></trkpt><trkpt lat="44.17247982482033" lon="9.610148592647406"><ele>18.0</ele><time>2026-04-09T13:24:07Z</time></trkpt><trkpt lat="44.172488265376444" lon="9.610019845715504"><ele>18.0</ele><time>2026-04-09T13:24:08Z</time></trkpt><trkpt lat="44.172493316599954" lon="9.609892339353825"><ele>18.0</ele><time>2026-04-09T13:24:09Z</time></trkpt><trkpt lat="44.172498483967175" lon="9.609763884760516"><ele>18.333333333333332</ele><time>2026-04-09T13:24:10Z</time></trkpt><trkpt lat="44.17249729799376" lon="9.609652441274564"><ele>18.666666666666668</ele><time>2026-04-09T13:24:11Z</time></trkpt><trkpt lat="44.17247504136893" lon="9.609554738907399"><ele>19.0</ele><time>2026-04-09T13:24:12Z</time></trkpt><trkpt lat="44.17245811725517" lon="9.609461934358087"><ele>19.333333333333336</ele><time>2026-04-09T13:24:13Z</time></trkpt><trkpt lat="44.17244498525819" lon="9.609367813414643"><ele>19.666666666666668</ele><time>2026-04-09T13:24:14Z</time></trkpt><trkpt lat="44.17242412939381" lon="9.609225970335585"><ele>20.0</ele><time>2026-04-09T13:24:16Z</time></trkpt><trkpt lat="44.172395927332055" lon="9.609109107823663"><ele>20.4</ele><time>2026-04-09T13:24:18Z</time></trkpt><trkpt lat="44.172375644621326" lon="9.608998763479159"><ele>20.8</ele><time>2026-04-09T13:24:20Z</time></trkpt><trkpt lat="44.17229269392946" lon="9.608888757055047"><ele>21.200000000000003</ele><time>2026-04-09T13:24:22Z</time></trkpt><trkpt lat="44.1722193256602" lon="9.608809313024338"><ele>21.6</ele><time>2026-04-09T13:24:24Z</time></trkpt><trkpt lat="44.1721558889888" lon="9.608740664612037"><ele>22.0</ele><time>2026-04-09T13:24:26Z</time></trkpt><trkpt lat="44.17208084111175" lon="9.60865505065676"><ele>19.666666666666664</ele><time>2026-04-09T13:24:29Z</time></trkpt><trkpt lat="44.17200504746946" lon="9.60860792925747"><ele>17.333333333333332</ele><time>2026-04-09T13:24:32Z</time></trkpt><trkpt lat="44.17193186274748" lon="9.608575715003964"><ele>15.0</ele><time>2026-04-09T13:24:34Z</time></trkpt><trkpt lat="44.17186820724765" lon="9.608578288786521"><ele>12.666666666666666</ele><time>2026-04-09T13:24:35Z</time></trkpt><trkpt lat="44.17180191956722" lon="9.608554415636215"><ele>10.333333333333332</ele><time>2026-04-09T13:24:36Z</time></trkpt><trkpt lat="44.17173033385817" lon="9.608567153016345"><ele>8.0</ele><time>2026-04-09T13:24:37Z</time></trkpt><trkpt lat="44.17161558905031" lon="9.608622798288067"><ele>7.999999999999999</ele><time>2026-04-09T13:24:39Z</time></trkpt><trkpt lat="44.17154551114708" lon="9.608669184458469"><ele>8.0</ele><time>2026-04-09T13:24:41Z</time></trkpt><trkpt lat="44.171472716101476" lon="9.60872555843346"><ele>8.0</ele><time>2026-04-09T13:24:43Z</time></trkpt><trkpt lat="44.171369752663686" lon="9.608770619147796"><ele>8.0</ele><time>2026-04-09T13:24:45Z</time></trkpt><trkpt lat="44.17129356173373" lon="9.60881743807709"><ele>7.999999999999999</ele><time>2026-04-09T13:24:46Z</time></trkpt><trkpt lat="44.1712240565545" lon="9.608855525999356"><ele>8.0</ele><time>2026-04-09T13:24:47Z</time></trkpt><trkpt lat="44.17116060767981" lon="9.608883345713462"><ele>7.800000000000001</ele><time>2026-04-09T13:24:48Z</time></trkpt><trkpt lat="44.171069237137004" lon="9.608960574888737"><ele>7.6000000000000005</ele><time>2026-04-09T13:24:49.999Z</time></trkpt><trkpt lat="44.1709958358384" lon="9.60900533860006"><ele>7.3999999999999995</ele><time>2026-04-09T13:24:51.999Z</time></trkpt><trkpt lat="44.170922739299805" lon="9.609045029453284"><ele>7.199999999999999</ele><time>2026-04-09T13:25:00.999Z</time></trkpt><trkpt lat="44.170856116284874" lon="9.609189606482326"><ele>7.0</ele><time>2026-04-09T13:25:03.999Z</time></trkpt><trkpt lat="44.170912197793875" lon="9.609302949118176"><ele>7.000000000000001</ele><time>2026-04-09T13:25:05.999Z</time></trkpt><trkpt lat="44.170931169303984" lon="9.609396307481218"><ele>7.0</ele><time>2026-04-09T13:25:06.999Z</time></trkpt><trkpt lat="44.17095444512592" lon="9.609485104529336"><ele>7.0</ele><time>2026-04-09T13:25:07.999Z</time></trkpt><trkpt lat="44.17097870934102" lon="9.609599887589745"><ele>7.0</ele><time>2026-04-09T13:25:08.999Z</time></trkpt><trkpt lat="44.17099452541331" lon="9.609712270622092"><ele>7.000000000000001</ele><time>2026-04-09T13:25:09.999Z</time></trkpt><trkpt lat="44.17101441878265" lon="9.609822256717235"><ele>7.0</ele><time>2026-04-09T13:25:10.999Z</time></trkpt><trkpt lat="44.171036294315776" lon="9.609935880176575"><ele>7.000000000000001</ele><time>2026-04-09T13:25:11.999Z</time></trkpt><trkpt lat="44.17104240620261" lon="9.610039528820042"><ele>7.0</ele><time>2026-04-09T13:25:12.999Z</time></trkpt><trkpt lat="44.17105960787672" lon="9.610128581710153"><ele>7.0</ele><time>2026-04-09T13:25:13.999Z</time></trkpt><trkpt lat="44.171077114173734" lon="9.610221588932678"><ele>7.0</ele><time>2026-04-09T13:25:14.999Z</time></trkpt><trkpt lat="44.17110794236258" lon="9.610331597644043"><ele>7.000000000000001</ele><time>2026-04-09T13:25:16.999Z</time></trkpt><trkpt lat="44.17112845363096" lon="9.610442023520902"><ele>7.0</ele><time>2026-04-09T13:25:18.999Z</time></trkpt><trkpt lat="44.17111657522156" lon="9.610556723393763"><ele>7.0</ele><time>2026-04-09T13:25:20.999Z</time></trkpt><trkpt lat="44.17107946693033" lon="9.610685650520375"><ele>6.999999999999999</ele><time>2026-04-09T13:25:21.999Z</time></trkpt><trkpt lat="44.17094304378396" lon="9.610784926623927"><ele>6.999999999999999</ele><time>2026-04-09T13:25:23.999Z</time></trkpt><trkpt lat="44.170883866404374" lon="9.610828047276385"><ele>7.0</ele><time>2026-04-09T13:25:24.999Z</time></trkpt><trkpt lat="44.170778758253235" lon="9.610904636263284"><ele>7.0</ele><time>2026-04-09T13:25:26.999Z</time></trkpt><trkpt lat="44.17069021269726" lon="9.610968276337518"><ele>7.199999999999999</ele><time>2026-04-09T13:25:28.999Z</time></trkpt><trkpt lat="44.17060315787914" lon="9.611029506668045"><ele>7.3999999999999995</ele><time>2026-04-09T13:25:30.999Z</time></trkpt><trkpt lat="44.17053390818221" lon="9.61107821368944"><ele>7.6000000000000005</ele><time>2026-04-09T13:25:32.999Z</time></trkpt><trkpt lat="44.17046615761134" lon="9.611125866300387"><ele>7.800000000000001</ele><time>2026-04-09T13:25:34.999Z</time></trkpt><trkpt lat="44.170400956085224" lon="9.611171726039771"><ele>8.0</ele><time>2026-04-09T13:25:37.999Z</time></trkpt><trkpt lat="44.170334976546066" lon="9.610958559264912"><ele>7.999999999999999</ele><time>2026-04-09T13:25:38.999Z</time></trkpt><trkpt lat="44.17029777500045" lon="9.610853716686238"><ele>8.0</ele><time>2026-04-09T13:25:39.999Z</time></trkpt><trkpt lat="44.1702722640323" lon="9.610762001581497"><ele>8.0</ele><time>2026-04-09T13:25:40.999Z</time></trkpt><trkpt lat="44.1702303943351" lon="9.610652132626662"><ele>8.0</ele><time>2026-04-09T13:25:41.999Z</time></trkpt><trkpt lat="44.1701982990592" lon="9.61054675770075"><ele>7.999999999999999</ele><time>2026-04-09T13:25:42.999Z</time></trkpt><trkpt lat="44.17014883889431" lon="9.610438340227358"><ele>8.0</ele><time>2026-04-09T13:25:43.999Z</time></trkpt><trkpt lat="44.17012226832374" lon="9.610328537116013"><ele>8.0</ele><time>2026-04-09T13:25:44.999Z</time></trkpt><trkpt lat="44.1700900874205" lon="9.610212082381429"><ele>8.0</ele><time>2026-04-09T13:25:45.999Z</time></trkpt><trkpt lat="44.17005064604721" lon="9.610110996438662"><ele>8.0</ele><time>2026-04-09T13:25:46.999Z</time></trkpt><trkpt lat="44.17001759869333" lon="9.610032462710215"><ele>8.0</ele><time>2026-04-09T13:25:47.999Z</time></trkpt><trkpt lat="44.169986407542346" lon="9.609901887149618"><ele>8.0</ele><time>2026-04-09T13:25:49.999Z</time></trkpt></trkseg></trk></gpx>